<?xml version='1.0' encoding='UTF-8'?><gpx version="1.1" creator="JPX - https://github.com/jenetics/jpx" xmlns="http://www.topografix.com/GPX/1/1"><trk><trkseg><trkpt lat="45.084956424435106" lon="7.520490179293535"><ele>344.0</ele><time>2026-04-18T16:27:50Z</time></trkpt><trkpt lat="45.084978968264124" lon="7.520594545488471"><ele>344.0</ele><time>2026-04-18T16:28:00Z</time></trkpt><trkpt lat="45.084987273472784" lon="7.520708464088264"><ele>344.0</ele><time>2026-04-18T16:28:06Z</time></trkpt><trkpt lat="45.08505334393778" lon="7.5206529552341035"><ele>344.0</ele><time>2026-04-18T16:28:09Z</time></trkpt><trkpt lat="45.085190777116665" lon="7.520702797481763"><ele>344.0</ele><time>2026-04-18T16:28:11Z</time></trkpt><trkpt lat="45.085339165781946" lon="7.52076704584448"><ele>344.0</ele><time>2026-04-18T16:28:12Z</time></trkpt><trkpt lat="45.08543631967203" lon="7.520796576073738"><ele>344.0</ele><time>2026-04-18T16:28:13.001Z</time></trkpt><trkpt lat="45.08555508095607" lon="7.520832440465982"><ele>344.0</ele><time>2026-04-18T16:28:14.001Z</time></trkpt><trkpt lat="45.085710128259606" lon="7.520894191699595"><ele>344.0</ele><time>2026-04-18T16:28:15.001Z</time></trkpt><trkpt lat="45.085816827925484" lon="7.520960639284522"><ele>343.5</ele><time>2026-04-18T16:28:16.001Z</time></trkpt><trkpt lat="45.08591751958546" lon="7.521034207537097"><ele>343.0</ele><time>2026-04-18T16:28:17.001Z</time></trkpt><trkpt lat="45.08599240224734" lon="7.521242097513822"><ele>342.5</ele><time>2026-04-18T16:28:18.001Z</time></trkpt><trkpt lat="45.086074613010176" lon="7.521325067316197"><ele>342.0</ele><time>2026-04-18T16:28:19.001Z</time></trkpt><trkpt lat="45.086164713505894" lon="7.521394540346249"><ele>342.0</ele><time>2026-04-18T16:28:20.001Z</time></trkpt><trkpt lat="45.086267301584606" lon="7.521469637891283"><ele>342.0</ele><time>2026-04-18T16:28:21.001Z</time></trkpt><trkpt lat="45.08636131928537" lon="7.521591220749561"><ele>342.0</ele><time>2026-04-18T16:28:22.001Z</time></trkpt><trkpt lat="45.086458896466745" lon="7.521691399021919"><ele>342.0</ele><time>2026-04-18T16:28:23.001Z</time></trkpt><trkpt lat="45.086534546179266" lon="7.521925398244518"><ele>341.0</ele><time>2026-04-18T16:28:24.001Z</time></trkpt><trkpt lat="45.086671418264736" lon="7.522102119068488"><ele>340.0</ele><time>2026-04-18T16:28:25.001Z</time></trkpt><trkpt lat="45.08685603990151" lon="7.522310458919739"><ele>339.0</ele><time>2026-04-18T16:28:26.001Z</time></trkpt><trkpt lat="45.08709071610069" lon="7.522555335530431"><ele>339.0</ele><time>2026-04-18T16:28:27.001Z</time></trkpt><trkpt lat="45.087326065747774" lon="7.52280635958405"><ele>339.0</ele><time>2026-04-18T16:28:28.001Z</time></trkpt><trkpt lat="45.087523535357654" lon="7.523001498053212"><ele>338.3333333333333</ele><time>2026-04-18T16:28:29.001Z</time></trkpt><trkpt lat="45.08772261792918" lon="7.52318143628985"><ele>337.66666666666663</ele><time>2026-04-18T16:28:30.001Z</time></trkpt><trkpt lat="45.08774722428732" lon="7.523402924135125"><ele>337.0</ele><time>2026-04-18T16:28:31.001Z</time></trkpt><trkpt lat="45.08789093511725" lon="7.523565381829561"><ele>337.0</ele><time>2026-04-18T16:28:32.001Z</time></trkpt><trkpt lat="45.08809926054976" lon="7.523689705764591"><ele>337.0</ele><time>2026-04-18T16:28:33.001Z</time></trkpt><trkpt lat="45.08825156380267" lon="7.523851333326418"><ele>337.0</ele><time>2026-04-18T16:28:34.001Z</time></trkpt><trkpt lat="45.088420942515555" lon="7.523998729262246"><ele>337.0</ele><time>2026-04-18T16:28:35.001Z</time></trkpt><trkpt lat="45.08857653798241" lon="7.524162924913749"><ele>337.0</ele><time>2026-04-18T16:28:36.001Z</time></trkpt><trkpt lat="45.088725307508305" lon="7.52431430157421"><ele>337.0</ele><time>2026-04-18T16:28:37.001Z</time></trkpt><trkpt lat="45.088948372460315" lon="7.524445712971065"><ele>337.3333333333333</ele><time>2026-04-18T16:28:38.001Z</time></trkpt><trkpt lat="45.08915261145308" lon="7.524580116915149"><ele>337.6666666666667</ele><time>2026-04-18T16:28:39.001Z</time></trkpt><trkpt lat="45.08935076788123" lon="7.524696793599139"><ele>338.0</ele><time>2026-04-18T16:28:40.001Z</time></trkpt><trkpt lat="45.08954726449217" lon="7.5247750609055695"><ele>338.0</ele><time>2026-04-18T16:28:41.001Z</time></trkpt><trkpt lat="45.089755495597736" lon="7.524860938686703"><ele>338.0</ele><time>2026-04-18T16:28:42.001Z</time></trkpt><trkpt lat="45.08996053750559" lon="7.52487314333149"><ele>338.0</ele><time>2026-04-18T16:28:43.001Z</time></trkpt><trkpt lat="45.09018805147302" lon="7.524911092275081"><ele>338.0</ele><time>2026-04-18T16:28:44.001Z</time></trkpt><trkpt lat="45.09038994158193" lon="7.524957731130347"><ele>338.0</ele><time>2026-04-18T16:28:45.001Z</time></trkpt><trkpt lat="45.09059278900066" lon="7.524954395629957"><ele>338.0</ele><time>2026-04-18T16:28:46.001Z</time></trkpt><trkpt lat="45.09076091610793" lon="7.525015399467878"><ele>338.6666666666667</ele><time>2026-04-18T16:28:47.001Z</time></trkpt><trkpt lat="45.09092143322921" lon="7.525045944435723"><ele>339.3333333333333</ele><time>2026-04-18T16:28:48.001Z</time></trkpt><trkpt lat="45.091094762247856" lon="7.525057086167589"><ele>340.0</ele><time>2026-04-18T16:28:49.001Z</time></trkpt><trkpt lat="45.091269367472634" lon="7.525085192256638"><ele>340.0</ele><time>2026-04-18T16:28:50.001Z</time></trkpt><trkpt lat="45.091428975867935" lon="7.525111011801958"><ele>340.0</ele><time>2026-04-18T16:28:51.001Z</time></trkpt><trkpt lat="45.09160334415897" lon="7.5251392242417126"><ele>340.0</ele><time>2026-04-18T16:28:52.001Z</time></trkpt><trkpt lat="45.0917259386979" lon="7.525157586744896"><ele>340.0</ele><time>2026-04-18T16:28:53.001Z</time></trkpt><trkpt lat="45.091821226854435" lon="7.525191263404406"><ele>340.0</ele><time>2026-04-18T16:28:54.001Z</time></trkpt><trkpt lat="45.09195288119038" lon="7.525169691671303"><ele>340.0</ele><time>2026-04-18T16:28:55.001Z</time></trkpt><trkpt lat="45.09207201189628" lon="7.525209415102833"><ele>340.0</ele><time>2026-04-18T16:28:56.001Z</time></trkpt><trkpt lat="45.09219930777531" lon="7.52522768551921"><ele>340.0</ele><time>2026-04-18T16:28:58.001Z</time></trkpt><trkpt lat="45.09225343443259" lon="7.525175761549876"><ele>340.0</ele><time>2026-04-18T16:28:59.001Z</time></trkpt><trkpt lat="45.092324213469624" lon="7.52515826833183"><ele>340.0</ele><time>2026-04-18T16:29:00.001Z</time></trkpt><trkpt lat="45.09239312745554" lon="7.525118902033724"><ele>340.0</ele><time>2026-04-18T16:29:01.001Z</time></trkpt><trkpt lat="45.09247795521246" lon="7.52508151506825"><ele>340.0</ele><time>2026-04-18T16:29:03.001Z</time></trkpt><trkpt lat="45.09252134077284" lon="7.524982874000971"><ele>340.0</ele><time>2026-04-18T16:29:06.001Z</time></trkpt><trkpt lat="45.09258807505618" lon="7.524905805017884"><ele>339.5</ele><time>2026-04-18T16:29:08.001Z</time></trkpt><trkpt lat="45.09263611650901" lon="7.524826600695168"><ele>339.0</ele><time>2026-04-18T16:29:11.001Z</time></trkpt><trkpt lat="45.09267967084193" lon="7.52473550629805"><ele>338.5</ele><time>2026-04-18T16:29:15.001Z</time></trkpt><trkpt lat="45.092704072146134" lon="7.524651397091948"><ele>338.0</ele><time>2026-04-18T16:29:17.001Z</time></trkpt><trkpt lat="45.09275492648978" lon="7.524554560705802"><ele>337.5</ele><time>2026-04-18T16:29:19.002Z</time></trkpt><trkpt lat="45.09280604917469" lon="7.524479309859074"><ele>337.0</ele><time>2026-04-18T16:29:20.002Z</time></trkpt><trkpt lat="45.092884507285646" lon="7.524470605102861"><ele>337.0</ele><time>2026-04-18T16:29:21.002Z</time></trkpt><trkpt lat="45.09284045939361" lon="7.524376741577109"><ele>337.0</ele><time>2026-04-18T16:29:23.002Z</time></trkpt><trkpt lat="45.09278407363955" lon="7.5243328618404215"><ele>337.0</ele><time>2026-04-18T16:29:26.002Z</time></trkpt><trkpt lat="45.092822509824146" lon="7.5242167839825305"><ele>337.0</ele><time>2026-04-18T16:29:28.002Z</time></trkpt><trkpt lat="45.092840730231046" lon="7.524005443686894"><ele>337.0</ele><time>2026-04-18T16:29:30.002Z</time></trkpt><trkpt lat="45.09285171252379" lon="7.523895576987079"><ele>337.25</ele><time>2026-04-18T16:29:31Z</time></trkpt><trkpt lat="45.09286560266617" lon="7.523716035057341"><ele>337.5</ele><time>2026-04-18T16:29:33Z</time></trkpt><trkpt lat="45.09290048973133" lon="7.523595549203648"><ele>337.75</ele><time>2026-04-18T16:29:34Z</time></trkpt><trkpt lat="45.09291869790325" lon="7.523500459352164"><ele>338.0</ele><time>2026-04-18T16:29:35Z</time></trkpt><trkpt lat="45.09308036141695" lon="7.523508744959107"><ele>338.0</ele><time>2026-04-18T16:29:37Z</time></trkpt><trkpt lat="45.09316220817304" lon="7.523507940565395"><ele>338.0</ele><time>2026-04-18T16:29:38Z</time></trkpt><trkpt lat="45.09325295866483" lon="7.52349965505053"><ele>338.0</ele><time>2026-04-18T16:29:39Z</time></trkpt><trkpt lat="45.093345882259385" lon="7.52349117113544"><ele>338.0</ele><time>2026-04-18T16:29:40Z</time></trkpt><trkpt lat="45.09343995473335" lon="7.523482582719095"><ele>338.0</ele><time>2026-04-18T16:29:41Z</time></trkpt><trkpt lat="45.0935372876888" lon="7.523472787643954"><ele>338.0</ele><time>2026-04-18T16:29:42Z</time></trkpt><trkpt lat="45.093623968376804" lon="7.523464371772305"><ele>338.0</ele><time>2026-04-18T16:29:43Z</time></trkpt><trkpt lat="45.093719236583844" lon="7.523455122138809"><ele>338.0</ele><time>2026-04-18T16:29:44Z</time></trkpt><trkpt lat="45.09385682289463" lon="7.523479523043783"><ele>338.0</ele><time>2026-04-18T16:29:45Z</time></trkpt><trkpt lat="45.093938534728615" lon="7.5234718667726925"><ele>338.0</ele><time>2026-04-18T16:29:46Z</time></trkpt><trkpt lat="45.094054419491506" lon="7.52346123705308"><ele>338.0</ele><time>2026-04-18T16:29:47Z</time></trkpt><trkpt lat="45.09417137501253" lon="7.523448429791682"><ele>338.0</ele><time>2026-04-18T16:29:48Z</time></trkpt><trkpt lat="45.09428234618747" lon="7.523424661129531"><ele>338.0</ele><time>2026-04-18T16:29:49Z</time></trkpt><trkpt lat="45.09438531525465" lon="7.523420210149117"><ele>338.0</ele><time>2026-04-18T16:29:50Z</time></trkpt><trkpt lat="45.094507253670415" lon="7.523392657699949"><ele>338.0</ele><time>2026-04-18T16:29:51Z</time></trkpt><trkpt lat="45.09461221881225" lon="7.52339489235355"><ele>338.0</ele><time>2026-04-18T16:29:52Z</time></trkpt><trkpt lat="45.09479406662157" lon="7.523301465022317"><ele>338.0</ele><time>2026-04-18T16:29:53Z</time></trkpt><trkpt lat="45.094982938262945" lon="7.523299549186029"><ele>338.0</ele><time>2026-04-18T16:29:54Z</time></trkpt><trkpt lat="45.09517453633028" lon="7.52331089245481"><ele>338.0</ele><time>2026-04-18T16:29:55Z</time></trkpt><trkpt lat="45.095342286168695" lon="7.523271269810467"><ele>338.0</ele><time>2026-04-18T16:29:56Z</time></trkpt><trkpt lat="45.09550126352414" lon="7.52327862850867"><ele>338.0</ele><time>2026-04-18T16:29:57Z</time></trkpt><trkpt lat="45.09565758387234" lon="7.5232536866633435"><ele>338.0</ele><time>2026-04-18T16:29:58Z</time></trkpt><trkpt lat="45.09581014303871" lon="7.523248048664661"><ele>338.0</ele><time>2026-04-18T16:29:59Z</time></trkpt><trkpt lat="45.09593922983543" lon="7.523231190646738"><ele>338.0</ele><time>2026-04-18T16:30:00Z</time></trkpt><trkpt lat="45.09604535780501" lon="7.523228953286949"><ele>337.4</ele><time>2026-04-18T16:30:01Z</time></trkpt><trkpt lat="45.09613865926242" lon="7.523219831297434"><ele>336.79999999999995</ele><time>2026-04-18T16:30:02Z</time></trkpt><trkpt lat="45.096226495263295" lon="7.523221175407269"><ele>336.2</ele><time>2026-04-18T16:30:03Z</time></trkpt><trkpt lat="45.09629543775971" lon="7.523203718987243"><ele>335.6</ele><time>2026-04-18T16:30:04Z</time></trkpt><trkpt lat="45.096380509288885" lon="7.523171700510113"><ele>335.0</ele><time>2026-04-18T16:30:06Z</time></trkpt><trkpt lat="45.09650680505981" lon="7.523160174240055"><ele>334.6</ele><time>2026-04-18T16:30:08Z</time></trkpt><trkpt lat="45.09659778387826" lon="7.523155211645007"><ele>334.2</ele><time>2026-04-18T16:30:09Z</time></trkpt><trkpt lat="45.09670060171113" lon="7.523156003327604"><ele>333.79999999999995</ele><time>2026-04-18T16:30:10Z</time></trkpt><trkpt lat="45.096810466239866" lon="7.523166772632608"><ele>333.4</ele><time>2026-04-18T16:30:11Z</time></trkpt><trkpt lat="45.09691478847394" lon="7.523164551454372"><ele>333.0</ele><time>2026-04-18T16:30:12Z</time></trkpt><trkpt lat="45.09703241130801" lon="7.523156654930041"><ele>333.0</ele><time>2026-04-18T16:30:13Z</time></trkpt><trkpt lat="45.09714779393036" lon="7.523143055908588"><ele>333.0</ele><time>2026-04-18T16:30:14Z</time></trkpt><trkpt lat="45.0972591541767" lon="7.523129276416901"><ele>333.0</ele><time>2026-04-18T16:30:15Z</time></trkpt><trkpt lat="45.097370514044655" lon="7.523125205869003"><ele>333.0</ele><time>2026-04-18T16:30:16Z</time></trkpt><trkpt lat="45.09748784343686" lon="7.523120043709613"><ele>330.75</ele><time>2026-04-18T16:30:17Z</time></trkpt><trkpt lat="45.09760738696127" lon="7.523093757949617"><ele>328.5</ele><time>2026-04-18T16:30:18Z</time></trkpt><trkpt lat="45.09772659230567" lon="7.523085745720358"><ele>326.25</ele><time>2026-04-18T16:30:19.001Z</time></trkpt><trkpt lat="45.097843711375276" lon="7.523073746229738"><ele>324.0</ele><time>2026-04-18T16:30:20.001Z</time></trkpt><trkpt lat="45.097963369795224" lon="7.523062155347286"><ele>324.0</ele><time>2026-04-18T16:30:21.001Z</time></trkpt><trkpt lat="45.09808129964561" lon="7.523052670779865"><ele>324.0</ele><time>2026-04-18T16:30:22.001Z</time></trkpt><trkpt lat="45.098200885661605" lon="7.523037671363764"><ele>324.0</ele><time>2026-04-18T16:30:23.001Z</time></trkpt><trkpt lat="45.098317410466855" lon="7.523026747795008"><ele>324.0</ele><time>2026-04-18T16:30:24.001Z</time></trkpt><trkpt lat="45.098431340858745" lon="7.523014137219669"><ele>323.0</ele><time>2026-04-18T16:30:25.001Z</time></trkpt><trkpt lat="45.098550595067785" lon="7.523001846425375"><ele>322.0</ele><time>2026-04-18T16:30:26.001Z</time></trkpt><trkpt lat="45.09866968430372" lon="7.522992242263693"><ele>321.0</ele><time>2026-04-18T16:30:27.001Z</time></trkpt><trkpt lat="45.098785846235465" lon="7.52298200084591"><ele>320.0</ele><time>2026-04-18T16:30:28.001Z</time></trkpt><trkpt lat="45.0989025157696" lon="7.52297390873681"><ele>320.0</ele><time>2026-04-18T16:30:29.001Z</time></trkpt><trkpt lat="45.099015934306685" lon="7.52296341357228"><ele>320.0</ele><time>2026-04-18T16:30:30.001Z</time></trkpt><trkpt lat="45.09912716871587" lon="7.522958631974287"><ele>320.0</ele><time>2026-04-18T16:30:31.001Z</time></trkpt><trkpt lat="45.09923486727726" lon="7.522952110155745"><ele>320.0</ele><time>2026-04-18T16:30:32.001Z</time></trkpt><trkpt lat="45.09933830745888" lon="7.522957303671613"><ele>320.0</ele><time>2026-04-18T16:30:33.001Z</time></trkpt><trkpt lat="45.099428533828025" lon="7.522950344627192"><ele>322.2</ele><time>2026-04-18T16:30:34.001Z</time></trkpt><trkpt lat="45.09951641766754" lon="7.522957754651068"><ele>324.4</ele><time>2026-04-18T16:30:35.001Z</time></trkpt><trkpt lat="45.09959769806475" lon="7.522965942322721"><ele>326.6</ele><time>2026-04-18T16:30:36.001Z</time></trkpt><trkpt lat="45.09967950512319" lon="7.522982685999658"><ele>328.8</ele><time>2026-04-18T16:30:37.001Z</time></trkpt><trkpt lat="45.09975250103257" lon="7.523012512250924"><ele>331.0</ele><time>2026-04-18T16:30:38.001Z</time></trkpt><trkpt lat="45.09987146337128" lon="7.523081806876829"><ele>331.20000000000005</ele><time>2026-04-18T16:30:40.001Z</time></trkpt><trkpt lat="45.09994089111503" lon="7.523131103101525"><ele>331.40000000000003</ele><time>2026-04-18T16:30:41.001Z</time></trkpt><trkpt lat="45.100005761373346" lon="7.52315615214041"><ele>331.6</ele><time>2026-04-18T16:30:42.001Z</time></trkpt><trkpt lat="45.10010964249014" lon="7.523089312540086"><ele>331.8</ele><time>2026-04-18T16:30:44.001Z</time></trkpt><trkpt lat="45.100169533275846" lon="7.522912240287502"><ele>332.0</ele><time>2026-04-18T16:30:46.001Z</time></trkpt><trkpt lat="45.10020147522181" lon="7.522823855087432"><ele>332.0</ele><time>2026-04-18T16:30:47.001Z</time></trkpt><trkpt lat="45.10026073819144" lon="7.522763410208547"><ele>332.0</ele><time>2026-04-18T16:30:48.001Z</time></trkpt><trkpt lat="45.100339242398974" lon="7.5227287316444205"><ele>332.0</ele><time>2026-04-18T16:30:49.001Z</time></trkpt><trkpt lat="45.10043008440714" lon="7.522690426841591"><ele>332.0</ele><time>2026-04-18T16:30:50.001Z</time></trkpt><trkpt lat="45.10052321125072" lon="7.522654984271747"><ele>332.0</ele><time>2026-04-18T16:30:51.001Z</time></trkpt><trkpt lat="45.10062414071133" lon="7.522613609442825"><ele>332.0</ele><time>2026-04-18T16:30:52.001Z</time></trkpt><trkpt lat="45.100732429427275" lon="7.522570397079353"><ele>332.0</ele><time>2026-04-18T16:30:53.001Z</time></trkpt><trkpt lat="45.10083949919873" lon="7.522525455184064"><ele>332.0</ele><time>2026-04-18T16:30:54.001Z</time></trkpt><trkpt lat="45.10094477873251" lon="7.522480430642635"><ele>332.0</ele><time>2026-04-18T16:30:55.001Z</time></trkpt><trkpt lat="45.101056517517414" lon="7.522431077378651"><ele>331.8</ele><time>2026-04-18T16:30:56.001Z</time></trkpt><trkpt lat="45.101169608126746" lon="7.522385625081364"><ele>331.6</ele><time>2026-04-18T16:30:57.001Z</time></trkpt><trkpt lat="45.10127197159311" lon="7.522335529210675"><ele>331.40000000000003</ele><time>2026-04-18T16:30:58.001Z</time></trkpt><trkpt lat="45.10137710561136" lon="7.522291569297063"><ele>331.20000000000005</ele><time>2026-04-18T16:30:59.001Z</time></trkpt><trkpt lat="45.10147348884974" lon="7.5222363122496985"><ele>331.0</ele><time>2026-04-18T16:31:00.001Z</time></trkpt><trkpt lat="45.10157509638036" lon="7.522183461112407"><ele>331.25</ele><time>2026-04-18T16:31:01.001Z</time></trkpt><trkpt lat="45.10167838135028" lon="7.522132609289724"><ele>331.5</ele><time>2026-04-18T16:31:02.001Z</time></trkpt><trkpt lat="45.10178773774115" lon="7.522082977092336"><ele>331.75</ele><time>2026-04-18T16:31:03.001Z</time></trkpt><trkpt lat="45.1019005745178" lon="7.522034467076535"><ele>332.0</ele><time>2026-04-18T16:31:04.001Z</time></trkpt><trkpt lat="45.102009341873725" lon="7.521976863511865"><ele>332.20000000000005</ele><time>2026-04-18T16:31:05.001Z</time></trkpt><trkpt lat="45.10213295067649" lon="7.52193009325098"><ele>332.4</ele><time>2026-04-18T16:31:06.001Z</time></trkpt><trkpt lat="45.10224303797213" lon="7.521884220111388"><ele>332.6</ele><time>2026-04-18T16:31:07.001Z</time></trkpt><trkpt lat="45.102343861331974" lon="7.521839493064377"><ele>332.79999999999995</ele><time>2026-04-18T16:31:08.001Z</time></trkpt><trkpt lat="45.10243831660496" lon="7.521795767174379"><ele>333.0</ele><time>2026-04-18T16:31:09.001Z</time></trkpt><trkpt lat="45.102528845257915" lon="7.521755440366196"><ele>333.0</ele><time>2026-04-18T16:31:10.001Z</time></trkpt><trkpt lat="45.10261121959724" lon="7.521719661473102"><ele>333.0</ele><time>2026-04-18T16:31:11.001Z</time></trkpt><trkpt lat="45.1026819897659" lon="7.52168927225174"><ele>333.0</ele><time>2026-04-18T16:31:12.001Z</time></trkpt><trkpt lat="45.102752907589945" lon="7.52166233261826"><ele>333.0</ele><time>2026-04-18T16:31:13.001Z</time></trkpt><trkpt lat="45.102870065387734" lon="7.52160447006414"><ele>333.0</ele><time>2026-04-18T16:31:15.001Z</time></trkpt><trkpt lat="45.10295232192656" lon="7.521577940777134"><ele>333.0</ele><time>2026-04-18T16:31:17.001Z</time></trkpt><trkpt lat="45.103038135052394" lon="7.521476442160287"><ele>333.0</ele><time>2026-04-18T16:32:05Z</time></trkpt><trkpt lat="45.10312112378294" lon="7.521435671868226"><ele>333.0</ele><time>2026-04-18T16:32:06Z</time></trkpt><trkpt lat="45.10320357219398" lon="7.521383464747131"><ele>333.0</ele><time>2026-04-18T16:32:07Z</time></trkpt><trkpt lat="45.10329632991841" lon="7.521319827715607"><ele>333.0</ele><time>2026-04-18T16:32:08Z</time></trkpt><trkpt lat="45.10340231625166" lon="7.521239193672089"><ele>333.0</ele><time>2026-04-18T16:32:09Z</time></trkpt><trkpt lat="45.10352511472039" lon="7.5211450127039665"><ele>333.6666666666667</ele><time>2026-04-18T16:32:10Z</time></trkpt><trkpt lat="45.10365668947084" lon="7.521045173724079"><ele>334.33333333333337</ele><time>2026-04-18T16:32:11Z</time></trkpt><trkpt lat="45.10380152964415" lon="7.520945648520852"><ele>335.0</ele><time>2026-04-18T16:32:12Z</time></trkpt><trkpt lat="45.10397280355217" lon="7.520845091768151"><ele>335.0</ele><time>2026-04-18T16:32:13Z</time></trkpt><trkpt lat="45.10415626573681" lon="7.520699798233785"><ele>335.0</ele><time>2026-04-18T16:32:14Z</time></trkpt><trkpt lat="45.10433983824579" lon="7.520525343383194"><ele>335.0</ele><time>2026-04-18T16:32:15Z</time></trkpt><trkpt lat="45.104524952978345" lon="7.5204091671600635"><ele>335.0</ele><time>2026-04-18T16:32:16Z</time></trkpt><trkpt lat="45.10471288945067" lon="7.520281240828959"><ele>335.0</ele><time>2026-04-18T16:32:17Z</time></trkpt><trkpt lat="45.1049059714908" lon="7.520161596606013"><ele>335.0</ele><time>2026-04-18T16:32:18Z</time></trkpt><trkpt lat="45.1050839597691" lon="7.520066154318235"><ele>334.6666666666667</ele><time>2026-04-18T16:32:19Z</time></trkpt><trkpt lat="45.10526294270197" lon="7.519975999288175"><ele>334.3333333333333</ele><time>2026-04-18T16:32:20Z</time></trkpt><trkpt lat="45.105415885169215" lon="7.519904188934883"><ele>334.0</ele><time>2026-04-18T16:32:21.001Z</time></trkpt><trkpt lat="45.10551840261285" lon="7.519855698206767"><ele>334.0</ele><time>2026-04-18T16:32:22.001Z</time></trkpt><trkpt lat="45.10562275559503" lon="7.5198063392913275"><ele>334.0</ele><time>2026-04-18T16:32:23.001Z</time></trkpt><trkpt lat="45.10574637030133" lon="7.519747869590053"><ele>334.0</ele><time>2026-04-18T16:32:24.001Z</time></trkpt><trkpt lat="45.10586792174358" lon="7.519689599075893"><ele>334.0</ele><time>2026-04-18T16:32:25.001Z</time></trkpt><trkpt lat="45.10596940654448" lon="7.519618235377366"><ele>334.2</ele><time>2026-04-18T16:32:26.001Z</time></trkpt><trkpt lat="45.10608835296177" lon="7.519589811148065"><ele>334.4</ele><time>2026-04-18T16:32:27.001Z</time></trkpt><trkpt lat="45.10618193067462" lon="7.519558053422285"><ele>334.6</ele><time>2026-04-18T16:32:28.001Z</time></trkpt><trkpt lat="45.1062666442496" lon="7.519529846241983"><ele>334.8</ele><time>2026-04-18T16:32:29.001Z</time></trkpt><trkpt lat="45.10635409463999" lon="7.519457250303412"><ele>335.0</ele><time>2026-04-18T16:32:49.001Z</time></trkpt><trkpt lat="45.10643586556913" lon="7.519419471956597"><ele>335.0</ele><time>2026-04-18T16:32:50.001Z</time></trkpt><trkpt lat="45.106536549892" lon="7.519367350093496"><ele>335.0</ele><time>2026-04-18T16:32:51.001Z</time></trkpt><trkpt lat="45.10666834454208" lon="7.519265042599344"><ele>335.0</ele><time>2026-04-18T16:32:52.001Z</time></trkpt><trkpt lat="45.10680417255627" lon="7.519120332394419"><ele>335.0</ele><time>2026-04-18T16:32:53.001Z</time></trkpt><trkpt lat="45.106906753238334" lon="7.518974228060398"><ele>335.2</ele><time>2026-04-18T16:32:54.001Z</time></trkpt><trkpt lat="45.106987138588096" lon="7.518857799137951"><ele>335.4</ele><time>2026-04-18T16:32:55.001Z</time></trkpt><trkpt lat="45.10705419512421" lon="7.518769954718043"><ele>335.6</ele><time>2026-04-18T16:32:56.001Z</time></trkpt><trkpt lat="45.107102291955336" lon="7.518691769342809"><ele>335.8</ele><time>2026-04-18T16:32:57.001Z</time></trkpt><trkpt lat="45.10716624839402" lon="7.5186124884552585"><ele>336.0</ele><time>2026-04-18T16:32:58.001Z</time></trkpt><trkpt lat="45.10722596849074" lon="7.518486294527809"><ele>336.0</ele><time>2026-04-18T16:32:59.001Z</time></trkpt><trkpt lat="45.10733902228817" lon="7.518360830629945"><ele>336.0</ele><time>2026-04-18T16:33:00.001Z</time></trkpt><trkpt lat="45.10746854661609" lon="7.518175410604258"><ele>336.0</ele><time>2026-04-18T16:33:01.001Z</time></trkpt><trkpt lat="45.10760425070067" lon="7.517983770369762"><ele>336.0</ele><time>2026-04-18T16:33:02.001Z</time></trkpt><trkpt lat="45.10774827730693" lon="7.517775946490447"><ele>336.0</ele><time>2026-04-18T16:33:03.001Z</time></trkpt><trkpt lat="45.107887823632645" lon="7.517568354907154"><ele>336.0</ele><time>2026-04-18T16:33:04.001Z</time></trkpt><trkpt lat="45.10801969395876" lon="7.5173766809800275"><ele>336.0</ele><time>2026-04-18T16:33:05.001Z</time></trkpt><trkpt lat="45.108152274514815" lon="7.517196924634784"><ele>336.0</ele><time>2026-04-18T16:33:06.001Z</time></trkpt><trkpt lat="45.108277563812365" lon="7.517028847743762"><ele>336.0</ele><time>2026-04-18T16:33:07.001Z</time></trkpt><trkpt lat="45.10839358007194" lon="7.5168627304006925"><ele>336.25</ele><time>2026-04-18T16:33:08.001Z</time></trkpt><trkpt lat="45.10851489771428" lon="7.516716611927122"><ele>336.5</ele><time>2026-04-18T16:33:09.001Z</time></trkpt><trkpt lat="45.108613121672455" lon="7.516570582951558"><ele>336.75</ele><time>2026-04-18T16:33:10.001Z</time></trkpt><trkpt lat="45.10870628100839" lon="7.51642779201049"><ele>337.0</ele><time>2026-04-18T16:33:11.001Z</time></trkpt><trkpt lat="45.10879716600477" lon="7.516289666087832"><ele>337.25</ele><time>2026-04-18T16:33:12.001Z</time></trkpt><trkpt lat="45.108893902321604" lon="7.51615291519125"><ele>337.5</ele><time>2026-04-18T16:33:13.001Z</time></trkpt><trkpt lat="45.10899923553377" lon="7.516018806666559"><ele>337.75</ele><time>2026-04-18T16:33:14.001Z</time></trkpt><trkpt lat="45.109100291153645" lon="7.51587017936388"><ele>338.0</ele><time>2026-04-18T16:33:15.001Z</time></trkpt><trkpt lat="45.10920349225989" lon="7.5157127865479865"><ele>338.33333333333337</ele><time>2026-04-18T16:33:16.001Z</time></trkpt><trkpt lat="45.10931924740999" lon="7.515549768810099"><ele>338.6666666666667</ele><time>2026-04-18T16:33:17.001Z</time></trkpt><trkpt lat="45.10944745993223" lon="7.515370518954101"><ele>339.0</ele><time>2026-04-18T16:33:18.001Z</time></trkpt><trkpt lat="45.109579302453795" lon="7.515185506870853"><ele>339.3333333333333</ele><time>2026-04-18T16:33:19.001Z</time></trkpt><trkpt lat="45.109715844801414" lon="7.5149879965433435"><ele>339.66666666666663</ele><time>2026-04-18T16:33:20.001Z</time></trkpt><trkpt lat="45.109851185172715" lon="7.514785832440654"><ele>340.0</ele><time>2026-04-18T16:33:21.001Z</time></trkpt><trkpt lat="45.10998403108903" lon="7.514589700978216"><ele>340.66666666666663</ele><time>2026-04-18T16:33:22.001Z</time></trkpt><trkpt lat="45.11010617555758" lon="7.514411292673918"><ele>341.3333333333333</ele><time>2026-04-18T16:33:23.001Z</time></trkpt><trkpt lat="45.110220628439606" lon="7.514246031120707"><ele>342.0</ele><time>2026-04-18T16:33:24.001Z</time></trkpt><trkpt lat="45.11032735488312" lon="7.514091806994873"><ele>342.0</ele><time>2026-04-18T16:33:25.001Z</time></trkpt><trkpt lat="45.11042411770475" lon="7.513950544410658"><ele>342.0</ele><time>2026-04-18T16:33:26.002Z</time></trkpt><trkpt lat="45.11052587230023" lon="7.513828782801442"><ele>342.0</ele><time>2026-04-18T16:33:27.002Z</time></trkpt><trkpt lat="45.11060645233434" lon="7.513715551589207"><ele>342.0</ele><time>2026-04-18T16:33:28.002Z</time></trkpt><trkpt lat="45.110683816557064" lon="7.513622812886127"><ele>342.40000000000003</ele><time>2026-04-18T16:33:29.002Z</time></trkpt><trkpt lat="45.11077070935227" lon="7.513560416378176"><ele>342.8</ele><time>2026-04-18T16:33:30.002Z</time></trkpt><trkpt lat="45.11087458565907" lon="7.513529048508731"><ele>343.2</ele><time>2026-04-18T16:33:31.002Z</time></trkpt><trkpt lat="45.11098408279318" lon="7.5135423546735405"><ele>343.6</ele><time>2026-04-18T16:33:32.002Z</time></trkpt><trkpt lat="45.11109859693318" lon="7.513594276036445"><ele>344.0</ele><time>2026-04-18T16:33:33.002Z</time></trkpt><trkpt lat="45.11120973306674" lon="7.513684781911291"><ele>344.0</ele><time>2026-04-18T16:33:34.002Z</time></trkpt><trkpt lat="45.11132520510779" lon="7.513806465161428"><ele>344.0</ele><time>2026-04-18T16:33:35.002Z</time></trkpt><trkpt lat="45.11145842441381" lon="7.513960116731832"><ele>344.0</ele><time>2026-04-18T16:33:36.002Z</time></trkpt><trkpt lat="45.11161549248076" lon="7.514134001338226"><ele>345.6666666666667</ele><time>2026-04-18T16:33:37.002Z</time></trkpt><trkpt lat="45.11177458711755" lon="7.514322623669431"><ele>347.3333333333333</ele><time>2026-04-18T16:33:38.002Z</time></trkpt><trkpt lat="45.111933882331805" lon="7.514483647221466"><ele>349.0</ele><time>2026-04-18T16:33:39.002Z</time></trkpt><trkpt lat="45.112081292519605" lon="7.51464231239875"><ele>349.3333333333333</ele><time>2026-04-18T16:33:40.002Z</time></trkpt><trkpt lat="45.11222156767736" lon="7.514790347997716"><ele>349.6666666666667</ele><time>2026-04-18T16:33:41.002Z</time></trkpt><trkpt lat="45.1123514298646" lon="7.514930675026349"><ele>350.0</ele><time>2026-04-18T16:33:42.002Z</time></trkpt><trkpt lat="45.1124709033189" lon="7.51506297375431"><ele>350.0</ele><time>2026-04-18T16:33:43Z</time></trkpt><trkpt lat="45.112588870365094" lon="7.515191800245609"><ele>350.0</ele><time>2026-04-18T16:33:44Z</time></trkpt><trkpt lat="45.11270042034985" lon="7.51531602240368"><ele>350.0</ele><time>2026-04-18T16:33:45Z</time></trkpt><trkpt lat="45.11281042379312" lon="7.515432872518651"><ele>350.0</ele><time>2026-04-18T16:33:46Z</time></trkpt><trkpt lat="45.11291534577496" lon="7.515539981172336"><ele>349.75</ele><time>2026-04-18T16:33:47Z</time></trkpt><trkpt lat="45.113015150132185" lon="7.515644321125524"><ele>349.5</ele><time>2026-04-18T16:33:48Z</time></trkpt><trkpt lat="45.11310721647215" lon="7.515737573086886"><ele>349.25</ele><time>2026-04-18T16:33:49Z</time></trkpt><trkpt lat="45.11323138435439" lon="7.515857225805192"><ele>349.0</ele><time>2026-04-18T16:33:50Z</time></trkpt><trkpt lat="45.1133807096674" lon="7.516008302213498"><ele>349.0</ele><time>2026-04-18T16:33:51Z</time></trkpt><trkpt lat="45.11352344625752" lon="7.51617030869206"><ele>349.0</ele><time>2026-04-18T16:33:52Z</time></trkpt><trkpt lat="45.1136490821872" lon="7.516314144556616"><ele>349.0</ele><time>2026-04-18T16:33:53Z</time></trkpt><trkpt lat="45.11377378109441" lon="7.51641633468181"><ele>349.0</ele><time>2026-04-18T16:33:54Z</time></trkpt><trkpt lat="45.11391461654514" lon="7.516477942655669"><ele>349.0</ele><time>2026-04-18T16:33:55Z</time></trkpt><trkpt lat="45.114063750382215" lon="7.516507136385378"><ele>349.0</ele><time>2026-04-18T16:33:56Z</time></trkpt><trkpt lat="45.114219361036014" lon="7.5165009369281615"><ele>350.3333333333333</ele><time>2026-04-18T16:33:57Z</time></trkpt><trkpt lat="45.11437440033125" lon="7.516459925848321"><ele>351.6666666666667</ele><time>2026-04-18T16:33:58Z</time></trkpt><trkpt lat="45.11452303955241" lon="7.516375385097472"><ele>353.0</ele><time>2026-04-18T16:33:59Z</time></trkpt><trkpt lat="45.114663245532235" lon="7.516253983074484"><ele>352.33333333333337</ele><time>2026-04-18T16:34:00Z</time></trkpt><trkpt lat="45.11479349551021" lon="7.51609162931794"><ele>351.6666666666667</ele><time>2026-04-18T16:34:01Z</time></trkpt><trkpt lat="45.11491090895436" lon="7.5158931852830255"><ele>351.0</ele><time>2026-04-18T16:34:02Z</time></trkpt><trkpt lat="45.115027735418614" lon="7.515656264306144"><ele>352.0</ele><time>2026-04-18T16:34:03Z</time></trkpt><trkpt lat="45.11514509438396" lon="7.515369988438949"><ele>353.0</ele><time>2026-04-18T16:34:04Z</time></trkpt><trkpt lat="45.11525766000876" lon="7.5150935863784465"><ele>353.0</ele><time>2026-04-18T16:34:05Z</time></trkpt><trkpt lat="45.11536094000837" lon="7.514854926424401"><ele>353.0</ele><time>2026-04-18T16:34:06Z</time></trkpt><trkpt lat="45.1154498354791" lon="7.5146521471183485"><ele>353.0</ele><time>2026-04-18T16:34:07Z</time></trkpt><trkpt lat="45.11552750676587" lon="7.514479217198144"><ele>352.79999999999995</ele><time>2026-04-18T16:34:08Z</time></trkpt><trkpt lat="45.11559534412619" lon="7.514343040564544"><ele>352.6</ele><time>2026-04-18T16:34:09Z</time></trkpt><trkpt lat="45.115654777068144" lon="7.514238119193054"><ele>352.4</ele><time>2026-04-18T16:34:10Z</time></trkpt><trkpt lat="45.11570327545496" lon="7.514174492683825"><ele>352.20000000000005</ele><time>2026-04-18T16:34:11Z</time></trkpt><trkpt lat="45.115785000207254" lon="7.514108727942468"><ele>352.0</ele><time>2026-04-18T16:34:13Z</time></trkpt><trkpt lat="45.11591662859695" lon="7.514068621732451"><ele>350.8</ele><time>2026-04-18T16:34:15Z</time></trkpt><trkpt lat="45.116004989573355" lon="7.514038510756825"><ele>349.6</ele><time>2026-04-18T16:34:16Z</time></trkpt><trkpt lat="45.11609308913466" lon="7.513965170440241"><ele>348.40000000000003</ele><time>2026-04-18T16:34:17Z</time></trkpt><trkpt lat="45.11616199321083" lon="7.513844472545298"><ele>347.20000000000005</ele><time>2026-04-18T16:34:18Z</time></trkpt><trkpt lat="45.1161983941795" lon="7.513691228311362"><ele>346.0</ele><time>2026-04-18T16:34:19.001Z</time></trkpt><trkpt lat="45.11619386941703" lon="7.5135349512540275"><ele>346.4</ele><time>2026-04-18T16:34:20.001Z</time></trkpt><trkpt lat="45.11615417328502" lon="7.5133838144678835"><ele>346.8</ele><time>2026-04-18T16:34:21.001Z</time></trkpt><trkpt lat="45.11609992674543" lon="7.513243043626227"><ele>347.2</ele><time>2026-04-18T16:34:22.001Z</time></trkpt><trkpt lat="45.116078951328035" lon="7.513095706222766"><ele>347.59999999999997</ele><time>2026-04-18T16:34:23.001Z</time></trkpt><trkpt lat="45.116101799117935" lon="7.512948820581692"><ele>348.0</ele><time>2026-04-18T16:34:24.001Z</time></trkpt><trkpt lat="45.116175862744406" lon="7.512834662394054"><ele>348.0</ele><time>2026-04-18T16:34:25.001Z</time></trkpt><trkpt lat="45.11625515022522" lon="7.512716990117601"><ele>348.0</ele><time>2026-04-18T16:34:26.001Z</time></trkpt><trkpt lat="45.11638498727938" lon="7.51267093683647"><ele>348.0</ele><time>2026-04-18T16:34:27.001Z</time></trkpt><trkpt lat="45.11651064260389" lon="7.512555163883244"><ele>348.0</ele><time>2026-04-18T16:34:28.001Z</time></trkpt><trkpt lat="45.116663254206024" lon="7.5124560517355"><ele>348.0</ele><time>2026-04-18T16:34:29.001Z</time></trkpt><trkpt lat="45.11681763945405" lon="7.512323937045449"><ele>348.0</ele><time>2026-04-18T16:34:30.001Z</time></trkpt><trkpt lat="45.116964486216155" lon="7.5121708258369875"><ele>348.0</ele><time>2026-04-18T16:34:31.001Z</time></trkpt><trkpt lat="45.117098420640666" lon="7.511980957617343"><ele>348.3333333333333</ele><time>2026-04-18T16:34:32.001Z</time></trkpt><trkpt lat="45.11721785618951" lon="7.511767657688368"><ele>348.66666666666663</ele><time>2026-04-18T16:34:33.001Z</time></trkpt><trkpt lat="45.1173222409838" lon="7.5115279850113374"><ele>349.0</ele><time>2026-04-18T16:34:34.001Z</time></trkpt><trkpt lat="45.11740349563021" lon="7.511271088046303"><ele>349.0</ele><time>2026-04-18T16:34:35.001Z</time></trkpt><trkpt lat="45.11745936350435" lon="7.511008177651864"><ele>349.0</ele><time>2026-04-18T16:34:36.001Z</time></trkpt><trkpt lat="45.117495965002824" lon="7.510728098082499"><ele>349.0</ele><time>2026-04-18T16:34:37.001Z</time></trkpt><trkpt lat="45.11751444766711" lon="7.5104383257806635"><ele>349.0</ele><time>2026-04-18T16:34:38.001Z</time></trkpt><trkpt lat="45.11754863115703" lon="7.5101552523620825"><ele>349.0</ele><time>2026-04-18T16:34:39.001Z</time></trkpt><trkpt lat="45.11757406383509" lon="7.509880672547393"><ele>349.0</ele><time>2026-04-18T16:34:40.001Z</time></trkpt><trkpt lat="45.11759801156668" lon="7.5096228935319"><ele>350.0</ele><time>2026-04-18T16:34:41.001Z</time></trkpt><trkpt lat="45.11760453534162" lon="7.509390383301413"><ele>351.0</ele><time>2026-04-18T16:34:42.001Z</time></trkpt><trkpt lat="45.117648171874556" lon="7.509188833449906"><ele>352.0</ele><time>2026-04-18T16:34:43.001Z</time></trkpt><trkpt lat="45.11766631507648" lon="7.508986752429917"><ele>352.0</ele><time>2026-04-18T16:34:44.001Z</time></trkpt><trkpt lat="45.117703440290626" lon="7.508801573317462"><ele>352.0</ele><time>2026-04-18T16:34:45.001Z</time></trkpt><trkpt lat="45.117745741769205" lon="7.508626689039181"><ele>352.0</ele><time>2026-04-18T16:34:46.001Z</time></trkpt><trkpt lat="45.117799169320904" lon="7.5084696806479725"><ele>352.0</ele><time>2026-04-18T16:34:47.001Z</time></trkpt><trkpt lat="45.11784908791991" lon="7.508306151637181"><ele>353.75</ele><time>2026-04-18T16:34:48.001Z</time></trkpt><trkpt lat="45.11789278503028" lon="7.508123009621409"><ele>355.5</ele><time>2026-04-18T16:34:49.001Z</time></trkpt><trkpt lat="45.11796448834634" lon="7.507953976472746"><ele>357.25</ele><time>2026-04-18T16:34:50.001Z</time></trkpt><trkpt lat="45.11803894941162" lon="7.507776958201834"><ele>359.0</ele><time>2026-04-18T16:34:51.001Z</time></trkpt><trkpt lat="45.11811777227136" lon="7.5075963160307095"><ele>360.0</ele><time>2026-04-18T16:34:52.001Z</time></trkpt><trkpt lat="45.11820311586346" lon="7.507415811083797"><ele>361.0</ele><time>2026-04-18T16:34:53.001Z</time></trkpt><trkpt lat="45.118300256528116" lon="7.507232293757859"><ele>362.0</ele><time>2026-04-18T16:34:54.001Z</time></trkpt><trkpt lat="45.11840360269935" lon="7.507050422350919"><ele>358.6666666666667</ele><time>2026-04-18T16:34:55.001Z</time></trkpt><trkpt lat="45.11850718442277" lon="7.506862955903596"><ele>355.3333333333333</ele><time>2026-04-18T16:34:56.001Z</time></trkpt><trkpt lat="45.11861146117879" lon="7.506676457028719"><ele>352.0</ele><time>2026-04-18T16:34:57.001Z</time></trkpt><trkpt lat="45.11871837507158" lon="7.506482209796967"><ele>352.0</ele><time>2026-04-18T16:34:58.001Z</time></trkpt><trkpt lat="45.1188303421393" lon="7.506271465618929"><ele>352.0</ele><time>2026-04-18T16:34:59.001Z</time></trkpt><trkpt lat="45.11894475982582" lon="7.5060506836797405"><ele>352.0</ele><time>2026-04-18T16:35:00.001Z</time></trkpt><trkpt lat="45.11907098864536" lon="7.505818644467728"><ele>351.0</ele><time>2026-04-18T16:35:01.001Z</time></trkpt><trkpt lat="45.119187513694854" lon="7.505593758662487"><ele>350.0</ele><time>2026-04-18T16:35:02.001Z</time></trkpt><trkpt lat="45.119310379850305" lon="7.505370085711549"><ele>349.0</ele><time>2026-04-18T16:35:03.001Z</time></trkpt><trkpt lat="45.11942518777662" lon="7.505155750148288"><ele>351.0</ele><time>2026-04-18T16:35:04.001Z</time></trkpt><trkpt lat="45.1195370977716" lon="7.504944060727171"><ele>353.0</ele><time>2026-04-18T16:35:05.001Z</time></trkpt><trkpt lat="45.11964741289861" lon="7.504739877890038"><ele>355.0</ele><time>2026-04-18T16:35:06.001Z</time></trkpt><trkpt lat="45.11975405370225" lon="7.504537260813224"><ele>355.0</ele><time>2026-04-18T16:35:07.001Z</time></trkpt><trkpt lat="45.11986498279832" lon="7.504325728357025"><ele>355.0</ele><time>2026-04-18T16:35:08.001Z</time></trkpt><trkpt lat="45.11997221251963" lon="7.504111005932716"><ele>355.0</ele><time>2026-04-18T16:35:09.001Z</time></trkpt><trkpt lat="45.120074178924746" lon="7.503900208269023"><ele>356.0</ele><time>2026-04-18T16:35:10.001Z</time></trkpt><trkpt lat="45.1201750869789" lon="7.5036846321324475"><ele>357.0</ele><time>2026-04-18T16:35:11.001Z</time></trkpt><trkpt lat="45.120273608493136" lon="7.503454370150216"><ele>358.0</ele><time>2026-04-18T16:35:12.001Z</time></trkpt><trkpt lat="45.120369672281925" lon="7.503213786165397"><ele>358.0</ele><time>2026-04-18T16:35:13.001Z</time></trkpt><trkpt lat="45.1204682482197" lon="7.502965489683831"><ele>358.0</ele><time>2026-04-18T16:35:14.001Z</time></trkpt><trkpt lat="45.120568578591865" lon="7.502713737363582"><ele>358.0</ele><time>2026-04-18T16:35:15.001Z</time></trkpt><trkpt lat="45.12067065820416" lon="7.502462871145039"><ele>358.0</ele><time>2026-04-18T16:35:16.001Z</time></trkpt><trkpt lat="45.120770092249714" lon="7.502209244801887"><ele>358.0</ele><time>2026-04-18T16:35:17.001Z</time></trkpt><trkpt lat="45.12086664737591" lon="7.5019568795612255"><ele>358.0</ele><time>2026-04-18T16:35:18.001Z</time></trkpt><trkpt lat="45.120960005125355" lon="7.501704839797415"><ele>358.0</ele><time>2026-04-18T16:35:19.001Z</time></trkpt><trkpt lat="45.121056744131465" lon="7.5014345556032875"><ele>358.0</ele><time>2026-04-18T16:35:20.001Z</time></trkpt><trkpt lat="45.12118526307888" lon="7.501145377204984"><ele>358.5</ele><time>2026-04-18T16:35:21.001Z</time></trkpt><trkpt lat="45.12128837683234" lon="7.5008258015117635"><ele>359.0</ele><time>2026-04-18T16:35:22.001Z</time></trkpt><trkpt lat="45.12140073157725" lon="7.500549800615104"><ele>359.33333333333337</ele><time>2026-04-18T16:35:23.001Z</time></trkpt><trkpt lat="45.12150661175423" lon="7.500290168168251"><ele>359.6666666666667</ele><time>2026-04-18T16:35:24.001Z</time></trkpt><trkpt lat="45.12161151190422" lon="7.500019874271891"><ele>360.0</ele><time>2026-04-18T16:35:25.001Z</time></trkpt><trkpt lat="45.12171481421169" lon="7.499751822075436"><ele>359.3333333333333</ele><time>2026-04-18T16:35:26.001Z</time></trkpt><trkpt lat="45.121810265281646" lon="7.4995049543015915"><ele>358.66666666666663</ele><time>2026-04-18T16:35:27.001Z</time></trkpt><trkpt lat="45.12190185226667" lon="7.499265206151238"><ele>358.0</ele><time>2026-04-18T16:35:28.001Z</time></trkpt><trkpt lat="45.12199334573151" lon="7.499032047465163"><ele>358.0</ele><time>2026-04-18T16:35:29.001Z</time></trkpt><trkpt lat="45.12208547314842" lon="7.498797696048745"><ele>358.0</ele><time>2026-04-18T16:35:30.001Z</time></trkpt><trkpt lat="45.1221790419819" lon="7.498562055067685"><ele>358.0</ele><time>2026-04-18T16:35:31.001Z</time></trkpt><trkpt lat="45.12226850469498" lon="7.498333584422354"><ele>358.0</ele><time>2026-04-18T16:35:32.002Z</time></trkpt><trkpt lat="45.12236372349289" lon="7.4981131791929805"><ele>358.0</ele><time>2026-04-18T16:35:33.002Z</time></trkpt><trkpt lat="45.12247116815874" lon="7.4979033580991015"><ele>358.0</ele><time>2026-04-18T16:35:34.002Z</time></trkpt><trkpt lat="45.12258364195546" lon="7.497705064508819"><ele>358.0</ele><time>2026-04-18T16:35:35.002Z</time></trkpt><trkpt lat="45.122708840634175" lon="7.497521177959582"><ele>358.0</ele><time>2026-04-18T16:35:36.002Z</time></trkpt><trkpt lat="45.1228427028241" lon="7.497343037612361"><ele>358.0</ele><time>2026-04-18T16:35:37.002Z</time></trkpt><trkpt lat="45.12297812115585" lon="7.497168872603131"><ele>358.0</ele><time>2026-04-18T16:35:38.002Z</time></trkpt><trkpt lat="45.12312884288409" lon="7.497001282356385"><ele>358.0</ele><time>2026-04-18T16:35:39.002Z</time></trkpt><trkpt lat="45.12329737936994" lon="7.496850597036592"><ele>358.0</ele><time>2026-04-18T16:35:40.002Z</time></trkpt><trkpt lat="45.1234704722853" lon="7.496706017768302"><ele>357.66666666666663</ele><time>2026-04-18T16:35:41.002Z</time></trkpt><trkpt lat="45.12365223018879" lon="7.496568809062708"><ele>357.3333333333333</ele><time>2026-04-18T16:35:42.002Z</time></trkpt><trkpt lat="45.123825080940136" lon="7.496437786460326"><ele>357.0</ele><time>2026-04-18T16:35:43.002Z</time></trkpt><trkpt lat="45.12399890620493" lon="7.49630772598305"><ele>357.3333333333333</ele><time>2026-04-18T16:35:44.002Z</time></trkpt><trkpt lat="45.124169352931965" lon="7.496180575170772"><ele>357.66666666666663</ele><time>2026-04-18T16:35:45.002Z</time></trkpt><trkpt lat="45.124331206821815" lon="7.496058163125564"><ele>358.0</ele><time>2026-04-18T16:35:46.002Z</time></trkpt><trkpt lat="45.12448931296902" lon="7.495937746725435"><ele>358.0</ele><time>2026-04-18T16:35:47.002Z</time></trkpt><trkpt lat="45.12463708344055" lon="7.495823662291774"><ele>358.0</ele><time>2026-04-18T16:35:48.002Z</time></trkpt><trkpt lat="45.12478334624258" lon="7.495708792119556"><ele>358.0</ele><time>2026-04-18T16:35:49Z</time></trkpt><trkpt lat="45.12493434871473" lon="7.495584904480725"><ele>358.0</ele><time>2026-04-18T16:35:50Z</time></trkpt><trkpt lat="45.125092787083034" lon="7.495457666995595"><ele>358.0</ele><time>2026-04-18T16:35:51Z</time></trkpt><trkpt lat="45.125265534458" lon="7.495349162234381"><ele>358.0</ele><time>2026-04-18T16:35:52Z</time></trkpt><trkpt lat="45.125437924881005" lon="7.495216078870882"><ele>358.3333333333333</ele><time>2026-04-18T16:35:53Z</time></trkpt><trkpt lat="45.1256111665653" lon="7.495082820521501"><ele>358.6666666666667</ele><time>2026-04-18T16:35:54Z</time></trkpt><trkpt lat="45.12577210715005" lon="7.4949343165881395"><ele>359.0</ele><time>2026-04-18T16:35:55Z</time></trkpt><trkpt lat="45.12593552562895" lon="7.494813774001901"><ele>359.0</ele><time>2026-04-18T16:35:56Z</time></trkpt><trkpt lat="45.12609171594437" lon="7.494700492666565"><ele>359.0</ele><time>2026-04-18T16:35:57Z</time></trkpt><trkpt lat="45.12623988110083" lon="7.49458696183547"><ele>359.0</ele><time>2026-04-18T16:35:58Z</time></trkpt><trkpt lat="45.12637916164159" lon="7.494479122581844"><ele>359.25</ele><time>2026-04-18T16:35:59Z</time></trkpt><trkpt lat="45.126507182713986" lon="7.494379732966363"><ele>359.5</ele><time>2026-04-18T16:36:00Z</time></trkpt><trkpt lat="45.12662762926891" lon="7.494288722112468"><ele>359.75</ele><time>2026-04-18T16:36:01Z</time></trkpt><trkpt lat="45.12674258423371" lon="7.49420482246701"><ele>360.0</ele><time>2026-04-18T16:36:02Z</time></trkpt><trkpt lat="45.126849613328446" lon="7.4941229370195535"><ele>360.0</ele><time>2026-04-18T16:36:03Z</time></trkpt><trkpt lat="45.126951901832804" lon="7.4940452605053895"><ele>360.0</ele><time>2026-04-18T16:36:04Z</time></trkpt><trkpt lat="45.12704892488138" lon="7.493974187630671"><ele>360.0</ele><time>2026-04-18T16:36:05Z</time></trkpt><trkpt lat="45.12714471646442" lon="7.493905862669801"><ele>360.0</ele><time>2026-04-18T16:36:06Z</time></trkpt><trkpt lat="45.12724423026651" lon="7.493831975841025"><ele>360.0</ele><time>2026-04-18T16:36:07Z</time></trkpt><trkpt lat="45.12734458508068" lon="7.493759066677341"><ele>360.2</ele><time>2026-04-18T16:36:08Z</time></trkpt><trkpt lat="45.12744355666444" lon="7.493692932035336"><ele>360.4</ele><time>2026-04-18T16:36:09Z</time></trkpt><trkpt lat="45.127537588278656" lon="7.493648820213845"><ele>360.6</ele><time>2026-04-18T16:36:10Z</time></trkpt><trkpt lat="45.12763044933645" lon="7.493638784221923"><ele>360.8</ele><time>2026-04-18T16:36:11Z</time></trkpt><trkpt lat="45.12772354032437" lon="7.493654958702153"><ele>361.0</ele><time>2026-04-18T16:36:12Z</time></trkpt><trkpt lat="45.127818444593835" lon="7.493662168664341"><ele>361.0</ele><time>2026-04-18T16:36:13Z</time></trkpt><trkpt lat="45.12790806627535" lon="7.493623005532152"><ele>361.0</ele><time>2026-04-18T16:36:14Z</time></trkpt><trkpt lat="45.12797751716293" lon="7.493525264299109"><ele>361.0</ele><time>2026-04-18T16:36:15Z</time></trkpt><trkpt lat="45.12803287903967" lon="7.49338018845775"><ele>361.0</ele><time>2026-04-18T16:36:16Z</time></trkpt><trkpt lat="45.12810437538323" lon="7.493222285387156"><ele>361.0</ele><time>2026-04-18T16:36:17Z</time></trkpt><trkpt lat="45.128209899550725" lon="7.493079206662764"><ele>359.3333333333333</ele><time>2026-04-18T16:36:18Z</time></trkpt><trkpt lat="45.12837020176999" lon="7.493004007885544"><ele>357.6666666666667</ele><time>2026-04-18T16:36:19Z</time></trkpt><trkpt lat="45.12856060404897" lon="7.4928790579747195"><ele>356.0</ele><time>2026-04-18T16:36:20Z</time></trkpt><trkpt lat="45.12877559913069" lon="7.492739202638452"><ele>355.5</ele><time>2026-04-18T16:36:21Z</time></trkpt><trkpt lat="45.12902055137634" lon="7.492579617369628"><ele>355.0</ele><time>2026-04-18T16:36:22Z</time></trkpt><trkpt lat="45.1292908962696" lon="7.492403182615882"><ele>353.5</ele><time>2026-04-18T16:36:23Z</time></trkpt><trkpt lat="45.12954606695521" lon="7.492212807350973"><ele>352.0</ele><time>2026-04-18T16:36:24.001Z</time></trkpt><trkpt lat="45.129789851257726" lon="7.492072986160401"><ele>353.0</ele><time>2026-04-18T16:36:25.001Z</time></trkpt><trkpt lat="45.13001922665326" lon="7.49193069624949"><ele>354.0</ele><time>2026-04-18T16:36:26.001Z</time></trkpt><trkpt lat="45.130236251763286" lon="7.491787469645644"><ele>354.0</ele><time>2026-04-18T16:36:27.001Z</time></trkpt><trkpt lat="45.13045079070431" lon="7.491646368533403"><ele>354.0</ele><time>2026-04-18T16:36:28.001Z</time></trkpt><trkpt lat="45.130669047794534" lon="7.491514566483258"><ele>353.6666666666667</ele><time>2026-04-18T16:36:29.001Z</time></trkpt><trkpt lat="45.13084043511003" lon="7.491353932458166"><ele>353.33333333333337</ele><time>2026-04-18T16:36:30.001Z</time></trkpt><trkpt lat="45.131009725157796" lon="7.4911738180063585"><ele>353.0</ele><time>2026-04-18T16:36:31.001Z</time></trkpt><trkpt lat="45.131174658244994" lon="7.490970013679422"><ele>353.6666666666667</ele><time>2026-04-18T16:36:32.001Z</time></trkpt><trkpt lat="45.1313321594165" lon="7.490748803048492"><ele>354.3333333333333</ele><time>2026-04-18T16:36:33.001Z</time></trkpt><trkpt lat="45.13147990526928" lon="7.490510922688226"><ele>355.0</ele><time>2026-04-18T16:36:34.001Z</time></trkpt><trkpt lat="45.13161219052676" lon="7.490253591935608"><ele>353.0</ele><time>2026-04-18T16:36:35.001Z</time></trkpt><trkpt lat="45.13172984303265" lon="7.489976741613477"><ele>351.0</ele><time>2026-04-18T16:36:36.001Z</time></trkpt><trkpt lat="45.13183816106862" lon="7.489686977294489"><ele>352.5</ele><time>2026-04-18T16:36:37.001Z</time></trkpt><trkpt lat="45.131942595188946" lon="7.489398589410428"><ele>354.0</ele><time>2026-04-18T16:36:38.001Z</time></trkpt><trkpt lat="45.132048544318565" lon="7.489122178977926"><ele>354.0</ele><time>2026-04-18T16:36:39.001Z</time></trkpt><trkpt lat="45.132152478415904" lon="7.488851062492076"><ele>354.0</ele><time>2026-04-18T16:36:40.001Z</time></trkpt><trkpt lat="45.13225816629767" lon="7.488582365855865"><ele>354.0</ele><time>2026-04-18T16:36:41.001Z</time></trkpt><trkpt lat="45.13235814096462" lon="7.488314766461109"><ele>354.0</ele><time>2026-04-18T16:36:42.001Z</time></trkpt><trkpt lat="45.132459132315894" lon="7.488057022975991"><ele>354.0</ele><time>2026-04-18T16:36:43.001Z</time></trkpt><trkpt lat="45.13255896137636" lon="7.487800296738177"><ele>354.0</ele><time>2026-04-18T16:36:44.001Z</time></trkpt><trkpt lat="45.132663615941254" lon="7.487534642534308"><ele>354.6666666666667</ele><time>2026-04-18T16:36:45.001Z</time></trkpt><trkpt lat="45.13276805088335" lon="7.48726238341599"><ele>355.33333333333337</ele><time>2026-04-18T16:36:46.001Z</time></trkpt><trkpt lat="45.13286669344745" lon="7.487006805738147"><ele>356.0</ele><time>2026-04-18T16:36:47.001Z</time></trkpt><trkpt lat="45.13296781959676" lon="7.486769251745409"><ele>356.0</ele><time>2026-04-18T16:36:48.001Z</time></trkpt><trkpt lat="45.13307255930413" lon="7.486535113645102"><ele>356.0</ele><time>2026-04-18T16:36:49.001Z</time></trkpt><trkpt lat="45.13318213048083" lon="7.4863202157187505"><ele>356.0</ele><time>2026-04-18T16:36:50.001Z</time></trkpt><trkpt lat="45.133295197937244" lon="7.486126568237336"><ele>355.5</ele><time>2026-04-18T16:36:51.001Z</time></trkpt><trkpt lat="45.13340274505847" lon="7.485951045653159"><ele>355.0</ele><time>2026-04-18T16:36:52.001Z</time></trkpt><trkpt lat="45.13350019478445" lon="7.485789106772044"><ele>354.5</ele><time>2026-04-18T16:36:53.001Z</time></trkpt><trkpt lat="45.13359486664934" lon="7.4856593766237856"><ele>354.0</ele><time>2026-04-18T16:36:54.001Z</time></trkpt><trkpt lat="45.13370079283828" lon="7.485564238774299"><ele>354.0</ele><time>2026-04-18T16:36:55.001Z</time></trkpt><trkpt lat="45.13384174901184" lon="7.485507931177144"><ele>354.0</ele><time>2026-04-18T16:36:56.001Z</time></trkpt><trkpt lat="45.13397263661464" lon="7.485386874542118"><ele>354.0</ele><time>2026-04-18T16:36:57.001Z</time></trkpt><trkpt lat="45.13412600575394" lon="7.485305081758824"><ele>355.3333333333333</ele><time>2026-04-18T16:36:58.001Z</time></trkpt><trkpt lat="45.13427150214889" lon="7.48522081757937"><ele>356.66666666666663</ele><time>2026-04-18T16:36:59.001Z</time></trkpt><trkpt lat="45.13445713446" lon="7.485252566363652"><ele>358.0</ele><time>2026-04-18T16:37:00.001Z</time></trkpt><trkpt lat="45.134640154534274" lon="7.485265203359752"><ele>358.0</ele><time>2026-04-18T16:37:01.001Z</time></trkpt><trkpt lat="45.134831466013196" lon="7.485297697935969"><ele>358.0</ele><time>2026-04-18T16:37:02.001Z</time></trkpt><trkpt lat="45.135047936726885" lon="7.485355949890953"><ele>358.0</ele><time>2026-04-18T16:37:03.001Z</time></trkpt><trkpt lat="45.13529567539478" lon="7.485422732178379"><ele>357.5</ele><time>2026-04-18T16:37:04.001Z</time></trkpt><trkpt lat="45.1355665877612" lon="7.485496922594771"><ele>357.0</ele><time>2026-04-18T16:37:05.001Z</time></trkpt><trkpt lat="45.13585065495361" lon="7.4855752058622445"><ele>358.0</ele><time>2026-04-18T16:37:06.001Z</time></trkpt><trkpt lat="45.136142858247645" lon="7.485644664934537"><ele>359.0</ele><time>2026-04-18T16:37:07.001Z</time></trkpt><trkpt lat="45.136417097836684" lon="7.485716280849531"><ele>358.5</ele><time>2026-04-18T16:37:08.001Z</time></trkpt><trkpt lat="45.136674203294376" lon="7.485783059823446"><ele>358.0</ele><time>2026-04-18T16:37:09.001Z</time></trkpt><trkpt lat="45.136922725404595" lon="7.485843969967823"><ele>358.0</ele><time>2026-04-18T16:37:10.001Z</time></trkpt><trkpt lat="45.13717026840523" lon="7.485901629451983"><ele>358.0</ele><time>2026-04-18T16:37:11.001Z</time></trkpt><trkpt lat="45.13740938736907" lon="7.485963734107106"><ele>357.0</ele><time>2026-04-18T16:37:12.001Z</time></trkpt><trkpt lat="45.13764511038163" lon="7.486028169550431"><ele>356.0</ele><time>2026-04-18T16:37:13.001Z</time></trkpt><trkpt lat="45.137869395892665" lon="7.486086667702808"><ele>356.0</ele><time>2026-04-18T16:37:14.001Z</time></trkpt><trkpt lat="45.13809421744903" lon="7.486140265187316"><ele>356.0</ele><time>2026-04-18T16:37:15.001Z</time></trkpt><trkpt lat="45.13830350699192" lon="7.486201911953512"><ele>356.0</ele><time>2026-04-18T16:37:16.001Z</time></trkpt><trkpt lat="45.13851630943182" lon="7.48626653168322"><ele>356.0</ele><time>2026-04-18T16:37:17.001Z</time></trkpt><trkpt lat="45.138710444950846" lon="7.4863570488797455"><ele>356.0</ele><time>2026-04-18T16:37:18.001Z</time></trkpt><trkpt lat="45.13889197049241" lon="7.486451441240022"><ele>356.0</ele><time>2026-04-18T16:37:19.001Z</time></trkpt><trkpt lat="45.1390572831419" lon="7.486548523164236"><ele>356.5</ele><time>2026-04-18T16:37:20.001Z</time></trkpt><trkpt lat="45.13919874743361" lon="7.486636062914589"><ele>357.0</ele><time>2026-04-18T16:37:21.001Z</time></trkpt><trkpt lat="45.139315448908135" lon="7.486702597795195"><ele>357.5</ele><time>2026-04-18T16:37:22.001Z</time></trkpt><trkpt lat="45.13941490454259" lon="7.486749532133523"><ele>358.0</ele><time>2026-04-18T16:37:23.001Z</time></trkpt><trkpt lat="45.1394993916789" lon="7.486792974499266"><ele>358.0</ele><time>2026-04-18T16:37:24.001Z</time></trkpt><trkpt lat="45.13956920355262" lon="7.486881296416609"><ele>358.0</ele><time>2026-04-18T16:37:25.001Z</time></trkpt><trkpt lat="45.139635695952606" lon="7.486992287658433"><ele>358.0</ele><time>2026-04-18T16:37:26.001Z</time></trkpt><trkpt lat="45.139722789133536" lon="7.487071288386478"><ele>358.0</ele><time>2026-04-18T16:37:27.001Z</time></trkpt><trkpt lat="45.13983003590576" lon="7.487111019365459"><ele>358.0</ele><time>2026-04-18T16:37:28.001Z</time></trkpt><trkpt lat="45.13994003352609" lon="7.487163408516975"><ele>357.75</ele><time>2026-04-18T16:37:29.001Z</time></trkpt><trkpt lat="45.1400470496918" lon="7.487273163157776"><ele>357.5</ele><time>2026-04-18T16:37:30.001Z</time></trkpt><trkpt lat="45.14015670055502" lon="7.4874079908684195"><ele>357.25</ele><time>2026-04-18T16:37:31.001Z</time></trkpt><trkpt lat="45.14028359958019" lon="7.487542603600455"><ele>357.0</ele><time>2026-04-18T16:37:32.001Z</time></trkpt><trkpt lat="45.14042503242922" lon="7.487658143772562"><ele>357.0</ele><time>2026-04-18T16:37:33.001Z</time></trkpt><trkpt lat="45.14056039814796" lon="7.487760691512932"><ele>357.0</ele><time>2026-04-18T16:37:34.001Z</time></trkpt><trkpt lat="45.14068428445306" lon="7.4878592260541454"><ele>357.0</ele><time>2026-04-18T16:37:35.001Z</time></trkpt><trkpt lat="45.14079044685823" lon="7.4879460070952035"><ele>357.0</ele><time>2026-04-18T16:37:36.001Z</time></trkpt><trkpt lat="45.14088384562652" lon="7.488023633401122"><ele>356.8</ele><time>2026-04-18T16:37:37.001Z</time></trkpt><trkpt lat="45.14095467221915" lon="7.488108818919136"><ele>356.6</ele><time>2026-04-18T16:37:38.001Z</time></trkpt><trkpt lat="45.14100529716321" lon="7.488223395663058"><ele>356.40000000000003</ele><time>2026-04-18T16:37:39.001Z</time></trkpt><trkpt lat="45.14108070343071" lon="7.488284460674844"><ele>356.20000000000005</ele><time>2026-04-18T16:37:40.001Z</time></trkpt><trkpt lat="45.14115715676499" lon="7.488321199671962"><ele>356.0</ele><time>2026-04-18T16:37:41.001Z</time></trkpt><trkpt lat="45.141249454772414" lon="7.488345895972328"><ele>356.0</ele><time>2026-04-18T16:37:42.002Z</time></trkpt><trkpt lat="45.14136111652271" lon="7.488404745382286"><ele>356.0</ele><time>2026-04-18T16:37:43.002Z</time></trkpt><trkpt lat="45.14148361320351" lon="7.488505833435798"><ele>356.0</ele><time>2026-04-18T16:37:44.002Z</time></trkpt><trkpt lat="45.1416137041854" lon="7.4886138911543245"><ele>356.0</ele><time>2026-04-18T16:37:45.002Z</time></trkpt><trkpt lat="45.14174700066107" lon="7.488729849345716"><ele>355.33333333333337</ele><time>2026-04-18T16:37:46.002Z</time></trkpt><trkpt lat="45.14188781109862" lon="7.488858518899465"><ele>354.6666666666667</ele><time>2026-04-18T16:37:47.002Z</time></trkpt><trkpt lat="45.14203176649524" lon="7.48897595821243"><ele>354.0</ele><time>2026-04-18T16:37:48.002Z</time></trkpt><trkpt lat="45.14216450629905" lon="7.489110316251792"><ele>354.0</ele><time>2026-04-18T16:37:49.002Z</time></trkpt><trkpt lat="45.14228714087599" lon="7.489263680904637"><ele>354.0</ele><time>2026-04-18T16:37:50.002Z</time></trkpt><trkpt lat="45.14239850127418" lon="7.489436602462482"><ele>354.0</ele><time>2026-04-18T16:37:51.002Z</time></trkpt><trkpt lat="45.142505680487496" lon="7.489611088496396"><ele>353.6666666666667</ele><time>2026-04-18T16:37:52.002Z</time></trkpt><trkpt lat="45.142605081595256" lon="7.489784289932587"><ele>353.33333333333337</ele><time>2026-04-18T16:37:53.002Z</time></trkpt><trkpt lat="45.14270000301736" lon="7.489956966486429"><ele>353.0</ele><time>2026-04-18T16:37:54.002Z</time></trkpt><trkpt lat="45.142790759221846" lon="7.490119663574902"><ele>353.0</ele><time>2026-04-18T16:37:55.001Z</time></trkpt><trkpt lat="45.14287900051654" lon="7.490275234261694"><ele>353.0</ele><time>2026-04-18T16:37:56.001Z</time></trkpt><trkpt lat="45.14296171563432" lon="7.490417960496327"><ele>353.0</ele><time>2026-04-18T16:37:57.001Z</time></trkpt><trkpt lat="45.143039473219346" lon="7.4905592769150235"><ele>353.0</ele><time>2026-04-18T16:37:58.001Z</time></trkpt><trkpt lat="45.1431123648088" lon="7.490693556224755"><ele>352.79999999999995</ele><time>2026-04-18T16:37:59.001Z</time></trkpt><trkpt lat="45.143184776100114" lon="7.49081561481661"><ele>352.6</ele><time>2026-04-18T16:38:00.001Z</time></trkpt><trkpt lat="45.143256623607925" lon="7.490923844228167"><ele>352.4</ele><time>2026-04-18T16:38:01.001Z</time></trkpt><trkpt lat="45.14332219125012" lon="7.491032830536343"><ele>352.20000000000005</ele><time>2026-04-18T16:38:02.001Z</time></trkpt><trkpt lat="45.14337631868301" lon="7.491149871550821"><ele>352.0</ele><time>2026-04-18T16:38:03.001Z</time></trkpt><trkpt lat="45.14342651219158" lon="7.491262971343318"><ele>351.75</ele><time>2026-04-18T16:38:04.001Z</time></trkpt><trkpt lat="45.143495475465635" lon="7.49133550309765"><ele>351.5</ele><time>2026-04-18T16:38:05.001Z</time></trkpt><trkpt lat="45.14359318308142" lon="7.491385256848822"><ele>351.25</ele><time>2026-04-18T16:38:06.001Z</time></trkpt><trkpt lat="45.143715223071176" lon="7.491454458709324"><ele>351.0</ele><time>2026-04-18T16:38:07.001Z</time></trkpt><trkpt lat="45.14385159198379" lon="7.491551856552916"><ele>351.0</ele><time>2026-04-18T16:38:08Z</time></trkpt><trkpt lat="45.14400165303424" lon="7.491640421471313"><ele>351.0</ele><time>2026-04-18T16:38:09Z</time></trkpt><trkpt lat="45.144167652005144" lon="7.491719308044016"><ele>351.0</ele><time>2026-04-18T16:38:10Z</time></trkpt><trkpt lat="45.14436754223247" lon="7.491800338606336"><ele>350.0</ele><time>2026-04-18T16:38:11Z</time></trkpt><trkpt lat="45.144596943359076" lon="7.491891669906718"><ele>349.0</ele><time>2026-04-18T16:38:12Z</time></trkpt><trkpt lat="45.144852324706676" lon="7.491985197005437"><ele>350.0</ele><time>2026-04-18T16:38:13Z</time></trkpt><trkpt lat="45.145113020790035" lon="7.4921182134101505"><ele>351.0</ele><time>2026-04-18T16:38:14Z</time></trkpt><trkpt lat="45.14538264697443" lon="7.492212661411853"><ele>351.0</ele><time>2026-04-18T16:38:15Z</time></trkpt><trkpt lat="45.145652081236456" lon="7.492317738776436"><ele>351.0</ele><time>2026-04-18T16:38:16Z</time></trkpt><trkpt lat="45.14591252514831" lon="7.492419011605956"><ele>351.0</ele><time>2026-04-18T16:38:17Z</time></trkpt><trkpt lat="45.146164013546404" lon="7.492515096886674"><ele>351.0</ele><time>2026-04-18T16:38:18Z</time></trkpt><trkpt lat="45.14641342902404" lon="7.492621221786628"><ele>352.5</ele><time>2026-04-18T16:38:19Z</time></trkpt><trkpt lat="45.14665386360684" lon="7.4927130317199"><ele>354.0</ele><time>2026-04-18T16:38:20Z</time></trkpt><trkpt lat="45.14689000143365" lon="7.492803805910112"><ele>354.0</ele><time>2026-04-18T16:38:21Z</time></trkpt><trkpt lat="45.147129992604604" lon="7.492892683742463"><ele>354.0</ele><time>2026-04-18T16:38:22Z</time></trkpt><trkpt lat="45.14736044939068" lon="7.49299419431351"><ele>352.5</ele><time>2026-04-18T16:38:23.001Z</time></trkpt><trkpt lat="45.147591552999906" lon="7.493081587887118"><ele>351.0</ele><time>2026-04-18T16:38:24.001Z</time></trkpt><trkpt lat="45.147822221668505" lon="7.493169749439771"><ele>351.0</ele><time>2026-04-18T16:38:25.001Z</time></trkpt><trkpt lat="45.148044264855194" lon="7.493257002605418"><ele>351.0</ele><time>2026-04-18T16:38:26.001Z</time></trkpt><trkpt lat="45.148262385444006" lon="7.493341870095617"><ele>350.6666666666667</ele><time>2026-04-18T16:38:27.001Z</time></trkpt><trkpt lat="45.14848079224912" lon="7.493426192884324"><ele>350.33333333333337</ele><time>2026-04-18T16:38:28.001Z</time></trkpt><trkpt lat="45.14869514200611" lon="7.493509467387044"><ele>350.0</ele><time>2026-04-18T16:38:29.001Z</time></trkpt><trkpt lat="45.14890840468299" lon="7.493586073631861"><ele>351.33333333333337</ele><time>2026-04-18T16:38:30.001Z</time></trkpt><trkpt lat="45.14911176509361" lon="7.49366807202782"><ele>352.6666666666667</ele><time>2026-04-18T16:38:31.001Z</time></trkpt><trkpt lat="45.14930605751966" lon="7.493751827414714"><ele>354.0</ele><time>2026-04-18T16:38:32.001Z</time></trkpt><trkpt lat="45.14949682759958" lon="7.49384386416613"><ele>354.0</ele><time>2026-04-18T16:38:33.001Z</time></trkpt><trkpt lat="45.14968667149443" lon="7.4939436657075635"><ele>354.0</ele><time>2026-04-18T16:38:34.001Z</time></trkpt><trkpt lat="45.149874676581184" lon="7.494048909637087"><ele>354.0</ele><time>2026-04-18T16:38:35.001Z</time></trkpt><trkpt lat="45.15006430054335" lon="7.494153477481509"><ele>355.0</ele><time>2026-04-18T16:38:36.001Z</time></trkpt><trkpt lat="45.15026058370186" lon="7.494260435094951"><ele>356.0</ele><time>2026-04-18T16:38:37.001Z</time></trkpt><trkpt lat="45.150457355257295" lon="7.494371499729147"><ele>357.0</ele><time>2026-04-18T16:38:38.001Z</time></trkpt><trkpt lat="45.15065303984266" lon="7.49448549157268"><ele>357.3333333333333</ele><time>2026-04-18T16:38:39.001Z</time></trkpt><trkpt lat="45.150848692724736" lon="7.494602202896241"><ele>357.66666666666663</ele><time>2026-04-18T16:38:40.001Z</time></trkpt><trkpt lat="45.151044708637954" lon="7.494714953271724"><ele>358.0</ele><time>2026-04-18T16:38:41.001Z</time></trkpt><trkpt lat="45.151238795916534" lon="7.494817940428286"><ele>358.0</ele><time>2026-04-18T16:38:42.001Z</time></trkpt><trkpt lat="45.151429022126685" lon="7.49491576275503"><ele>358.0</ele><time>2026-04-18T16:38:43.001Z</time></trkpt><trkpt lat="45.15161825395321" lon="7.495002809060654"><ele>358.0</ele><time>2026-04-18T16:38:44.001Z</time></trkpt><trkpt lat="45.15179759115211" lon="7.495073446989363"><ele>359.3333333333333</ele><time>2026-04-18T16:38:45.001Z</time></trkpt><trkpt lat="45.15196985808499" lon="7.495158319284646"><ele>360.6666666666667</ele><time>2026-04-18T16:38:46.001Z</time></trkpt><trkpt lat="45.152136358319446" lon="7.495237425807208"><ele>362.0</ele><time>2026-04-18T16:38:47.001Z</time></trkpt><trkpt lat="45.1522988372989" lon="7.495318532850876"><ele>362.33333333333337</ele><time>2026-04-18T16:38:48.001Z</time></trkpt><trkpt lat="45.152461941533" lon="7.495397690031866"><ele>362.6666666666667</ele><time>2026-04-18T16:38:49.001Z</time></trkpt><trkpt lat="45.15262937411551" lon="7.495479550108604"><ele>363.0</ele><time>2026-04-18T16:38:50.001Z</time></trkpt><trkpt lat="45.15279970168027" lon="7.495558022891323"><ele>362.6666666666667</ele><time>2026-04-18T16:38:51.001Z</time></trkpt><trkpt lat="45.15296134996981" lon="7.4956301082978065"><ele>362.33333333333337</ele><time>2026-04-18T16:38:52.001Z</time></trkpt><trkpt lat="45.1531103035998" lon="7.495695573676604"><ele>362.0</ele><time>2026-04-18T16:38:53.001Z</time></trkpt><trkpt lat="45.15324985178354" lon="7.495754479230993"><ele>362.0</ele><time>2026-04-18T16:38:54.001Z</time></trkpt><trkpt lat="45.15337462576642" lon="7.495813950668719"><ele>362.0</ele><time>2026-04-18T16:38:55.001Z</time></trkpt><trkpt lat="45.15349527346887" lon="7.495876388514152"><ele>362.0</ele><time>2026-04-18T16:38:56.001Z</time></trkpt><trkpt lat="45.15360992472825" lon="7.4959440541841955"><ele>362.0</ele><time>2026-04-18T16:38:57.001Z</time></trkpt><trkpt lat="45.15373581152818" lon="7.4960043079805"><ele>362.0</ele><time>2026-04-18T16:38:58.001Z</time></trkpt><trkpt lat="45.153860855667844" lon="7.49606619728757"><ele>362.0</ele><time>2026-04-18T16:38:59.001Z</time></trkpt><trkpt lat="45.15398939554683" lon="7.496131550735243"><ele>362.0</ele><time>2026-04-18T16:39:00.001Z</time></trkpt><trkpt lat="45.15412042146643" lon="7.49619663082653"><ele>362.0</ele><time>2026-04-18T16:39:01.001Z</time></trkpt><trkpt lat="45.15424738886214" lon="7.496255210550565"><ele>362.5</ele><time>2026-04-18T16:39:02.001Z</time></trkpt><trkpt lat="45.154375119032686" lon="7.496310031217698"><ele>363.0</ele><time>2026-04-18T16:39:03.001Z</time></trkpt><trkpt lat="45.15450652879499" lon="7.496366531583424"><ele>363.5</ele><time>2026-04-18T16:39:04.001Z</time></trkpt><trkpt lat="45.15463846184371" lon="7.4964250972236455"><ele>364.0</ele><time>2026-04-18T16:39:05.001Z</time></trkpt><trkpt lat="45.1547688343165" lon="7.496496761678694"><ele>364.25</ele><time>2026-04-18T16:39:06.001Z</time></trkpt><trkpt lat="45.15490010439418" lon="7.49656491789835"><ele>364.5</ele><time>2026-04-18T16:39:07.001Z</time></trkpt><trkpt lat="45.155030938349476" lon="7.496626263910441"><ele>364.75</ele><time>2026-04-18T16:39:08.001Z</time></trkpt><trkpt lat="45.15516411661409" lon="7.49668896972784"><ele>365.0</ele><time>2026-04-18T16:39:09.001Z</time></trkpt><trkpt lat="45.15529324892726" lon="7.496753530940569"><ele>365.0</ele><time>2026-04-18T16:39:10.001Z</time></trkpt><trkpt lat="45.1554172066511" lon="7.49681421618765"><ele>365.0</ele><time>2026-04-18T16:39:11.001Z</time></trkpt><trkpt lat="45.15554071617536" lon="7.496870731940068"><ele>365.0</ele><time>2026-04-18T16:39:12.001Z</time></trkpt><trkpt lat="45.155660650410425" lon="7.496920554171045"><ele>365.0</ele><time>2026-04-18T16:39:13.001Z</time></trkpt><trkpt lat="45.15578181141659" lon="7.496973822989386"><ele>365.25</ele><time>2026-04-18T16:39:14.001Z</time></trkpt><trkpt lat="45.15590158942383" lon="7.497026339423934"><ele>365.5</ele><time>2026-04-18T16:39:15.001Z</time></trkpt><trkpt lat="45.15601716046495" lon="7.497075954392073"><ele>365.75</ele><time>2026-04-18T16:39:16.001Z</time></trkpt><trkpt lat="45.15612703416237" lon="7.497130666273847"><ele>366.0</ele><time>2026-04-18T16:39:17.001Z</time></trkpt><trkpt lat="45.15623407341135" lon="7.497183998492844"><ele>366.0</ele><time>2026-04-18T16:39:18.001Z</time></trkpt><trkpt lat="45.15633867871822" lon="7.497232788076275"><ele>366.0</ele><time>2026-04-18T16:39:19.001Z</time></trkpt><trkpt lat="45.15644079739786" lon="7.497278584578646"><ele>366.0</ele><time>2026-04-18T16:39:20.001Z</time></trkpt><trkpt lat="45.156538311798286" lon="7.497324363372287"><ele>366.0</ele><time>2026-04-18T16:39:21.001Z</time></trkpt><trkpt lat="45.15663644210663" lon="7.497371706600718"><ele>366.0</ele><time>2026-04-18T16:39:22.001Z</time></trkpt><trkpt lat="45.15673561792597" lon="7.497418799231987"><ele>366.20000000000005</ele><time>2026-04-18T16:39:23.001Z</time></trkpt><trkpt lat="45.156835804859654" lon="7.497465707894944"><ele>366.40000000000003</ele><time>2026-04-18T16:39:24.001Z</time></trkpt><trkpt lat="45.15693883146013" lon="7.497515972814784"><ele>366.6</ele><time>2026-04-18T16:39:25.001Z</time></trkpt><trkpt lat="45.157046623358816" lon="7.497563035953423"><ele>366.8</ele><time>2026-04-18T16:39:26.001Z</time></trkpt><trkpt lat="45.157155650033175" lon="7.497614195224843"><ele>367.0</ele><time>2026-04-18T16:39:27.001Z</time></trkpt><trkpt lat="45.1572655586562" lon="7.497665298438804"><ele>367.5</ele><time>2026-04-18T16:39:28.001Z</time></trkpt><trkpt lat="45.157376224247415" lon="7.497717723992946"><ele>368.0</ele><time>2026-04-18T16:39:29.001Z</time></trkpt><trkpt lat="45.15748973852607" lon="7.497773780052133"><ele>368.5</ele><time>2026-04-18T16:39:30.001Z</time></trkpt><trkpt lat="45.15760277268285" lon="7.497831502391335"><ele>369.0</ele><time>2026-04-18T16:39:31.001Z</time></trkpt><trkpt lat="45.157719860367536" lon="7.497888245044176"><ele>368.5</ele><time>2026-04-18T16:39:32.001Z</time></trkpt><trkpt lat="45.15783714250265" lon="7.497946836922529"><ele>368.0</ele><time>2026-04-18T16:39:33.001Z</time></trkpt><trkpt lat="45.15795146741114" lon="7.498001718230927"><ele>367.5</ele><time>2026-04-18T16:39:34.001Z</time></trkpt><trkpt lat="45.15805715475328" lon="7.498052820369187"><ele>367.0</ele><time>2026-04-18T16:39:35.001Z</time></trkpt><trkpt lat="45.158153101517016" lon="7.4981036550815245"><ele>367.6</ele><time>2026-04-18T16:39:36.001Z</time></trkpt><trkpt lat="45.15825143666224" lon="7.498165553896842"><ele>368.20000000000005</ele><time>2026-04-18T16:39:37.001Z</time></trkpt><trkpt lat="45.158359760668034" lon="7.498235741875823"><ele>368.8</ele><time>2026-04-18T16:39:38.001Z</time></trkpt><trkpt lat="45.15846397334984" lon="7.4983076529043435"><ele>369.4</ele><time>2026-04-18T16:39:39.001Z</time></trkpt><trkpt lat="45.15855907399322" lon="7.498365030411309"><ele>370.0</ele><time>2026-04-18T16:39:40.001Z</time></trkpt><trkpt lat="45.15864280583841" lon="7.498417713819803"><ele>370.0</ele><time>2026-04-18T16:39:41.001Z</time></trkpt><trkpt lat="45.1587120988431" lon="7.498461971468751"><ele>370.0</ele><time>2026-04-18T16:39:42.001Z</time></trkpt><trkpt lat="45.158806525363104" lon="7.498583651270082"><ele>370.0</ele><time>2026-04-18T16:39:44.001Z</time></trkpt><trkpt lat="45.15884990133111" lon="7.498673561808176"><ele>370.0</ele><time>2026-04-18T16:39:45.001Z</time></trkpt><trkpt lat="45.158903516645694" lon="7.498757232492531"><ele>370.0</ele><time>2026-04-18T16:39:46.001Z</time></trkpt><trkpt lat="45.1589761053262" lon="7.498803272472848"><ele>370.0</ele><time>2026-04-18T16:39:47.001Z</time></trkpt><trkpt lat="45.15907192329173" lon="7.498810131001292"><ele>369.3333333333333</ele><time>2026-04-18T16:39:48.001Z</time></trkpt><trkpt lat="45.159195770357854" lon="7.4988198322976665"><ele>368.6666666666667</ele><time>2026-04-18T16:39:49.001Z</time></trkpt><trkpt lat="45.15933753888" lon="7.4988723456878725"><ele>368.0</ele><time>2026-04-18T16:39:50.001Z</time></trkpt><trkpt lat="45.15951246685326" lon="7.498953709458081"><ele>368.0</ele><time>2026-04-18T16:39:51.001Z</time></trkpt><trkpt lat="45.15969841158349" lon="7.499053039180665"><ele>368.0</ele><time>2026-04-18T16:39:52.001Z</time></trkpt><trkpt lat="45.15987268507057" lon="7.499149517577811"><ele>368.0</ele><time>2026-04-18T16:39:53.001Z</time></trkpt><trkpt lat="45.16003578483404" lon="7.499250329690465"><ele>370.0</ele><time>2026-04-18T16:39:54.001Z</time></trkpt><trkpt lat="45.16019086618399" lon="7.499349760287656"><ele>372.0</ele><time>2026-04-18T16:39:55.001Z</time></trkpt><trkpt lat="45.160346992803504" lon="7.499442694084611"><ele>374.0</ele><time>2026-04-18T16:39:56.002Z</time></trkpt><trkpt lat="45.1605041489586" lon="7.499535480871001"><ele>375.6666666666667</ele><time>2026-04-18T16:39:57.002Z</time></trkpt><trkpt lat="45.16065157466086" lon="7.49962319382094"><ele>377.3333333333333</ele><time>2026-04-18T16:39:58.002Z</time></trkpt><trkpt lat="45.16080371225954" lon="7.499702949761132"><ele>379.0</ele><time>2026-04-18T16:39:59.002Z</time></trkpt><trkpt lat="45.1609581857855" lon="7.499790267530157"><ele>379.0</ele><time>2026-04-18T16:40:00.002Z</time></trkpt><trkpt lat="45.16110354849496" lon="7.4999106246750555"><ele>379.0</ele><time>2026-04-18T16:40:01Z</time></trkpt><trkpt lat="45.16125577239454" lon="7.500034341502154"><ele>379.0</ele><time>2026-04-18T16:40:02Z</time></trkpt><trkpt lat="45.16140288414262" lon="7.500157122689915"><ele>379.66666666666663</ele><time>2026-04-18T16:40:03Z</time></trkpt><trkpt lat="45.16154491477248" lon="7.500280104653815"><ele>380.3333333333333</ele><time>2026-04-18T16:40:04Z</time></trkpt><trkpt lat="45.161692000075206" lon="7.500385536582322"><ele>381.0</ele><time>2026-04-18T16:40:05Z</time></trkpt><trkpt lat="45.161821686609706" lon="7.50053120084789"><ele>381.0</ele><time>2026-04-18T16:40:06Z</time></trkpt><trkpt lat="45.161958347835515" lon="7.500655329695411"><ele>381.0</ele><time>2026-04-18T16:40:07Z</time></trkpt><trkpt lat="45.162087943140726" lon="7.500772145775505"><ele>381.0</ele><time>2026-04-18T16:40:08Z</time></trkpt><trkpt lat="45.16221684838015" lon="7.500885133568406"><ele>381.0</ele><time>2026-04-18T16:40:09Z</time></trkpt><trkpt lat="45.16234709589326" lon="7.500983288442295"><ele>381.0</ele><time>2026-04-18T16:40:10Z</time></trkpt><trkpt lat="45.16245529934662" lon="7.501064369123767"><ele>381.0</ele><time>2026-04-18T16:40:11Z</time></trkpt><trkpt lat="45.16257891422761" lon="7.501139464969097"><ele>381.0</ele><time>2026-04-18T16:40:12Z</time></trkpt><trkpt lat="45.16272372820357" lon="7.501194317684041"><ele>382.0</ele><time>2026-04-18T16:40:13Z</time></trkpt><trkpt lat="45.16287064440559" lon="7.501242422892224"><ele>383.0</ele><time>2026-04-18T16:40:14Z</time></trkpt><trkpt lat="45.16302889417118" lon="7.501281304309244"><ele>384.0</ele><time>2026-04-18T16:40:15Z</time></trkpt><trkpt lat="45.16318215486605" lon="7.501328946379495"><ele>386.0</ele><time>2026-04-18T16:40:16Z</time></trkpt><trkpt lat="45.163333400159715" lon="7.501379510813266"><ele>388.0</ele><time>2026-04-18T16:40:17Z</time></trkpt><trkpt lat="45.16348809729579" lon="7.501444959686556"><ele>390.0</ele><time>2026-04-18T16:40:18Z</time></trkpt><trkpt lat="45.16362790787985" lon="7.501501377416783"><ele>390.0</ele><time>2026-04-18T16:40:19Z</time></trkpt><trkpt lat="45.163763720285" lon="7.501557932709619"><ele>390.0</ele><time>2026-04-18T16:40:20Z</time></trkpt><trkpt lat="45.16388317731195" lon="7.501610710313822"><ele>390.0</ele><time>2026-04-18T16:40:21Z</time></trkpt><trkpt lat="45.1640193851073" lon="7.5016618383622085"><ele>390.0</ele><time>2026-04-18T16:40:22Z</time></trkpt><trkpt lat="45.164166395186875" lon="7.501710885147887"><ele>392.66666666666663</ele><time>2026-04-18T16:40:23Z</time></trkpt><trkpt lat="45.16432025487862" lon="7.501788293203902"><ele>395.3333333333333</ele><time>2026-04-18T16:40:24Z</time></trkpt><trkpt lat="45.164477020127315" lon="7.501847018520974"><ele>398.0</ele><time>2026-04-18T16:40:25Z</time></trkpt><trkpt lat="45.16465337685871" lon="7.501931696813008"><ele>398.0</ele><time>2026-04-18T16:40:26Z</time></trkpt><trkpt lat="45.16483193384393" lon="7.501992146933126"><ele>398.0</ele><time>2026-04-18T16:40:27Z</time></trkpt><trkpt lat="45.16500303606481" lon="7.502054113750008"><ele>398.0</ele><time>2026-04-18T16:40:28Z</time></trkpt><trkpt lat="45.165166062238626" lon="7.502119650889969"><ele>398.0</ele><time>2026-04-18T16:40:29Z</time></trkpt><trkpt lat="45.16533047176081" lon="7.502199697440789"><ele>398.0</ele><time>2026-04-18T16:40:30Z</time></trkpt><trkpt lat="45.165494414040225" lon="7.502252936730049"><ele>398.0</ele><time>2026-04-18T16:40:31Z</time></trkpt><trkpt lat="45.16566046247464" lon="7.502323467383428"><ele>399.66666666666663</ele><time>2026-04-18T16:40:32Z</time></trkpt><trkpt lat="45.16583294112007" lon="7.502386336393154"><ele>401.33333333333337</ele><time>2026-04-18T16:40:33Z</time></trkpt><trkpt lat="45.16600921523192" lon="7.502457769130863"><ele>403.0</ele><time>2026-04-18T16:40:34Z</time></trkpt><trkpt lat="45.16618141800482" lon="7.502529533467864"><ele>403.0</ele><time>2026-04-18T16:40:35Z</time></trkpt><trkpt lat="45.16634838597941" lon="7.5025935604166305"><ele>403.0</ele><time>2026-04-18T16:40:36Z</time></trkpt><trkpt lat="45.16650657892264" lon="7.5026587972930106"><ele>403.0</ele><time>2026-04-18T16:40:37.001Z</time></trkpt><trkpt lat="45.16665710793269" lon="7.502711255248502"><ele>403.33333333333337</ele><time>2026-04-18T16:40:38.001Z</time></trkpt><trkpt lat="45.16680905667725" lon="7.502774297913864"><ele>403.66666666666663</ele><time>2026-04-18T16:40:39.001Z</time></trkpt><trkpt lat="45.1669578191483" lon="7.5027801298520265"><ele>404.0</ele><time>2026-04-18T16:40:40.001Z</time></trkpt><trkpt lat="45.16710925882635" lon="7.502775432760876"><ele>404.0</ele><time>2026-04-18T16:40:41.001Z</time></trkpt><trkpt lat="45.167257589881636" lon="7.5027452077232075"><ele>404.0</ele><time>2026-04-18T16:40:42.001Z</time></trkpt><trkpt lat="45.16740386946035" lon="7.502706108862545"><ele>404.0</ele><time>2026-04-18T16:40:43.001Z</time></trkpt><trkpt lat="45.16754865860495" lon="7.502663810957057"><ele>404.0</ele><time>2026-04-18T16:40:44.001Z</time></trkpt><trkpt lat="45.16769547893114" lon="7.5026299011104784"><ele>403.5</ele><time>2026-04-18T16:40:45.001Z</time></trkpt><trkpt lat="45.16784494950366" lon="7.50259659558782"><ele>403.0</ele><time>2026-04-18T16:40:46.001Z</time></trkpt><trkpt lat="45.167989934844414" lon="7.5025598353543215"><ele>402.5</ele><time>2026-04-18T16:40:47.001Z</time></trkpt><trkpt lat="45.16811688327921" lon="7.502538133276656"><ele>402.0</ele><time>2026-04-18T16:40:48.001Z</time></trkpt><trkpt lat="45.16824288799491" lon="7.502540823179562"><ele>401.75</ele><time>2026-04-18T16:40:49.001Z</time></trkpt><trkpt lat="45.16836447643486" lon="7.502584478442838"><ele>401.5</ele><time>2026-04-18T16:40:50.001Z</time></trkpt><trkpt lat="45.168484707606325" lon="7.502664154387383"><ele>401.25</ele><time>2026-04-18T16:40:51.001Z</time></trkpt><trkpt lat="45.16859254421682" lon="7.502769030108816"><ele>401.0</ele><time>2026-04-18T16:40:52.001Z</time></trkpt><trkpt lat="45.1686906099336" lon="7.502898767689781"><ele>398.3333333333333</ele><time>2026-04-18T16:40:53.001Z</time></trkpt><trkpt lat="45.16879038928551" lon="7.503051476569239"><ele>395.66666666666663</ele><time>2026-04-18T16:40:54.001Z</time></trkpt><trkpt lat="45.16889014497717" lon="7.5032174286056765"><ele>393.0</ele><time>2026-04-18T16:40:55.001Z</time></trkpt><trkpt lat="45.1689937661055" lon="7.503373016895579"><ele>392.75</ele><time>2026-04-18T16:40:56.001Z</time></trkpt><trkpt lat="45.16909130893793" lon="7.5035354142937365"><ele>392.5</ele><time>2026-04-18T16:40:57.001Z</time></trkpt><trkpt lat="45.169165610253835" lon="7.503713075357938"><ele>392.25</ele><time>2026-04-18T16:40:58.001Z</time></trkpt><trkpt lat="45.16925065190423" lon="7.503892013056367"><ele>392.0</ele><time>2026-04-18T16:40:59.001Z</time></trkpt><trkpt lat="45.169315961375425" lon="7.504069582680781"><ele>392.0</ele><time>2026-04-18T16:41:00.001Z</time></trkpt><trkpt lat="45.16937884372911" lon="7.504269141838077"><ele>392.0</ele><time>2026-04-18T16:41:01.001Z</time></trkpt><trkpt lat="45.169442068449435" lon="7.5044709983152975"><ele>392.0</ele><time>2026-04-18T16:41:02.001Z</time></trkpt><trkpt lat="45.169506887166285" lon="7.504684018034806"><ele>390.66666666666663</ele><time>2026-04-18T16:41:03.001Z</time></trkpt><trkpt lat="45.16956903595432" lon="7.5048879063775376"><ele>389.33333333333337</ele><time>2026-04-18T16:41:04.001Z</time></trkpt><trkpt lat="45.16963187380892" lon="7.505094048678329"><ele>388.0</ele><time>2026-04-18T16:41:05.001Z</time></trkpt><trkpt lat="45.169695925553455" lon="7.505294252439875"><ele>386.6666666666667</ele><time>2026-04-18T16:41:06.001Z</time></trkpt><trkpt lat="45.16976347796184" lon="7.505491661639355"><ele>385.33333333333337</ele><time>2026-04-18T16:41:07.001Z</time></trkpt><trkpt lat="45.16983232374612" lon="7.5056836810707015"><ele>384.0</ele><time>2026-04-18T16:41:08.001Z</time></trkpt><trkpt lat="45.169906431925824" lon="7.505874468844641"><ele>384.66666666666663</ele><time>2026-04-18T16:41:09.001Z</time></trkpt><trkpt lat="45.169986025890786" lon="7.506062728386879"><ele>385.3333333333333</ele><time>2026-04-18T16:41:10.001Z</time></trkpt><trkpt lat="45.17007659745161" lon="7.506240234356405"><ele>386.0</ele><time>2026-04-18T16:41:11.001Z</time></trkpt><trkpt lat="45.170177313611234" lon="7.5064083821072645"><ele>386.0</ele><time>2026-04-18T16:41:12.001Z</time></trkpt><trkpt lat="45.170283222995465" lon="7.506553564428318"><ele>386.0</ele><time>2026-04-18T16:41:13.001Z</time></trkpt><trkpt lat="45.17039963410802" lon="7.50667574220345"><ele>386.0</ele><time>2026-04-18T16:41:14.001Z</time></trkpt><trkpt lat="45.17052449947728" lon="7.5067653966286985"><ele>386.0</ele><time>2026-04-18T16:41:15.001Z</time></trkpt><trkpt lat="45.17066090099481" lon="7.506829388613493"><ele>387.0</ele><time>2026-04-18T16:41:16.001Z</time></trkpt><trkpt lat="45.17080418183509" lon="7.506883924931901"><ele>388.0</ele><time>2026-04-18T16:41:17.001Z</time></trkpt><trkpt lat="45.17095579251434" lon="7.506938166540436"><ele>389.0</ele><time>2026-04-18T16:41:18.001Z</time></trkpt><trkpt lat="45.171110276997595" lon="7.5069946089117074"><ele>389.0</ele><time>2026-04-18T16:41:19.001Z</time></trkpt><trkpt lat="45.17126471325391" lon="7.507053941583498"><ele>389.0</ele><time>2026-04-18T16:41:20.001Z</time></trkpt><trkpt lat="45.17141085714946" lon="7.507112461124088"><ele>389.0</ele><time>2026-04-18T16:41:21.001Z</time></trkpt><trkpt lat="45.17155959543971" lon="7.507180793892897"><ele>386.0</ele><time>2026-04-18T16:41:22.001Z</time></trkpt><trkpt lat="45.17170797826289" lon="7.507259670174995"><ele>383.0</ele><time>2026-04-18T16:41:23.001Z</time></trkpt><trkpt lat="45.171839949034" lon="7.507389429274723"><ele>380.0</ele><time>2026-04-18T16:41:24.001Z</time></trkpt><trkpt lat="45.17197682321202" lon="7.507522486659323"><ele>380.0</ele><time>2026-04-18T16:41:25.001Z</time></trkpt><trkpt lat="45.172121668815" lon="7.507669204224822"><ele>380.0</ele><time>2026-04-18T16:41:26.001Z</time></trkpt><trkpt lat="45.172269630501084" lon="7.507808569618437"><ele>380.0</ele><time>2026-04-18T16:41:27.001Z</time></trkpt><trkpt lat="45.172432411795235" lon="7.507973127744468"><ele>379.33333333333337</ele><time>2026-04-18T16:41:28.001Z</time></trkpt><trkpt lat="45.17259424751843" lon="7.508137984442733"><ele>378.6666666666667</ele><time>2026-04-18T16:41:29.001Z</time></trkpt><trkpt lat="45.17275000378223" lon="7.508295604050916"><ele>378.0</ele><time>2026-04-18T16:41:30.001Z</time></trkpt><trkpt lat="45.17290276270689" lon="7.508453748972906"><ele>378.0</ele><time>2026-04-18T16:41:31.001Z</time></trkpt><trkpt lat="45.17306070773062" lon="7.508598574846461"><ele>378.0</ele><time>2026-04-18T16:41:32.001Z</time></trkpt><trkpt lat="45.17318774885069" lon="7.508780154745359"><ele>378.0</ele><time>2026-04-18T16:41:33.001Z</time></trkpt><trkpt lat="45.17331943622976" lon="7.5090024383059095"><ele>378.3333333333333</ele><time>2026-04-18T16:41:34.001Z</time></trkpt><trkpt lat="45.17345269738283" lon="7.509228205672931"><ele>378.66666666666663</ele><time>2026-04-18T16:41:35.001Z</time></trkpt><trkpt lat="45.17359186809266" lon="7.509464817963436"><ele>379.0</ele><time>2026-04-18T16:41:36.001Z</time></trkpt><trkpt lat="45.17371941580612" lon="7.509665301058344"><ele>378.0</ele><time>2026-04-18T16:41:37.001Z</time></trkpt><trkpt lat="45.17384144854104" lon="7.509850454629988"><ele>377.0</ele><time>2026-04-18T16:41:38.001Z</time></trkpt><trkpt lat="45.17399006358152" lon="7.51006435888669"><ele>376.0</ele><time>2026-04-18T16:41:39.001Z</time></trkpt><trkpt lat="45.17413441563304" lon="7.51025810408356"><ele>376.0</ele><time>2026-04-18T16:41:40.001Z</time></trkpt><trkpt lat="45.17424453390059" lon="7.510395471144821"><ele>376.0</ele><time>2026-04-18T16:41:41.001Z</time></trkpt><trkpt lat="45.17439327005366" lon="7.510571183954062"><ele>376.0</ele><time>2026-04-18T16:41:42.001Z</time></trkpt><trkpt lat="45.17452885882973" lon="7.51075481678067"><ele>376.0</ele><time>2026-04-18T16:41:43.001Z</time></trkpt><trkpt lat="45.17468435094468" lon="7.510933586485516"><ele>376.0</ele><time>2026-04-18T16:41:44.001Z</time></trkpt><trkpt lat="45.17483089697131" lon="7.511117963886665"><ele>376.0</ele><time>2026-04-18T16:41:45.001Z</time></trkpt><trkpt lat="45.174949092852984" lon="7.5112938687602835"><ele>376.3333333333333</ele><time>2026-04-18T16:41:46.001Z</time></trkpt><trkpt lat="45.1751035498685" lon="7.5114706228923955"><ele>376.6666666666667</ele><time>2026-04-18T16:41:47.001Z</time></trkpt><trkpt lat="45.17523564292162" lon="7.511652510944799"><ele>377.0</ele><time>2026-04-18T16:41:48.001Z</time></trkpt><trkpt lat="45.175366811404935" lon="7.5118363034664775"><ele>377.0</ele><time>2026-04-18T16:41:49.001Z</time></trkpt><trkpt lat="45.1755383298605" lon="7.512027251217963"><ele>377.0</ele><time>2026-04-18T16:41:50.001Z</time></trkpt><trkpt lat="45.17569255835113" lon="7.5122079881139845"><ele>377.0</ele><time>2026-04-18T16:41:51.001Z</time></trkpt><trkpt lat="45.175849433331486" lon="7.512421289057084"><ele>376.0</ele><time>2026-04-18T16:41:52.001Z</time></trkpt><trkpt lat="45.175996767410176" lon="7.5126083811842115"><ele>375.0</ele><time>2026-04-18T16:41:53.001Z</time></trkpt><trkpt lat="45.176138218607015" lon="7.512784945967271"><ele>374.0</ele><time>2026-04-18T16:41:54.001Z</time></trkpt><trkpt lat="45.17626630594163" lon="7.5129744078932115"><ele>373.6666666666667</ele><time>2026-04-18T16:41:55.001Z</time></trkpt><trkpt lat="45.1763851777728" lon="7.513182892141999"><ele>373.3333333333333</ele><time>2026-04-18T16:41:56.001Z</time></trkpt><trkpt lat="45.176501461822454" lon="7.51339597804658"><ele>373.0</ele><time>2026-04-18T16:41:57.001Z</time></trkpt><trkpt lat="45.176618280408256" lon="7.51360844542116"><ele>372.66666666666663</ele><time>2026-04-18T16:41:58.001Z</time></trkpt><trkpt lat="45.176739042730176" lon="7.513802743805393"><ele>372.3333333333333</ele><time>2026-04-18T16:41:59.001Z</time></trkpt><trkpt lat="45.176842457291066" lon="7.513994792894993"><ele>372.0</ele><time>2026-04-18T16:42:00.001Z</time></trkpt><trkpt lat="45.176948930700156" lon="7.514158218721559"><ele>372.0</ele><time>2026-04-18T16:42:01.001Z</time></trkpt><trkpt lat="45.17707382256706" lon="7.514302654308411"><ele>372.0</ele><time>2026-04-18T16:42:02.001Z</time></trkpt><trkpt lat="45.17722039838985" lon="7.514425280947681"><ele>372.0</ele><time>2026-04-18T16:42:03.001Z</time></trkpt><trkpt lat="45.177377860289646" lon="7.514531906365108"><ele>372.0</ele><time>2026-04-18T16:42:04.001Z</time></trkpt><trkpt lat="45.17753977833554" lon="7.514640245859861"><ele>372.0</ele><time>2026-04-18T16:42:05.001Z</time></trkpt><trkpt lat="45.177684628560826" lon="7.514767257797044"><ele>372.0</ele><time>2026-04-18T16:42:06.001Z</time></trkpt><trkpt lat="45.17782785624648" lon="7.514886972099569"><ele>372.0</ele><time>2026-04-18T16:42:07.001Z</time></trkpt><trkpt lat="45.17796016273464" lon="7.514998618902631"><ele>372.0</ele><time>2026-04-18T16:42:08.001Z</time></trkpt><trkpt lat="45.178091143885645" lon="7.515104369442157"><ele>372.0</ele><time>2026-04-18T16:42:09.001Z</time></trkpt><trkpt lat="45.17821859377226" lon="7.515181886301952"><ele>372.0</ele><time>2026-04-18T16:42:10.001Z</time></trkpt><trkpt lat="45.17834524080914" lon="7.515213906288427"><ele>373.0</ele><time>2026-04-18T16:42:11.001Z</time></trkpt><trkpt lat="45.17847855753442" lon="7.515194493908885"><ele>374.0</ele><time>2026-04-18T16:42:12.001Z</time></trkpt><trkpt lat="45.178625600792856" lon="7.515140206553565"><ele>375.0</ele><time>2026-04-18T16:42:13.001Z</time></trkpt><trkpt lat="45.17878989134706" lon="7.515075235116769"><ele>375.0</ele><time>2026-04-18T16:42:14.001Z</time></trkpt><trkpt lat="45.17894573811221" lon="7.515034983949039"><ele>375.0</ele><time>2026-04-18T16:42:15.001Z</time></trkpt><trkpt lat="45.17909268700171" lon="7.51501955590233"><ele>375.0</ele><time>2026-04-18T16:42:16.001Z</time></trkpt><trkpt lat="45.17923065193788" lon="7.515034166404787"><ele>375.0</ele><time>2026-04-18T16:42:17.001Z</time></trkpt><trkpt lat="45.17936453713548" lon="7.515110859249552"><ele>375.3333333333333</ele><time>2026-04-18T16:42:18.001Z</time></trkpt><trkpt lat="45.1794912745431" lon="7.515205978043461"><ele>375.66666666666663</ele><time>2026-04-18T16:42:19.001Z</time></trkpt><trkpt lat="45.17962639395173" lon="7.515308343842565"><ele>376.0</ele><time>2026-04-18T16:42:20.001Z</time></trkpt><trkpt lat="45.1797599604411" lon="7.515429312768557"><ele>376.0</ele><time>2026-04-18T16:42:21.001Z</time></trkpt><trkpt lat="45.179883835989834" lon="7.515543624946833"><ele>376.0</ele><time>2026-04-18T16:42:22.001Z</time></trkpt><trkpt lat="45.180000306555044" lon="7.515654053114723"><ele>376.0</ele><time>2026-04-18T16:42:23.001Z</time></trkpt><trkpt lat="45.180115364807534" lon="7.5157555781618015"><ele>376.0</ele><time>2026-04-18T16:42:24.001Z</time></trkpt><trkpt lat="45.1802207501276" lon="7.515849976544062"><ele>376.0</ele><time>2026-04-18T16:42:25.001Z</time></trkpt><trkpt lat="45.1803196665235" lon="7.515930781936786"><ele>376.0</ele><time>2026-04-18T16:42:26.001Z</time></trkpt><trkpt lat="45.18040835699882" lon="7.516003861819392"><ele>376.0</ele><time>2026-04-18T16:42:27.001Z</time></trkpt><trkpt lat="45.180474952148266" lon="7.516050978896966"><ele>376.0</ele><time>2026-04-18T16:42:28.001Z</time></trkpt><trkpt lat="45.18052606058344" lon="7.5161076980891925"><ele>376.0</ele><time>2026-04-18T16:42:29.001Z</time></trkpt><trkpt lat="45.18056688389064" lon="7.5161778406305455"><ele>376.0</ele><time>2026-04-18T16:42:30.001Z</time></trkpt><trkpt lat="45.18059794649374" lon="7.516256793749183"><ele>376.16666666666663</ele><time>2026-04-18T16:42:31.001Z</time></trkpt><trkpt lat="45.180686885350276" lon="7.5163372009029334"><ele>376.3333333333333</ele><time>2026-04-18T16:42:33.001Z</time></trkpt><trkpt lat="45.18075731824789" lon="7.516317230294441"><ele>376.5</ele><time>2026-04-18T16:42:34.001Z</time></trkpt><trkpt lat="45.18082402729509" lon="7.516313479836466"><ele>376.6666666666667</ele><time>2026-04-18T16:42:35.001Z</time></trkpt><trkpt lat="45.18090886249036" lon="7.516375483771756"><ele>376.83333333333337</ele><time>2026-04-18T16:42:37.001Z</time></trkpt><trkpt lat="45.180982031537745" lon="7.516491980953823"><ele>377.0</ele><time>2026-04-18T16:42:39.001Z</time></trkpt><trkpt lat="45.18106606384776" lon="7.516596393192468"><ele>377.0</ele><time>2026-04-18T16:42:41.001Z</time></trkpt><trkpt lat="45.18115683613682" lon="7.516602458660415"><ele>377.0</ele><time>2026-04-18T16:42:43.001Z</time></trkpt><trkpt lat="45.18122286885767" lon="7.516598602939948"><ele>377.0</ele><time>2026-04-18T16:42:44.001Z</time></trkpt><trkpt lat="45.18129640923028" lon="7.516605258135236"><ele>377.0</ele><time>2026-04-18T16:42:45.001Z</time></trkpt><trkpt lat="45.18137678532908" lon="7.516613333951439"><ele>377.0</ele><time>2026-04-18T16:42:46.001Z</time></trkpt><trkpt lat="45.181464233909324" lon="7.516604873696218"><ele>377.0</ele><time>2026-04-18T16:42:47.001Z</time></trkpt><trkpt lat="45.18155473257545" lon="7.516580470217852"><ele>377.40000000000003</ele><time>2026-04-18T16:42:48.001Z</time></trkpt><trkpt lat="45.18164276580623" lon="7.516553744946347"><ele>377.8</ele><time>2026-04-18T16:42:49.001Z</time></trkpt><trkpt lat="45.18173702342681" lon="7.516525577492589"><ele>378.2</ele><time>2026-04-18T16:42:50.001Z</time></trkpt><trkpt lat="45.18183042675751" lon="7.516495984179277"><ele>378.6</ele><time>2026-04-18T16:42:51.001Z</time></trkpt><trkpt lat="45.18192938360947" lon="7.516469659820501"><ele>379.0</ele><time>2026-04-18T16:42:52.001Z</time></trkpt><trkpt lat="45.18202464958715" lon="7.516433688618234"><ele>379.0</ele><time>2026-04-18T16:42:53.001Z</time></trkpt><trkpt lat="45.182100854404936" lon="7.516359563369383"><ele>379.0</ele><time>2026-04-18T16:42:54.001Z</time></trkpt><trkpt lat="45.18217443684254" lon="7.516243290726055"><ele>379.0</ele><time>2026-04-18T16:42:55.001Z</time></trkpt><trkpt lat="45.18223421192193" lon="7.5161148441885"><ele>379.0</ele><time>2026-04-18T16:42:56.001Z</time></trkpt><trkpt lat="45.182284927707556" lon="7.516003033904412"><ele>379.0</ele><time>2026-04-18T16:42:57.001Z</time></trkpt><trkpt lat="45.18232675435113" lon="7.515910796911907"><ele>379.66666666666663</ele><time>2026-04-18T16:42:58.001Z</time></trkpt><trkpt lat="45.1823757502465" lon="7.515830625634785"><ele>380.3333333333333</ele><time>2026-04-18T16:42:59.001Z</time></trkpt><trkpt lat="45.18242749522456" lon="7.515768683407816"><ele>381.0</ele><time>2026-04-18T16:43:00.001Z</time></trkpt><trkpt lat="45.18249652563833" lon="7.515738156858359"><ele>381.6666666666667</ele><time>2026-04-18T16:43:01.001Z</time></trkpt><trkpt lat="45.1825721736999" lon="7.5157468811276695"><ele>382.33333333333337</ele><time>2026-04-18T16:43:02.001Z</time></trkpt><trkpt lat="45.18264511554004" lon="7.515794069057025"><ele>383.0</ele><time>2026-04-18T16:43:03.001Z</time></trkpt><trkpt lat="45.1827059861069" lon="7.515871216751963"><ele>383.0</ele><time>2026-04-18T16:43:04.001Z</time></trkpt><trkpt lat="45.182771473074354" lon="7.515940131191407"><ele>383.0</ele><time>2026-04-18T16:43:05.001Z</time></trkpt><trkpt lat="45.182825563872484" lon="7.516005952980351"><ele>383.0</ele><time>2026-04-18T16:43:06.001Z</time></trkpt><trkpt lat="45.182889076967214" lon="7.516112072077455"><ele>383.0</ele><time>2026-04-18T16:43:08.001Z</time></trkpt><trkpt lat="45.18293242346601" lon="7.51618967057504"><ele>383.0</ele><time>2026-04-18T16:43:10.001Z</time></trkpt><trkpt lat="45.18306240442048" lon="7.516247669405041"><ele>382.59999999999997</ele><time>2026-04-18T16:43:12.001Z</time></trkpt><trkpt lat="45.183180012884286" lon="7.516240281645114"><ele>382.2</ele><time>2026-04-18T16:43:13.001Z</time></trkpt><trkpt lat="45.1832973916253" lon="7.516212558885713"><ele>381.8</ele><time>2026-04-18T16:43:14.001Z</time></trkpt><trkpt lat="45.1833905252446" lon="7.516192566963479"><ele>381.4</ele><time>2026-04-18T16:43:15.001Z</time></trkpt><trkpt lat="45.18348219507401" lon="7.516179398742244"><ele>381.0</ele><time>2026-04-18T16:43:16.001Z</time></trkpt><trkpt lat="45.183585220623954" lon="7.516162086577822"><ele>382.0</ele><time>2026-04-18T16:43:17.001Z</time></trkpt><trkpt lat="45.183682564192395" lon="7.516150347316742"><ele>383.0</ele><time>2026-04-18T16:43:18.001Z</time></trkpt><trkpt lat="45.18375895924555" lon="7.516111088500744"><ele>384.0</ele><time>2026-04-18T16:43:19.001Z</time></trkpt><trkpt lat="45.18383826536561" lon="7.516057604572605"><ele>385.0</ele><time>2026-04-18T16:43:20.001Z</time></trkpt><trkpt lat="45.183918495425075" lon="7.515989555183822"><ele>386.0</ele><time>2026-04-18T16:43:21.001Z</time></trkpt><trkpt lat="45.1839968850527" lon="7.515921076457981"><ele>385.25</ele><time>2026-04-18T16:43:22.001Z</time></trkpt><trkpt lat="45.18406296707295" lon="7.515857549128201"><ele>384.5</ele><time>2026-04-18T16:43:23.001Z</time></trkpt><trkpt lat="45.18413227872243" lon="7.515787512880725"><ele>383.75</ele><time>2026-04-18T16:43:24.001Z</time></trkpt><trkpt lat="45.184222954634535" lon="7.5156630023800925"><ele>383.0</ele><time>2026-04-18T16:43:25.001Z</time></trkpt><trkpt lat="45.18434555107502" lon="7.515493501646817"><ele>385.0</ele><time>2026-04-18T16:43:26.001Z</time></trkpt><trkpt lat="45.1845031395843" lon="7.515339807238491"><ele>387.0</ele><time>2026-04-18T16:43:27.001Z</time></trkpt><trkpt lat="45.18462244229619" lon="7.5151677110607"><ele>389.0</ele><time>2026-04-18T16:43:28.001Z</time></trkpt><trkpt lat="45.18472249843496" lon="7.5149500699642795"><ele>389.0</ele><time>2026-04-18T16:43:29.001Z</time></trkpt><trkpt lat="45.184798637572676" lon="7.514725389141731"><ele>389.0</ele><time>2026-04-18T16:43:30.001Z</time></trkpt><trkpt lat="45.18486654682835" lon="7.5145338393795145"><ele>389.0</ele><time>2026-04-18T16:43:31.001Z</time></trkpt><trkpt lat="45.18492554724095" lon="7.514380323471866"><ele>389.16666666666663</ele><time>2026-04-18T16:43:32.001Z</time></trkpt><trkpt lat="45.18498298070446" lon="7.514285986891517"><ele>389.3333333333333</ele><time>2026-04-18T16:43:33.001Z</time></trkpt><trkpt lat="45.185064634373376" lon="7.514251470327176"><ele>389.5</ele><time>2026-04-18T16:43:34.001Z</time></trkpt><trkpt lat="45.185161330794394" lon="7.514285859734611"><ele>389.66666666666663</ele><time>2026-04-18T16:43:35.001Z</time></trkpt><trkpt lat="45.18523149049821" lon="7.514348906286383"><ele>389.8333333333333</ele><time>2026-04-18T16:43:36.001Z</time></trkpt><trkpt lat="45.18526470294131" lon="7.514446846579154"><ele>390.0</ele><time>2026-04-18T16:43:37.001Z</time></trkpt><trkpt lat="45.185285258644896" lon="7.514552664947338"><ele>388.75</ele><time>2026-04-18T16:43:38.001Z</time></trkpt><trkpt lat="45.18527302916233" lon="7.514683241224633"><ele>387.5</ele><time>2026-04-18T16:43:39.001Z</time></trkpt><trkpt lat="45.185303855976926" lon="7.514889646794065"><ele>386.25</ele><time>2026-04-18T16:43:40.001Z</time></trkpt><trkpt lat="45.185327583212626" lon="7.515056607419508"><ele>385.0</ele><time>2026-04-18T16:43:41.001Z</time></trkpt><trkpt lat="45.18537509945708" lon="7.51526956566394"><ele>384.25</ele><time>2026-04-18T16:43:42.001Z</time></trkpt><trkpt lat="45.18543733203118" lon="7.515406145356386"><ele>383.5</ele><time>2026-04-18T16:43:43.001Z</time></trkpt><trkpt lat="45.18550070202593" lon="7.515487254323823"><ele>382.75</ele><time>2026-04-18T16:43:44.001Z</time></trkpt><trkpt lat="45.18564640483644" lon="7.515508405259518"><ele>382.0</ele><time>2026-04-18T16:43:45.001Z</time></trkpt><trkpt lat="45.18578508988043" lon="7.5154270089913044"><ele>385.3333333333333</ele><time>2026-04-18T16:43:46.001Z</time></trkpt><trkpt lat="45.185928432104326" lon="7.515376563259353"><ele>388.66666666666663</ele><time>2026-04-18T16:43:47.001Z</time></trkpt><trkpt lat="45.186209012665984" lon="7.515349744428484"><ele>392.0</ele><time>2026-04-18T16:43:48.001Z</time></trkpt><trkpt lat="45.186329477626494" lon="7.51539189001659"><ele>392.0</ele><time>2026-04-18T16:43:49.001Z</time></trkpt><trkpt lat="45.186399438147006" lon="7.515512965971754"><ele>392.0</ele><time>2026-04-18T16:43:50.001Z</time></trkpt><trkpt lat="45.186462062212634" lon="7.515625676768729"><ele>392.0</ele><time>2026-04-18T16:43:51.001Z</time></trkpt><trkpt lat="45.18659234677389" lon="7.515777088915925"><ele>392.0</ele><time>2026-04-18T16:43:52.001Z</time></trkpt><trkpt lat="45.18673073385322" lon="7.515868866740283"><ele>392.0</ele><time>2026-04-18T16:43:53.001Z</time></trkpt><trkpt lat="45.18687194531729" lon="7.515928651418462"><ele>392.0</ele><time>2026-04-18T16:43:54.001Z</time></trkpt><trkpt lat="45.18702568684859" lon="7.515956016727001"><ele>392.0</ele><time>2026-04-18T16:43:55.001Z</time></trkpt><trkpt lat="45.1871506596684" lon="7.515938458315332"><ele>392.0</ele><time>2026-04-18T16:43:56.001Z</time></trkpt><trkpt lat="45.187274074453796" lon="7.515876773374952"><ele>391.66666666666663</ele><time>2026-04-18T16:43:57.001Z</time></trkpt><trkpt lat="45.187394745511405" lon="7.515769139800648"><ele>391.33333333333337</ele><time>2026-04-18T16:43:58.001Z</time></trkpt><trkpt lat="45.187485548960545" lon="7.515602311508433"><ele>391.0</ele><time>2026-04-18T16:43:59.001Z</time></trkpt><trkpt lat="45.18759757080494" lon="7.515437862206912"><ele>391.25</ele><time>2026-04-18T16:44:00.001Z</time></trkpt><trkpt lat="45.18772170367115" lon="7.51533338860171"><ele>391.5</ele><time>2026-04-18T16:44:01.001Z</time></trkpt><trkpt lat="45.1878645508844" lon="7.515284558405905"><ele>391.75</ele><time>2026-04-18T16:44:02.001Z</time></trkpt><trkpt lat="45.188007886941044" lon="7.515196838216269"><ele>392.0</ele><time>2026-04-18T16:44:03.001Z</time></trkpt><trkpt lat="45.188156827715495" lon="7.515266629300278"><ele>392.5</ele><time>2026-04-18T16:44:04.001Z</time></trkpt><trkpt lat="45.188300079333374" lon="7.515290959921474"><ele>393.0</ele><time>2026-04-18T16:44:05.001Z</time></trkpt><trkpt lat="45.18842966053497" lon="7.5152909562251065"><ele>393.5</ele><time>2026-04-18T16:44:06.001Z</time></trkpt><trkpt lat="45.1885854617093" lon="7.515273227092872"><ele>394.0</ele><time>2026-04-18T16:44:07.001Z</time></trkpt><trkpt lat="45.18879219062859" lon="7.515238873979697"><ele>395.5</ele><time>2026-04-18T16:44:08.001Z</time></trkpt><trkpt lat="45.18907720916868" lon="7.515221745863015"><ele>397.0</ele><time>2026-04-18T16:44:09.001Z</time></trkpt><trkpt lat="45.18929726579042" lon="7.515230924302558"><ele>397.0</ele><time>2026-04-18T16:44:10.001Z</time></trkpt><trkpt lat="45.18949731778926" lon="7.515219548239059"><ele>397.0</ele><time>2026-04-18T16:44:11.001Z</time></trkpt><trkpt lat="45.18965079971298" lon="7.515220160745589"><ele>397.0</ele><time>2026-04-18T16:44:12.001Z</time></trkpt><trkpt lat="45.18980129020841" lon="7.5151701508938675"><ele>396.6666666666667</ele><time>2026-04-18T16:44:13.001Z</time></trkpt><trkpt lat="45.190011419853676" lon="7.515079744486414"><ele>396.33333333333337</ele><time>2026-04-18T16:44:15.001Z</time></trkpt><trkpt lat="45.190165699588995" lon="7.515015571670427"><ele>396.0</ele><time>2026-04-18T16:44:16.001Z</time></trkpt><trkpt lat="45.19031562562303" lon="7.514929813466209"><ele>396.0</ele><time>2026-04-18T16:44:17.001Z</time></trkpt><trkpt lat="45.19046844856847" lon="7.514783865591498"><ele>396.0</ele><time>2026-04-18T16:44:18.001Z</time></trkpt><trkpt lat="45.190616925501736" lon="7.514676744322224"><ele>396.0</ele><time>2026-04-18T16:44:19.001Z</time></trkpt><trkpt lat="45.19076929204729" lon="7.514575522949292"><ele>398.0</ele><time>2026-04-18T16:44:20.001Z</time></trkpt><trkpt lat="45.190909075432195" lon="7.514435877312003"><ele>400.0</ele><time>2026-04-18T16:44:21.001Z</time></trkpt><trkpt lat="45.19103039952028" lon="7.5142707537779705"><ele>402.0</ele><time>2026-04-18T16:44:22.001Z</time></trkpt><trkpt lat="45.19109182707636" lon="7.5140724438222435"><ele>402.0</ele><time>2026-04-18T16:44:23.001Z</time></trkpt><trkpt lat="45.191145638381684" lon="7.513864197631848"><ele>402.0</ele><time>2026-04-18T16:44:24.001Z</time></trkpt><trkpt lat="45.191207951581184" lon="7.513487664477827"><ele>402.0</ele><time>2026-04-18T16:44:25.001Z</time></trkpt><trkpt lat="45.191289274672855" lon="7.513238398884676"><ele>401.66666666666663</ele><time>2026-04-18T16:44:26.001Z</time></trkpt><trkpt lat="45.19136954657283" lon="7.512966553962366"><ele>401.3333333333333</ele><time>2026-04-18T16:44:27.001Z</time></trkpt><trkpt lat="45.19147124352386" lon="7.512747229974086"><ele>401.0</ele><time>2026-04-18T16:44:28.001Z</time></trkpt><trkpt lat="45.1915651250133" lon="7.512540895431273"><ele>401.0</ele><time>2026-04-18T16:44:29.001Z</time></trkpt><trkpt lat="45.191665285643396" lon="7.512303267050955"><ele>401.0</ele><time>2026-04-18T16:44:30.001Z</time></trkpt><trkpt lat="45.191731849927244" lon="7.512058938384523"><ele>401.0</ele><time>2026-04-18T16:44:31.001Z</time></trkpt><trkpt lat="45.19179459613308" lon="7.511812450904403"><ele>403.3333333333333</ele><time>2026-04-18T16:44:32.001Z</time></trkpt><trkpt lat="45.19182521667563" lon="7.511554516027088"><ele>405.66666666666663</ele><time>2026-04-18T16:44:33.001Z</time></trkpt><trkpt lat="45.19184564305983" lon="7.511299888429039"><ele>408.0</ele><time>2026-04-18T16:44:34.001Z</time></trkpt><trkpt lat="45.19186957981372" lon="7.511052707855933"><ele>409.0</ele><time>2026-04-18T16:44:35.001Z</time></trkpt><trkpt lat="45.19186869740497" lon="7.510914693108009"><ele>410.0</ele><time>2026-04-18T16:44:36.001Z</time></trkpt><trkpt lat="45.19187594868478" lon="7.510775254626147"><ele>411.0</ele><time>2026-04-18T16:44:37.001Z</time></trkpt><trkpt lat="45.1919116944585" lon="7.510630902945398"><ele>412.0</ele><time>2026-04-18T16:44:38.001Z</time></trkpt><trkpt lat="45.19197187430519" lon="7.510510785562546"><ele>413.0</ele><time>2026-04-18T16:44:39.001Z</time></trkpt><trkpt lat="45.19207985116567" lon="7.510586181699857"><ele>413.0</ele><time>2026-04-18T16:44:40.001Z</time></trkpt><trkpt lat="45.192172655846285" lon="7.510607276131672"><ele>413.0</ele><time>2026-04-18T16:44:41Z</time></trkpt><trkpt lat="45.19226790281868" lon="7.5107004323468365"><ele>413.0</ele><time>2026-04-18T16:44:42Z</time></trkpt><trkpt lat="45.19222614961422" lon="7.510875900554624"><ele>413.0</ele><time>2026-04-18T16:44:43Z</time></trkpt><trkpt lat="45.19227266238448" lon="7.511103319331723"><ele>411.75</ele><time>2026-04-18T16:44:44Z</time></trkpt><trkpt lat="45.19233048553258" lon="7.511319724435198"><ele>410.5</ele><time>2026-04-18T16:44:45Z</time></trkpt><trkpt lat="45.19237981519161" lon="7.511500937878685"><ele>409.25</ele><time>2026-04-18T16:44:46Z</time></trkpt><trkpt lat="45.19242987439979" lon="7.511684831357079"><ele>408.0</ele><time>2026-04-18T16:44:47Z</time></trkpt><trkpt lat="45.19251176714724" lon="7.5119956967278"><ele>402.0</ele><time>2026-04-18T16:44:48Z</time></trkpt><trkpt lat="45.19259700074413" lon="7.512354435173899"><ele>396.0</ele><time>2026-04-18T16:44:49Z</time></trkpt><trkpt lat="45.192656736207866" lon="7.5126252024353795"><ele>394.66666666666663</ele><time>2026-04-18T16:44:50Z</time></trkpt><trkpt lat="45.192721510153184" lon="7.512932442598929"><ele>393.3333333333333</ele><time>2026-04-18T16:44:51Z</time></trkpt><trkpt lat="45.19278285766105" lon="7.513199108838088"><ele>392.0</ele><time>2026-04-18T16:44:52Z</time></trkpt><trkpt lat="45.19286333238499" lon="7.513437235486182"><ele>392.0</ele><time>2026-04-18T16:44:53Z</time></trkpt><trkpt lat="45.19294464202726" lon="7.513662587534745"><ele>392.0</ele><time>2026-04-18T16:44:54Z</time></trkpt><trkpt lat="45.193007177224246" lon="7.513838908989162"><ele>392.0</ele><time>2026-04-18T16:44:55Z</time></trkpt><trkpt lat="45.19306801377887" lon="7.514007547127858"><ele>391.0</ele><time>2026-04-18T16:44:56Z</time></trkpt><trkpt lat="45.193128717307914" lon="7.514159169895268"><ele>390.0</ele><time>2026-04-18T16:44:57Z</time></trkpt><trkpt lat="45.19319631994376" lon="7.514212207855779"><ele>389.0</ele><time>2026-04-18T16:44:58Z</time></trkpt><trkpt lat="45.19326054665436" lon="7.514240465433537"><ele>388.0</ele><time>2026-04-18T16:44:59Z</time></trkpt><trkpt lat="45.193363981141744" lon="7.514163262870028"><ele>387.0</ele><time>2026-04-18T16:45:00Z</time></trkpt><trkpt lat="45.19350926733127" lon="7.513991564250217"><ele>392.0</ele><time>2026-04-18T16:45:01.001Z</time></trkpt><trkpt lat="45.19362812300009" lon="7.5138957533194075"><ele>397.0</ele><time>2026-04-18T16:45:02.001Z</time></trkpt><trkpt lat="45.19372034648618" lon="7.51364490790988"><ele>402.0</ele><time>2026-04-18T16:45:03.001Z</time></trkpt><trkpt lat="45.19377570443497" lon="7.513464263226907"><ele>402.25</ele><time>2026-04-18T16:45:04.001Z</time></trkpt><trkpt lat="45.19382812522943" lon="7.513249106080777"><ele>402.5</ele><time>2026-04-18T16:45:05.001Z</time></trkpt><trkpt lat="45.19385813495935" lon="7.513056206236429"><ele>402.75</ele><time>2026-04-18T16:45:06.001Z</time></trkpt><trkpt lat="45.193871658918916" lon="7.512872290383388"><ele>403.0</ele><time>2026-04-18T16:45:07.001Z</time></trkpt><trkpt lat="45.193930585341214" lon="7.512735263442795"><ele>403.0</ele><time>2026-04-18T16:45:08.001Z</time></trkpt><trkpt lat="45.19400005891688" lon="7.5127035967566815"><ele>403.0</ele><time>2026-04-18T16:45:09.001Z</time></trkpt><trkpt lat="45.19409499883913" lon="7.512711655472695"><ele>403.0</ele><time>2026-04-18T16:45:10.001Z</time></trkpt><trkpt lat="45.19418173689055" lon="7.512709235696081"><ele>403.0</ele><time>2026-04-18T16:45:11.001Z</time></trkpt><trkpt lat="45.19429804583394" lon="7.512711358795159"><ele>403.0</ele><time>2026-04-18T16:45:12.001Z</time></trkpt><trkpt lat="45.19442456144768" lon="7.512725554569567"><ele>402.79999999999995</ele><time>2026-04-18T16:45:13.001Z</time></trkpt><trkpt lat="45.19452493619631" lon="7.512750609702415"><ele>402.6</ele><time>2026-04-18T16:45:14.001Z</time></trkpt><trkpt lat="45.194642500496784" lon="7.5127880559882945"><ele>402.4</ele><time>2026-04-18T16:45:15.001Z</time></trkpt><trkpt lat="45.19472134848812" lon="7.512815731325742"><ele>402.20000000000005</ele><time>2026-04-18T16:45:16.001Z</time></trkpt><trkpt lat="45.19480341958743" lon="7.512848451706412"><ele>402.0</ele><time>2026-04-18T16:45:17.001Z</time></trkpt><trkpt lat="45.19486717587626" lon="7.512890951528364"><ele>402.75</ele><time>2026-04-18T16:45:18.001Z</time></trkpt><trkpt lat="45.19495217623632" lon="7.513063003199389"><ele>403.5</ele><time>2026-04-18T16:45:20.001Z</time></trkpt><trkpt lat="45.19503146682873" lon="7.513117800944196"><ele>404.25</ele><time>2026-04-18T16:45:21.001Z</time></trkpt><trkpt lat="45.19503486549059" lon="7.513301641845958"><ele>405.0</ele><time>2026-04-18T16:45:22.001Z</time></trkpt><trkpt lat="45.19505203952666" lon="7.513475138099004"><ele>405.0</ele><time>2026-04-18T16:45:23.001Z</time></trkpt><trkpt lat="45.195060426677564" lon="7.513663654488542"><ele>405.0</ele><time>2026-04-18T16:45:24.001Z</time></trkpt><trkpt lat="45.19503651906084" lon="7.513794143535388"><ele>405.0</ele><time>2026-04-18T16:45:25.001Z</time></trkpt><trkpt lat="45.19505478250337" lon="7.513949739751357"><ele>405.0</ele><time>2026-04-18T16:45:26.001Z</time></trkpt><trkpt lat="45.195074530836614" lon="7.514105738150615"><ele>404.5</ele><time>2026-04-18T16:45:27.001Z</time></trkpt><trkpt lat="45.195123758505645" lon="7.514247515996578"><ele>404.0</ele><time>2026-04-18T16:45:28.001Z</time></trkpt><trkpt lat="45.19515657002" lon="7.514409613373718"><ele>403.5</ele><time>2026-04-18T16:45:29.001Z</time></trkpt><trkpt lat="45.195165323095566" lon="7.5145964153219875"><ele>403.0</ele><time>2026-04-18T16:45:30.001Z</time></trkpt><trkpt lat="45.195169313767224" lon="7.5148080313757974"><ele>402.33333333333337</ele><time>2026-04-18T16:45:31.001Z</time></trkpt><trkpt lat="45.195192148101164" lon="7.514969287097139"><ele>401.6666666666667</ele><time>2026-04-18T16:45:32.001Z</time></trkpt><trkpt lat="45.19520957249584" lon="7.515111312404917"><ele>401.0</ele><time>2026-04-18T16:45:33.001Z</time></trkpt><trkpt lat="45.19523304402741" lon="7.515216374576485"><ele>400.33333333333337</ele><time>2026-04-18T16:45:34.001Z</time></trkpt><trkpt lat="45.19527820833469" lon="7.515290123152194"><ele>399.6666666666667</ele><time>2026-04-18T16:45:35.001Z</time></trkpt><trkpt lat="45.195327221248114" lon="7.515354703494863"><ele>399.0</ele><time>2026-04-18T16:45:36.001Z</time></trkpt><trkpt lat="45.195438977192865" lon="7.515389781063808"><ele>399.0</ele><time>2026-04-18T16:45:38.001Z</time></trkpt><trkpt lat="45.19554072119006" lon="7.5153248578353535"><ele>399.0</ele><time>2026-04-18T16:45:39.001Z</time></trkpt><trkpt lat="45.195622588743625" lon="7.5150001281749494"><ele>399.0</ele><time>2026-04-18T16:45:40.001Z</time></trkpt><trkpt lat="45.19563801558491" lon="7.514786458637138"><ele>396.66666666666663</ele><time>2026-04-18T16:45:41.001Z</time></trkpt><trkpt lat="45.195697059039254" lon="7.514569029400972"><ele>394.3333333333333</ele><time>2026-04-18T16:45:42.001Z</time></trkpt><trkpt lat="45.19576949318513" lon="7.514347824863616"><ele>392.0</ele><time>2026-04-18T16:45:43.001Z</time></trkpt><trkpt lat="45.195837821002385" lon="7.514124011534537"><ele>392.0</ele><time>2026-04-18T16:45:44.001Z</time></trkpt><trkpt lat="45.19590312406333" lon="7.513907422815791"><ele>392.0</ele><time>2026-04-18T16:45:45.001Z</time></trkpt><trkpt lat="45.19596559249674" lon="7.5136978306494235"><ele>392.0</ele><time>2026-04-18T16:45:46.001Z</time></trkpt><trkpt lat="45.19602468410184" lon="7.513490487578262"><ele>392.8</ele><time>2026-04-18T16:45:47.001Z</time></trkpt><trkpt lat="45.196069917578" lon="7.513292996981038"><ele>393.6</ele><time>2026-04-18T16:45:48.001Z</time></trkpt><trkpt lat="45.19610248439048" lon="7.513155115878942"><ele>394.40000000000003</ele><time>2026-04-18T16:45:49.001Z</time></trkpt><trkpt lat="45.19613601972027" lon="7.513067105852172"><ele>395.20000000000005</ele><time>2026-04-18T16:45:51.001Z</time></trkpt><trkpt lat="45.196240933203555" lon="7.513126920985276"><ele>396.0</ele><time>2026-04-18T16:45:53.001Z</time></trkpt><trkpt lat="45.196266228716205" lon="7.513217764482224"><ele>396.0</ele><time>2026-04-18T16:45:54.001Z</time></trkpt><trkpt lat="45.19622022170477" lon="7.513351032893458"><ele>396.0</ele><time>2026-04-18T16:45:55.001Z</time></trkpt><trkpt lat="45.19621359402224" lon="7.513553101380749"><ele>396.0</ele><time>2026-04-18T16:45:56.001Z</time></trkpt><trkpt lat="45.196195284132024" lon="7.513814601119122"><ele>396.0</ele><time>2026-04-18T16:45:57.001Z</time></trkpt><trkpt lat="45.19620534250455" lon="7.514108477016145"><ele>394.66666666666663</ele><time>2026-04-18T16:45:58.001Z</time></trkpt><trkpt lat="45.19619648559097" lon="7.5143847510569755"><ele>393.3333333333333</ele><time>2026-04-18T16:45:59.001Z</time></trkpt><trkpt lat="45.196205118167285" lon="7.514653203434126"><ele>392.0</ele><time>2026-04-18T16:46:00.001Z</time></trkpt><trkpt lat="45.19621407688063" lon="7.514901143160432"><ele>391.25</ele><time>2026-04-18T16:46:01.001Z</time></trkpt><trkpt lat="45.196216841103904" lon="7.515111376712829"><ele>390.5</ele><time>2026-04-18T16:46:02.001Z</time></trkpt><trkpt lat="45.19621931778725" lon="7.515280976332201"><ele>389.75</ele><time>2026-04-18T16:46:03.001Z</time></trkpt><trkpt lat="45.19624842230671" lon="7.515424281529652"><ele>389.0</ele><time>2026-04-18T16:46:04.001Z</time></trkpt><trkpt lat="45.19631256636557" lon="7.515550855137355"><ele>386.5</ele><time>2026-04-18T16:46:05.001Z</time></trkpt><trkpt lat="45.196408063574054" lon="7.51564480489381"><ele>384.0</ele><time>2026-04-18T16:46:06.001Z</time></trkpt><trkpt lat="45.196535104515426" lon="7.515669755969836"><ele>381.5</ele><time>2026-04-18T16:46:07.001Z</time></trkpt><trkpt lat="45.19669034960312" lon="7.515630503375179"><ele>379.0</ele><time>2026-04-18T16:46:08.001Z</time></trkpt><trkpt lat="45.19687580917087" lon="7.5155615339893656"><ele>372.0</ele><time>2026-04-18T16:46:09.001Z</time></trkpt><trkpt lat="45.19711091137493" lon="7.515474989791126"><ele>365.0</ele><time>2026-04-18T16:46:10.001Z</time></trkpt><trkpt lat="45.19735898439249" lon="7.51538092209627"><ele>365.0</ele><time>2026-04-18T16:46:11.001Z</time></trkpt><trkpt lat="45.197602399790085" lon="7.515289046098124"><ele>365.0</ele><time>2026-04-18T16:46:12.001Z</time></trkpt><trkpt lat="45.19784561885246" lon="7.51520319472536"><ele>365.0</ele><time>2026-04-18T16:46:13.001Z</time></trkpt><trkpt lat="45.19808791016645" lon="7.515125212966169"><ele>365.0</ele><time>2026-04-18T16:46:14.001Z</time></trkpt><trkpt lat="45.19830732448402" lon="7.515045055777748"><ele>365.0</ele><time>2026-04-18T16:46:15.001Z</time></trkpt><trkpt lat="45.19852385222226" lon="7.514953380892789"><ele>365.0</ele><time>2026-04-18T16:46:16.001Z</time></trkpt><trkpt lat="45.19873849546396" lon="7.5148208250207915"><ele>365.0</ele><time>2026-04-18T16:46:17.001Z</time></trkpt><trkpt lat="45.19896562646311" lon="7.51466602495671"><ele>365.0</ele><time>2026-04-18T16:46:18.001Z</time></trkpt><trkpt lat="45.19919786597447" lon="7.514510784946735"><ele>364.5</ele><time>2026-04-18T16:46:19.001Z</time></trkpt><trkpt lat="45.19941500677448" lon="7.514363360528576"><ele>364.0</ele><time>2026-04-18T16:46:20.001Z</time></trkpt><trkpt lat="45.19962631952217" lon="7.514221860663502"><ele>364.0</ele><time>2026-04-18T16:46:21.001Z</time></trkpt><trkpt lat="45.19983168906095" lon="7.514128544401493"><ele>364.0</ele><time>2026-04-18T16:46:22.001Z</time></trkpt><trkpt lat="45.2000504433696" lon="7.514072651832519"><ele>364.0</ele><time>2026-04-18T16:46:23.001Z</time></trkpt><trkpt lat="45.200286989010095" lon="7.514022732526012"><ele>364.5</ele><time>2026-04-18T16:46:24.001Z</time></trkpt><trkpt lat="45.20052602092463" lon="7.513979068742819"><ele>365.0</ele><time>2026-04-18T16:46:25.001Z</time></trkpt><trkpt lat="45.20074127052033" lon="7.51393187677052"><ele>365.0</ele><time>2026-04-18T16:46:26.001Z</time></trkpt><trkpt lat="45.2009533114024" lon="7.513891913310185"><ele>365.0</ele><time>2026-04-18T16:46:27.001Z</time></trkpt><trkpt lat="45.201148093512046" lon="7.513851589656743"><ele>365.0</ele><time>2026-04-18T16:46:28Z</time></trkpt><trkpt lat="45.20133582205472" lon="7.513816365278"><ele>365.6666666666667</ele><time>2026-04-18T16:46:29Z</time></trkpt><trkpt lat="45.20151839883199" lon="7.513787335240737"><ele>366.3333333333333</ele><time>2026-04-18T16:46:30Z</time></trkpt><trkpt lat="45.201696459412865" lon="7.513797832853494"><ele>367.0</ele><time>2026-04-18T16:46:31Z</time></trkpt><trkpt lat="45.20186655600583" lon="7.513855673138031"><ele>367.0</ele><time>2026-04-18T16:46:32Z</time></trkpt><trkpt lat="45.202042119214916" lon="7.513912588600891"><ele>367.0</ele><time>2026-04-18T16:46:33Z</time></trkpt><trkpt lat="45.202213512369134" lon="7.513949434982174"><ele>367.0</ele><time>2026-04-18T16:46:34Z</time></trkpt><trkpt lat="45.2023872141907" lon="7.513961623635226"><ele>366.66666666666663</ele><time>2026-04-18T16:46:35Z</time></trkpt><trkpt lat="45.20254592472127" lon="7.513946050747533"><ele>366.3333333333333</ele><time>2026-04-18T16:46:36Z</time></trkpt><trkpt lat="45.20269525309214" lon="7.513931012198661"><ele>366.0</ele><time>2026-04-18T16:46:37Z</time></trkpt><trkpt lat="45.202838946508734" lon="7.513921201975536"><ele>366.0</ele><time>2026-04-18T16:46:38Z</time></trkpt><trkpt lat="45.20297769668305" lon="7.513946299262725"><ele>366.0</ele><time>2026-04-18T16:46:39Z</time></trkpt><trkpt lat="45.203111730380485" lon="7.513999796124037"><ele>366.0</ele><time>2026-04-18T16:46:40Z</time></trkpt><trkpt lat="45.203232091957275" lon="7.5141224116223935"><ele>366.0</ele><time>2026-04-18T16:46:41Z</time></trkpt><trkpt lat="45.20334753100628" lon="7.514270171217532"><ele>364.0</ele><time>2026-04-18T16:46:42Z</time></trkpt><trkpt lat="45.20346762523335" lon="7.514429656746795"><ele>362.0</ele><time>2026-04-18T16:46:43Z</time></trkpt><trkpt lat="45.20358405806173" lon="7.514577884568045"><ele>360.0</ele><time>2026-04-18T16:46:44Z</time></trkpt><trkpt lat="45.20370517084434" lon="7.514717579271001"><ele>359.0</ele><time>2026-04-18T16:46:45Z</time></trkpt><trkpt lat="45.20381026648353" lon="7.514848939065528"><ele>358.0</ele><time>2026-04-18T16:46:46Z</time></trkpt><trkpt lat="45.20391233425047" lon="7.5149744763862145"><ele>357.0</ele><time>2026-04-18T16:46:47Z</time></trkpt><trkpt lat="45.204015718603394" lon="7.515099724463341"><ele>356.0</ele><time>2026-04-18T16:46:48Z</time></trkpt><trkpt lat="45.20412428550354" lon="7.5152182408400625"><ele>356.0</ele><time>2026-04-18T16:46:49Z</time></trkpt><trkpt lat="45.20423068820715" lon="7.515354977089703"><ele>356.0</ele><time>2026-04-18T16:46:50Z</time></trkpt><trkpt lat="45.20435355098627" lon="7.515502299156948"><ele>356.0</ele><time>2026-04-18T16:46:51Z</time></trkpt><trkpt lat="45.20448478089298" lon="7.515647509423724"><ele>355.33333333333337</ele><time>2026-04-18T16:46:52Z</time></trkpt><trkpt lat="45.20462152979561" lon="7.515797772862657"><ele>354.6666666666667</ele><time>2026-04-18T16:46:53Z</time></trkpt><trkpt lat="45.20477202987162" lon="7.5159977541515275"><ele>354.0</ele><time>2026-04-18T16:46:54Z</time></trkpt><trkpt lat="45.20495391299378" lon="7.516217509337446"><ele>355.5</ele><time>2026-04-18T16:46:55Z</time></trkpt><trkpt lat="45.20514469118621" lon="7.516448011747599"><ele>357.0</ele><time>2026-04-18T16:46:56Z</time></trkpt><trkpt lat="45.205334200229046" lon="7.516675077720014"><ele>357.0</ele><time>2026-04-18T16:46:57Z</time></trkpt><trkpt lat="45.20551183272815" lon="7.516888006260956"><ele>357.0</ele><time>2026-04-18T16:46:58Z</time></trkpt><trkpt lat="45.20567427758265" lon="7.51708302673372"><ele>357.0</ele><time>2026-04-18T16:46:59Z</time></trkpt><trkpt lat="45.20582229824869" lon="7.51726073932343"><ele>357.25</ele><time>2026-04-18T16:47:00Z</time></trkpt><trkpt lat="45.20595395163773" lon="7.517418506237578"><ele>357.5</ele><time>2026-04-18T16:47:01Z</time></trkpt><trkpt lat="45.206073161544815" lon="7.517539504815376"><ele>357.75</ele><time>2026-04-18T16:47:02Z</time></trkpt><trkpt lat="45.20616952315398" lon="7.5176607315986"><ele>358.0</ele><time>2026-04-18T16:47:03Z</time></trkpt><trkpt lat="45.206258104437815" lon="7.517770571904063"><ele>358.0</ele><time>2026-04-18T16:47:04Z</time></trkpt><trkpt lat="45.206337114906056" lon="7.517865432648157"><ele>358.0</ele><time>2026-04-18T16:47:05Z</time></trkpt><trkpt lat="45.20641074489276" lon="7.51795768475615"><ele>358.0</ele><time>2026-04-18T16:47:06Z</time></trkpt><trkpt lat="45.20647125595981" lon="7.518063075301098"><ele>358.0</ele><time>2026-04-18T16:47:07Z</time></trkpt><trkpt lat="45.20649609448306" lon="7.518201920281061"><ele>358.0</ele><time>2026-04-18T16:47:08Z</time></trkpt><trkpt lat="45.20652326412429" lon="7.518352012351865"><ele>357.75</ele><time>2026-04-18T16:47:09Z</time></trkpt><trkpt lat="45.20652506233651" lon="7.518513042409129"><ele>357.5</ele><time>2026-04-18T16:47:10Z</time></trkpt><trkpt lat="45.2065221427303" lon="7.518672056100341"><ele>357.25</ele><time>2026-04-18T16:47:11Z</time></trkpt><trkpt lat="45.20652709349629" lon="7.518834400533324"><ele>357.0</ele><time>2026-04-18T16:47:12Z</time></trkpt><trkpt lat="45.20653457845284" lon="7.518999480891996"><ele>357.0</ele><time>2026-04-18T16:47:13Z</time></trkpt><trkpt lat="45.20654219953826" lon="7.519176034038206"><ele>357.0</ele><time>2026-04-18T16:47:14Z</time></trkpt><trkpt lat="45.20655081956482" lon="7.519353862627296"><ele>357.0</ele><time>2026-04-18T16:47:15Z</time></trkpt><trkpt lat="45.206576963030074" lon="7.519532660068529"><ele>357.0</ele><time>2026-04-18T16:47:16Z</time></trkpt><trkpt lat="45.20662859045752" lon="7.5197094167074106"><ele>357.0</ele><time>2026-04-18T16:47:17Z</time></trkpt><trkpt lat="45.206718267130796" lon="7.519893013640256"><ele>357.0</ele><time>2026-04-18T16:47:18Z</time></trkpt><trkpt lat="45.20682767887481" lon="7.52009710063487"><ele>357.0</ele><time>2026-04-18T16:47:19Z</time></trkpt><trkpt lat="45.206946987008045" lon="7.520340054945725"><ele>358.0</ele><time>2026-04-18T16:47:20Z</time></trkpt><trkpt lat="45.207085304848704" lon="7.520634191944788"><ele>359.0</ele><time>2026-04-18T16:47:21Z</time></trkpt><trkpt lat="45.20722796997944" lon="7.520953885605318"><ele>362.5</ele><time>2026-04-18T16:47:22Z</time></trkpt><trkpt lat="45.20736829898636" lon="7.521273154186819"><ele>366.0</ele><time>2026-04-18T16:47:23Z</time></trkpt><trkpt lat="45.20751010909393" lon="7.52155993511326"><ele>366.0</ele><time>2026-04-18T16:47:24Z</time></trkpt><trkpt lat="45.20764030780538" lon="7.52182343639577"><ele>366.0</ele><time>2026-04-18T16:47:25Z</time></trkpt><trkpt lat="45.20775745198161" lon="7.522064070301296"><ele>366.0</ele><time>2026-04-18T16:47:26Z</time></trkpt><trkpt lat="45.20785517918895" lon="7.5222789889153585"><ele>367.5</ele><time>2026-04-18T16:47:27Z</time></trkpt><trkpt lat="45.20794523269334" lon="7.522470420782172"><ele>369.0</ele><time>2026-04-18T16:47:28Z</time></trkpt><trkpt lat="45.20803726631099" lon="7.52263640403155"><ele>370.5</ele><time>2026-04-18T16:47:29Z</time></trkpt><trkpt lat="45.20814554467039" lon="7.522746086094687"><ele>372.0</ele><time>2026-04-18T16:47:30Z</time></trkpt><trkpt lat="45.208270122622125" lon="7.5228250556974725"><ele>372.75</ele><time>2026-04-18T16:47:31Z</time></trkpt><trkpt lat="45.20839680238248" lon="7.522838116200611"><ele>373.5</ele><time>2026-04-18T16:47:32Z</time></trkpt><trkpt lat="45.20852714274894" lon="7.522790059249112"><ele>374.25</ele><time>2026-04-18T16:47:33Z</time></trkpt><trkpt lat="45.20864998237152" lon="7.522684903279574"><ele>375.0</ele><time>2026-04-18T16:47:34Z</time></trkpt><trkpt lat="45.208771927966595" lon="7.522552361556244"><ele>375.0</ele><time>2026-04-18T16:47:35Z</time></trkpt><trkpt lat="45.20888919066088" lon="7.522428198881782"><ele>375.0</ele><time>2026-04-18T16:47:36Z</time></trkpt><trkpt lat="45.209007274348586" lon="7.522300264638632"><ele>375.0</ele><time>2026-04-18T16:47:37Z</time></trkpt><trkpt lat="45.20914665342914" lon="7.52220112656416"><ele>378.66666666666663</ele><time>2026-04-18T16:47:38Z</time></trkpt><trkpt lat="45.20929369184396" lon="7.522143735636957"><ele>382.3333333333333</ele><time>2026-04-18T16:47:39Z</time></trkpt><trkpt lat="45.20947451276588" lon="7.522132722393177"><ele>386.0</ele><time>2026-04-18T16:47:40Z</time></trkpt><trkpt lat="45.209682946022895" lon="7.522114813824176"><ele>393.5</ele><time>2026-04-18T16:47:41Z</time></trkpt><trkpt lat="45.20991760655962" lon="7.522095130116583"><ele>401.0</ele><time>2026-04-18T16:47:42Z</time></trkpt><trkpt lat="45.21018201265647" lon="7.522101562001567"><ele>401.0</ele><time>2026-04-18T16:47:43Z</time></trkpt><trkpt lat="45.21045346738036" lon="7.522088689025278"><ele>401.0</ele><time>2026-04-18T16:47:44Z</time></trkpt><trkpt lat="45.2107415374746" lon="7.522067751175065"><ele>397.0</ele><time>2026-04-18T16:47:45Z</time></trkpt><trkpt lat="45.2110294660031" lon="7.5220488685246245"><ele>393.0</ele><time>2026-04-18T16:47:46Z</time></trkpt><trkpt lat="45.21128390747108" lon="7.522029644748413"><ele>397.5</ele><time>2026-04-18T16:47:47Z</time></trkpt><trkpt lat="45.211514120823495" lon="7.521978626304702"><ele>402.0</ele><time>2026-04-18T16:47:48Z</time></trkpt><trkpt lat="45.21175839184498" lon="7.521909910930118"><ele>402.0</ele><time>2026-04-18T16:47:49Z</time></trkpt><trkpt lat="45.212017757875046" lon="7.521802887092021"><ele>402.0</ele><time>2026-04-18T16:47:50Z</time></trkpt><trkpt lat="45.21228840631304" lon="7.521663110109965"><ele>408.5</ele><time>2026-04-18T16:47:51Z</time></trkpt><trkpt lat="45.212547849311456" lon="7.521521702477682"><ele>415.0</ele><time>2026-04-18T16:47:52Z</time></trkpt><trkpt lat="45.21279193993089" lon="7.52141454468658"><ele>415.0</ele><time>2026-04-18T16:47:53Z</time></trkpt><trkpt lat="45.21301806803676" lon="7.5213227487336445"><ele>415.0</ele><time>2026-04-18T16:47:54Z</time></trkpt><trkpt lat="45.21321577356296" lon="7.5212345948490515"><ele>415.0</ele><time>2026-04-18T16:47:55.001Z</time></trkpt><trkpt lat="45.2134040375584" lon="7.521145505964136"><ele>413.0</ele><time>2026-04-18T16:47:56.001Z</time></trkpt><trkpt lat="45.21357648929605" lon="7.521053696367577"><ele>411.0</ele><time>2026-04-18T16:47:57.001Z</time></trkpt><trkpt lat="45.213727560985184" lon="7.520985494846865"><ele>409.0</ele><time>2026-04-18T16:47:58.001Z</time></trkpt><trkpt lat="45.21386922995728" lon="7.520922720483673"><ele>410.75</ele><time>2026-04-18T16:47:59.001Z</time></trkpt><trkpt lat="45.214004384236304" lon="7.520874924950887"><ele>412.5</ele><time>2026-04-18T16:48:00.001Z</time></trkpt><trkpt lat="45.21413658957195" lon="7.520873717136884"><ele>414.25</ele><time>2026-04-18T16:48:01.001Z</time></trkpt><trkpt lat="45.21424900891636" lon="7.520944898263837"><ele>416.0</ele><time>2026-04-18T16:48:02.001Z</time></trkpt><trkpt lat="45.21434218805039" lon="7.521032273662837"><ele>416.0</ele><time>2026-04-18T16:48:03.001Z</time></trkpt><trkpt lat="45.21443066334852" lon="7.521139699341691"><ele>416.0</ele><time>2026-04-18T16:48:04.001Z</time></trkpt><trkpt lat="45.21447019387909" lon="7.521327148088846"><ele>416.0</ele><time>2026-04-18T16:48:05.001Z</time></trkpt><trkpt lat="45.214550745704855" lon="7.521522322260607"><ele>416.0</ele><time>2026-04-18T16:48:06.001Z</time></trkpt><trkpt lat="45.21461482406622" lon="7.521749117719559"><ele>418.66666666666663</ele><time>2026-04-18T16:48:07.001Z</time></trkpt><trkpt lat="45.21467848636711" lon="7.521956878034452"><ele>421.33333333333337</ele><time>2026-04-18T16:48:08.001Z</time></trkpt><trkpt lat="45.214740233964285" lon="7.522152345976859"><ele>424.0</ele><time>2026-04-18T16:48:09.001Z</time></trkpt><trkpt lat="45.21480098884535" lon="7.52233784827898"><ele>425.0</ele><time>2026-04-18T16:48:10.001Z</time></trkpt><trkpt lat="45.21485962921742" lon="7.52251118500292"><ele>426.0</ele><time>2026-04-18T16:48:11.001Z</time></trkpt><trkpt lat="45.21491240002634" lon="7.5226669578079575"><ele>427.0</ele><time>2026-04-18T16:48:12.001Z</time></trkpt><trkpt lat="45.214963581119676" lon="7.5228078399882845"><ele>428.0</ele><time>2026-04-18T16:48:13.001Z</time></trkpt><trkpt lat="45.215011887433576" lon="7.522935639213202"><ele>428.0</ele><time>2026-04-18T16:48:14.001Z</time></trkpt><trkpt lat="45.21504950332558" lon="7.523050363199831"><ele>427.99999999999994</ele><time>2026-04-18T16:48:15.001Z</time></trkpt><trkpt lat="45.215079664740784" lon="7.5231399713958025"><ele>427.99999999999994</ele><time>2026-04-18T16:48:16.001Z</time></trkpt><trkpt lat="45.21512812612487" lon="7.52328007076606"><ele>428.0</ele><time>2026-04-18T16:48:18.001Z</time></trkpt><trkpt lat="45.21522099346282" lon="7.523359515768283"><ele>428.0</ele><time>2026-04-18T16:48:20.001Z</time></trkpt><trkpt lat="45.21530676071592" lon="7.523198243234614"><ele>428.0</ele><time>2026-04-18T16:48:22.001Z</time></trkpt><trkpt lat="45.21538147549378" lon="7.523132851134138"><ele>428.0</ele><time>2026-04-18T16:48:23.001Z</time></trkpt><trkpt lat="45.21545835738742" lon="7.523018226603285"><ele>428.0</ele><time>2026-04-18T16:48:24.001Z</time></trkpt><trkpt lat="45.21555560739737" lon="7.522904571790063"><ele>428.0</ele><time>2026-04-18T16:48:25Z</time></trkpt><trkpt lat="45.21566248365341" lon="7.522789979829229"><ele>428.0</ele><time>2026-04-18T16:48:26Z</time></trkpt><trkpt lat="45.21578263714562" lon="7.522682817314808"><ele>428.0</ele><time>2026-04-18T16:48:27Z</time></trkpt><trkpt lat="45.21588880929535" lon="7.522570063136649"><ele>428.0</ele><time>2026-04-18T16:48:28Z</time></trkpt><trkpt lat="45.215994953178274" lon="7.522475906007075"><ele>428.0</ele><time>2026-04-18T16:48:29Z</time></trkpt><trkpt lat="45.21608869287745" lon="7.5223825992283135"><ele>428.0</ele><time>2026-04-18T16:48:30Z</time></trkpt><trkpt lat="45.21617416160488" lon="7.522301449058627"><ele>427.99999999999994</ele><time>2026-04-18T16:48:31Z</time></trkpt><trkpt lat="45.21624608414822" lon="7.522233961706025"><ele>427.99999999999994</ele><time>2026-04-18T16:48:32Z</time></trkpt><trkpt lat="45.21630152532861" lon="7.522187037981832"><ele>428.0</ele><time>2026-04-18T16:48:33Z</time></trkpt><trkpt lat="45.21641678367508" lon="7.522259694119274"><ele>428.0</ele><time>2026-04-18T16:48:36Z</time></trkpt><trkpt lat="45.21644630210942" lon="7.5223551735473"><ele>428.0</ele><time>2026-04-18T16:48:37Z</time></trkpt><trkpt lat="45.21648459970445" lon="7.522477333478092"><ele>428.0</ele><time>2026-04-18T16:48:38Z</time></trkpt><trkpt lat="45.21653148868484" lon="7.5226095283178225"><ele>428.0</ele><time>2026-04-18T16:48:39Z</time></trkpt><trkpt lat="45.216580582310954" lon="7.5227816813063475"><ele>428.0</ele><time>2026-04-18T16:48:40Z</time></trkpt><trkpt lat="45.21663423995968" lon="7.522952230814947"><ele>428.75</ele><time>2026-04-18T16:48:41Z</time></trkpt><trkpt lat="45.216706587771974" lon="7.523105741873212"><ele>429.5</ele><time>2026-04-18T16:48:42Z</time></trkpt><trkpt lat="45.216796350904204" lon="7.523226586094581"><ele>430.25</ele><time>2026-04-18T16:48:43Z</time></trkpt><trkpt lat="45.21690009531947" lon="7.523335482370054"><ele>431.0</ele><time>2026-04-18T16:48:44Z</time></trkpt><trkpt lat="45.21702967910674" lon="7.523455571791121"><ele>431.0</ele><time>2026-04-18T16:48:45Z</time></trkpt><trkpt lat="45.21717125978415" lon="7.523587664842145"><ele>431.0</ele><time>2026-04-18T16:48:46Z</time></trkpt><trkpt lat="45.21730244349029" lon="7.523726952662921"><ele>431.0</ele><time>2026-04-18T16:48:47Z</time></trkpt><trkpt lat="45.21742417456129" lon="7.523862347187797"><ele>431.5</ele><time>2026-04-18T16:48:48Z</time></trkpt><trkpt lat="45.21754618139118" lon="7.523991287676909"><ele>432.0</ele><time>2026-04-18T16:48:49Z</time></trkpt><trkpt lat="45.21766526132562" lon="7.524118350093495"><ele>432.5</ele><time>2026-04-18T16:48:50Z</time></trkpt><trkpt lat="45.217785224691205" lon="7.524240487434541"><ele>433.0</ele><time>2026-04-18T16:48:51Z</time></trkpt><trkpt lat="45.21790504177982" lon="7.524367412278208"><ele>433.0</ele><time>2026-04-18T16:48:52Z</time></trkpt><trkpt lat="45.21802441774802" lon="7.524495624737196"><ele>433.0</ele><time>2026-04-18T16:48:53Z</time></trkpt><trkpt lat="45.21814355578894" lon="7.524621252150192"><ele>433.0</ele><time>2026-04-18T16:48:54Z</time></trkpt><trkpt lat="45.21825769438541" lon="7.52474185196747"><ele>433.0</ele><time>2026-04-18T16:48:55Z</time></trkpt><trkpt lat="45.2183628663344" lon="7.524853661727961"><ele>433.0</ele><time>2026-04-18T16:48:56Z</time></trkpt><trkpt lat="45.21847010480435" lon="7.524958888576248"><ele>433.0</ele><time>2026-04-18T16:48:57Z</time></trkpt><trkpt lat="45.21857084653717" lon="7.525061956062981"><ele>433.0</ele><time>2026-04-18T16:48:58Z</time></trkpt><trkpt lat="45.218670927184334" lon="7.525166687237348"><ele>433.0</ele><time>2026-04-18T16:48:59Z</time></trkpt><trkpt lat="45.21876768343646" lon="7.525272580114065"><ele>433.0</ele><time>2026-04-18T16:49:00Z</time></trkpt><trkpt lat="45.218863853621045" lon="7.52538078429727"><ele>433.0</ele><time>2026-04-18T16:49:01Z</time></trkpt><trkpt lat="45.21897335515892" lon="7.525495420207514"><ele>433.0</ele><time>2026-04-18T16:49:02Z</time></trkpt><trkpt lat="45.21909287456064" lon="7.525627168177211"><ele>433.0</ele><time>2026-04-18T16:49:03Z</time></trkpt><trkpt lat="45.21922581304256" lon="7.525775866094516"><ele>432.25</ele><time>2026-04-18T16:49:04Z</time></trkpt><trkpt lat="45.219346366945175" lon="7.525900879981419"><ele>431.5</ele><time>2026-04-18T16:49:05Z</time></trkpt><trkpt lat="45.21945539440082" lon="7.526011867570215"><ele>430.75</ele><time>2026-04-18T16:49:06Z</time></trkpt><trkpt lat="45.219553108941795" lon="7.526099431959024"><ele>430.0</ele><time>2026-04-18T16:49:07Z</time></trkpt><trkpt lat="45.2196563665871" lon="7.526160703024584"><ele>430.0</ele><time>2026-04-18T16:49:08Z</time></trkpt><trkpt lat="45.219760313820146" lon="7.52617232779753"><ele>430.0</ele><time>2026-04-18T16:49:09Z</time></trkpt><trkpt lat="45.219877533031195" lon="7.526151092560161"><ele>430.0</ele><time>2026-04-18T16:49:10Z</time></trkpt><trkpt lat="45.220022489942764" lon="7.526121267120004"><ele>430.0</ele><time>2026-04-18T16:49:11Z</time></trkpt><trkpt lat="45.220172538481364" lon="7.526129018323173"><ele>430.25</ele><time>2026-04-18T16:49:12Z</time></trkpt><trkpt lat="45.2203207457074" lon="7.526111343781186"><ele>430.5</ele><time>2026-04-18T16:49:13Z</time></trkpt><trkpt lat="45.22045811947355" lon="7.526097022948423"><ele>430.75</ele><time>2026-04-18T16:49:14Z</time></trkpt><trkpt lat="45.22058446083638" lon="7.526091508599756"><ele>431.0</ele><time>2026-04-18T16:49:15Z</time></trkpt><trkpt lat="45.22070393910136" lon="7.526083465313524"><ele>430.4</ele><time>2026-04-18T16:49:16Z</time></trkpt><trkpt lat="45.22081132551376" lon="7.526068246681709"><ele>429.8</ele><time>2026-04-18T16:49:17Z</time></trkpt><trkpt lat="45.22091836744489" lon="7.526056317415611"><ele>429.19999999999993</ele><time>2026-04-18T16:49:18Z</time></trkpt><trkpt lat="45.22100847075183" lon="7.526052115240062"><ele>428.59999999999997</ele><time>2026-04-18T16:49:19Z</time></trkpt><trkpt lat="45.22108454539153" lon="7.526049126958322"><ele>428.0</ele><time>2026-04-18T16:49:20Z</time></trkpt><trkpt lat="45.22120970703994" lon="7.5260660577909855"><ele>427.99999999999994</ele><time>2026-04-18T16:49:22Z</time></trkpt><trkpt lat="45.221297666457026" lon="7.526035038311439"><ele>428.0</ele><time>2026-04-18T16:49:24Z</time></trkpt><trkpt lat="45.22136365082271" lon="7.526023886914139"><ele>428.0</ele><time>2026-04-18T16:49:25Z</time></trkpt><trkpt lat="45.22145136189534" lon="7.52601968758004"><ele>428.0</ele><time>2026-04-18T16:49:26Z</time></trkpt><trkpt lat="45.22154011882885" lon="7.526015490625297"><ele>427.99999999999994</ele><time>2026-04-18T16:49:27Z</time></trkpt><trkpt lat="45.22162786595621" lon="7.526010633183048"><ele>428.0</ele><time>2026-04-18T16:49:28Z</time></trkpt><trkpt lat="45.221715312681184" lon="7.526016332976193"><ele>427.3333333333333</ele><time>2026-04-18T16:49:29Z</time></trkpt><trkpt lat="45.221791206850625" lon="7.526011225536487"><ele>426.66666666666663</ele><time>2026-04-18T16:49:30Z</time></trkpt><trkpt lat="45.22186312754272" lon="7.526026026802125"><ele>426.0</ele><time>2026-04-18T16:49:31Z</time></trkpt><trkpt lat="45.22193161087528" lon="7.526053024127115"><ele>425.33333333333337</ele><time>2026-04-18T16:49:32Z</time></trkpt><trkpt lat="45.22201699526616" lon="7.526082554244367"><ele>424.6666666666667</ele><time>2026-04-18T16:49:33Z</time></trkpt><trkpt lat="45.22210398950849" lon="7.526130318648583"><ele>424.0</ele><time>2026-04-18T16:49:34Z</time></trkpt><trkpt lat="45.222204446080376" lon="7.52616463741715"><ele>424.0</ele><time>2026-04-18T16:49:35Z</time></trkpt><trkpt lat="45.22230454653763" lon="7.526219829656214"><ele>424.0</ele><time>2026-04-18T16:49:36Z</time></trkpt><trkpt lat="45.22243371528409" lon="7.5262751757333355"><ele>424.0</ele><time>2026-04-18T16:49:37Z</time></trkpt><trkpt lat="45.222554842663115" lon="7.526319958745992"><ele>424.0</ele><time>2026-04-18T16:49:38Z</time></trkpt><trkpt lat="45.22270620277335" lon="7.526341148326508"><ele>422.6666666666667</ele><time>2026-04-18T16:49:39Z</time></trkpt><trkpt lat="45.22284819379087" lon="7.526399408805757"><ele>421.33333333333337</ele><time>2026-04-18T16:49:40Z</time></trkpt><trkpt lat="45.22300205874291" lon="7.5264334352622635"><ele>420.0</ele><time>2026-04-18T16:49:41Z</time></trkpt><trkpt lat="45.22318046326417" lon="7.526448962720436"><ele>419.5</ele><time>2026-04-18T16:49:42Z</time></trkpt><trkpt lat="45.223408368995145" lon="7.526507560010159"><ele>419.0</ele><time>2026-04-18T16:49:43Z</time></trkpt><trkpt lat="45.22367258378992" lon="7.526569303899932"><ele>419.0</ele><time>2026-04-18T16:49:44Z</time></trkpt><trkpt lat="45.22395360261271" lon="7.526625870778095"><ele>419.0</ele><time>2026-04-18T16:49:45Z</time></trkpt><trkpt lat="45.22420032685821" lon="7.526692850372955"><ele>418.3333333333333</ele><time>2026-04-18T16:49:46Z</time></trkpt><trkpt lat="45.22442584387496" lon="7.526747019600686"><ele>417.66666666666663</ele><time>2026-04-18T16:49:47Z</time></trkpt><trkpt lat="45.22463788239169" lon="7.526788441137947"><ele>417.0</ele><time>2026-04-18T16:49:48Z</time></trkpt><trkpt lat="45.22483982443366" lon="7.526820024944616"><ele>417.0</ele><time>2026-04-18T16:49:49Z</time></trkpt><trkpt lat="45.2250267843436" lon="7.526860252138471"><ele>417.0</ele><time>2026-04-18T16:49:50Z</time></trkpt><trkpt lat="45.22518788094371" lon="7.526889307548247"><ele>417.0</ele><time>2026-04-18T16:49:51Z</time></trkpt><trkpt lat="45.22532717378739" lon="7.526925628657483"><ele>417.0</ele><time>2026-04-18T16:49:52Z</time></trkpt><trkpt lat="45.22545071752892" lon="7.526980369846257"><ele>417.0</ele><time>2026-04-18T16:49:53Z</time></trkpt><trkpt lat="45.22555166954294" lon="7.527067394582061"><ele>417.0</ele><time>2026-04-18T16:49:54Z</time></trkpt><trkpt lat="45.225595119267545" lon="7.52722965956806"><ele>417.0</ele><time>2026-04-18T16:49:55Z</time></trkpt><trkpt lat="45.22565843882695" lon="7.527426002689689"><ele>417.66666666666663</ele><time>2026-04-18T16:49:56Z</time></trkpt><trkpt lat="45.22573094210412" lon="7.527653264098475"><ele>418.3333333333333</ele><time>2026-04-18T16:49:57Z</time></trkpt><trkpt lat="45.22582732909921" lon="7.527915757232268"><ele>419.0</ele><time>2026-04-18T16:49:58Z</time></trkpt><trkpt lat="45.2259264409186" lon="7.5281811270054675"><ele>419.0</ele><time>2026-04-18T16:49:59Z</time></trkpt><trkpt lat="45.2260238269528" lon="7.528420949444025"><ele>419.0</ele><time>2026-04-18T16:50:00Z</time></trkpt><trkpt lat="45.2261131645009" lon="7.528630840141293"><ele>419.0</ele><time>2026-04-18T16:50:01Z</time></trkpt><trkpt lat="45.22619685273468" lon="7.528819268867794"><ele>419.0</ele><time>2026-04-18T16:50:02Z</time></trkpt><trkpt lat="45.226277767640205" lon="7.528999031775436"><ele>419.0</ele><time>2026-04-18T16:50:03Z</time></trkpt><trkpt lat="45.226336755837345" lon="7.529160445630349"><ele>419.0</ele><time>2026-04-18T16:50:04Z</time></trkpt><trkpt lat="45.226388158097365" lon="7.529298372354326"><ele>419.0</ele><time>2026-04-18T16:50:05Z</time></trkpt><trkpt lat="45.226433603705715" lon="7.5294095761761985"><ele>419.0</ele><time>2026-04-18T16:50:06Z</time></trkpt><trkpt lat="45.22646965129234" lon="7.529491714928374"><ele>419.0</ele><time>2026-04-18T16:50:07Z</time></trkpt><trkpt lat="45.22651529946439" lon="7.529596988953036"><ele>419.0</ele><time>2026-04-18T16:50:09Z</time></trkpt><trkpt lat="45.226583586858446" lon="7.529703466293585"><ele>419.0</ele><time>2026-04-18T16:50:59Z</time></trkpt><trkpt lat="45.226750844794026" lon="7.529659130483599"><ele>419.0</ele><time>2026-04-18T16:51:01Z</time></trkpt><trkpt lat="45.22683965544942" lon="7.529604883869297"><ele>418.5</ele><time>2026-04-18T16:51:02Z</time></trkpt><trkpt lat="45.22695371673147" lon="7.529520506900104"><ele>418.0</ele><time>2026-04-18T16:51:03Z</time></trkpt><trkpt lat="45.22707417460971" lon="7.529423118533437"><ele>417.5</ele><time>2026-04-18T16:51:04Z</time></trkpt><trkpt lat="45.22720870940142" lon="7.529315358760194"><ele>417.0</ele><time>2026-04-18T16:51:05Z</time></trkpt><trkpt lat="45.22735127853611" lon="7.52919276761026"><ele>416.66666666666663</ele><time>2026-04-18T16:51:06Z</time></trkpt><trkpt lat="45.227509972222634" lon="7.529066183002532"><ele>416.3333333333333</ele><time>2026-04-18T16:51:07Z</time></trkpt><trkpt lat="45.227669401147715" lon="7.528938849738521"><ele>416.0</ele><time>2026-04-18T16:51:08Z</time></trkpt><trkpt lat="45.22783894439648" lon="7.528804170648986"><ele>416.66666666666663</ele><time>2026-04-18T16:51:09Z</time></trkpt><trkpt lat="45.22801789600225" lon="7.528669666477523"><ele>417.33333333333337</ele><time>2026-04-18T16:51:10Z</time></trkpt><trkpt lat="45.228204724702735" lon="7.528533633743077"><ele>418.0</ele><time>2026-04-18T16:51:11Z</time></trkpt><trkpt lat="45.228392213816605" lon="7.528393294319225"><ele>418.6666666666667</ele><time>2026-04-18T16:51:12Z</time></trkpt><trkpt lat="45.22858181428649" lon="7.528254436515297"><ele>419.33333333333337</ele><time>2026-04-18T16:51:13Z</time></trkpt><trkpt lat="45.22877032539446" lon="7.528113350142028"><ele>420.0</ele><time>2026-04-18T16:51:14Z</time></trkpt><trkpt lat="45.22895671011974" lon="7.527971874294489"><ele>419.33333333333337</ele><time>2026-04-18T16:51:15Z</time></trkpt><trkpt lat="45.229145144565464" lon="7.527820852454206"><ele>418.6666666666667</ele><time>2026-04-18T16:51:16Z</time></trkpt><trkpt lat="45.22933132291446" lon="7.5276641661496155"><ele>418.0</ele><time>2026-04-18T16:51:17Z</time></trkpt><trkpt lat="45.22952013344669" lon="7.52750539623233"><ele>418.0</ele><time>2026-04-18T16:51:18Z</time></trkpt><trkpt lat="45.22971185734789" lon="7.527345657682395"><ele>418.0</ele><time>2026-04-18T16:51:19Z</time></trkpt><trkpt lat="45.229906277212734" lon="7.527189490148664"><ele>418.0</ele><time>2026-04-18T16:51:20Z</time></trkpt><trkpt lat="45.230105190861934" lon="7.527012833726053"><ele>419.6666666666667</ele><time>2026-04-18T16:51:21Z</time></trkpt><trkpt lat="45.23029560004922" lon="7.5268473197356895"><ele>421.33333333333337</ele><time>2026-04-18T16:51:22Z</time></trkpt><trkpt lat="45.23048700936738" lon="7.526687852981127"><ele>423.0</ele><time>2026-04-18T16:51:23Z</time></trkpt><trkpt lat="45.230680088689795" lon="7.526544283478568"><ele>424.33333333333337</ele><time>2026-04-18T16:51:24Z</time></trkpt><trkpt lat="45.230865820034964" lon="7.5263946679311715"><ele>425.6666666666667</ele><time>2026-04-18T16:51:25Z</time></trkpt><trkpt lat="45.231064213729184" lon="7.52622323722591"><ele>427.0</ele><time>2026-04-18T16:51:26Z</time></trkpt><trkpt lat="45.23126683254847" lon="7.526071785634057"><ele>419.5</ele><time>2026-04-18T16:51:27Z</time></trkpt><trkpt lat="45.23147566954386" lon="7.525919763083893"><ele>412.0</ele><time>2026-04-18T16:51:28Z</time></trkpt><trkpt lat="45.231687678875716" lon="7.5257729844145835"><ele>412.0</ele><time>2026-04-18T16:51:29Z</time></trkpt><trkpt lat="45.231895742014466" lon="7.525619130409836"><ele>412.0</ele><time>2026-04-18T16:51:30Z</time></trkpt><trkpt lat="45.2321068293988" lon="7.525450069548423"><ele>413.5</ele><time>2026-04-18T16:51:31Z</time></trkpt><trkpt lat="45.232314213844674" lon="7.525269755653012"><ele>415.0</ele><time>2026-04-18T16:51:32Z</time></trkpt><trkpt lat="45.232522652402245" lon="7.525070154386914"><ele>415.0</ele><time>2026-04-18T16:51:33Z</time></trkpt><trkpt lat="45.23273415108355" lon="7.524878796883846"><ele>415.0</ele><time>2026-04-18T16:51:34Z</time></trkpt><trkpt lat="45.23295416896064" lon="7.524701115838809"><ele>415.5</ele><time>2026-04-18T16:51:35Z</time></trkpt><trkpt lat="45.233181782118905" lon="7.524512951041383"><ele>416.0</ele><time>2026-04-18T16:51:36Z</time></trkpt><trkpt lat="45.233411612940806" lon="7.524320965895975"><ele>416.0</ele><time>2026-04-18T16:51:37Z</time></trkpt><trkpt lat="45.23364289539168" lon="7.524134290899605"><ele>416.0</ele><time>2026-04-18T16:51:38Z</time></trkpt><trkpt lat="45.233868159056556" lon="7.523948213173128"><ele>419.5</ele><time>2026-04-18T16:51:39Z</time></trkpt><trkpt lat="45.23409469690552" lon="7.523767752175569"><ele>423.0</ele><time>2026-04-18T16:51:40Z</time></trkpt><trkpt lat="45.23432044921119" lon="7.523584057998596"><ele>423.0</ele><time>2026-04-18T16:51:41Z</time></trkpt><trkpt lat="45.234537753687476" lon="7.523396894184287"><ele>423.0</ele><time>2026-04-18T16:51:42Z</time></trkpt><trkpt lat="45.234759669039974" lon="7.523207618674442"><ele>424.5</ele><time>2026-04-18T16:51:43Z</time></trkpt><trkpt lat="45.23498122317227" lon="7.5230167384131175"><ele>426.0</ele><time>2026-04-18T16:51:44Z</time></trkpt><trkpt lat="45.23519805641339" lon="7.522833609119168"><ele>426.0</ele><time>2026-04-18T16:51:45Z</time></trkpt><trkpt lat="45.23541588186928" lon="7.522651931686961"><ele>426.0</ele><time>2026-04-18T16:51:46Z</time></trkpt><trkpt lat="45.235632963644726" lon="7.522469488171406"><ele>418.5</ele><time>2026-04-18T16:51:47Z</time></trkpt><trkpt lat="45.23584951463795" lon="7.522296589288893"><ele>411.0</ele><time>2026-04-18T16:51:48Z</time></trkpt><trkpt lat="45.23606574820847" lon="7.522115346089854"><ele>414.0</ele><time>2026-04-18T16:51:49Z</time></trkpt><trkpt lat="45.23627949122012" lon="7.521934476094997"><ele>417.0</ele><time>2026-04-18T16:51:50Z</time></trkpt><trkpt lat="45.2364974178782" lon="7.521754290219592"><ele>417.0</ele><time>2026-04-18T16:51:51Z</time></trkpt><trkpt lat="45.236712782712" lon="7.521573891989284"><ele>417.0</ele><time>2026-04-18T16:51:52Z</time></trkpt><trkpt lat="45.23692929125707" lon="7.521389236531927"><ele>416.5</ele><time>2026-04-18T16:51:53Z</time></trkpt><trkpt lat="45.23714783523123" lon="7.521204271851486"><ele>416.0</ele><time>2026-04-18T16:51:54Z</time></trkpt><trkpt lat="45.23736342293336" lon="7.521020889807171"><ele>416.0</ele><time>2026-04-18T16:51:55Z</time></trkpt><trkpt lat="45.23758287922102" lon="7.520839446541137"><ele>416.0</ele><time>2026-04-18T16:51:56Z</time></trkpt><trkpt lat="45.23779883236013" lon="7.520662864799941"><ele>416.0</ele><time>2026-04-18T16:51:57Z</time></trkpt><trkpt lat="45.23801560959997" lon="7.520482754070164"><ele>416.0</ele><time>2026-04-18T16:51:58Z</time></trkpt><trkpt lat="45.23822566210565" lon="7.520300691059601"><ele>416.5</ele><time>2026-04-18T16:51:59Z</time></trkpt><trkpt lat="45.23843574438937" lon="7.520126548458586"><ele>417.0</ele><time>2026-04-18T16:52:00Z</time></trkpt><trkpt lat="45.2386422746" lon="7.519952563914938"><ele>417.0</ele><time>2026-04-18T16:52:01Z</time></trkpt><trkpt lat="45.23884409191066" lon="7.5197769083671355"><ele>417.0</ele><time>2026-04-18T16:52:02Z</time></trkpt><trkpt lat="45.239047243567995" lon="7.519605712814495"><ele>417.5</ele><time>2026-04-18T16:52:03Z</time></trkpt><trkpt lat="45.239240711783616" lon="7.519442067948622"><ele>418.0</ele><time>2026-04-18T16:52:04Z</time></trkpt><trkpt lat="45.23943837422491" lon="7.519278108020572"><ele>418.0</ele><time>2026-04-18T16:52:05Z</time></trkpt><trkpt lat="45.23963100663331" lon="7.5191176214690945"><ele>418.0</ele><time>2026-04-18T16:52:06Z</time></trkpt><trkpt lat="45.23981950636305" lon="7.5189558454123535"><ele>418.0</ele><time>2026-04-18T16:52:07Z</time></trkpt><trkpt lat="45.240006001320424" lon="7.518790731408318"><ele>417.6666666666667</ele><time>2026-04-18T16:52:08Z</time></trkpt><trkpt lat="45.24018394084144" lon="7.518634974322403"><ele>417.33333333333337</ele><time>2026-04-18T16:52:09Z</time></trkpt><trkpt lat="45.240351285253645" lon="7.518487071463753"><ele>417.0</ele><time>2026-04-18T16:52:10Z</time></trkpt><trkpt lat="45.24051370200746" lon="7.518344672617101"><ele>415.66666666666663</ele><time>2026-04-18T16:52:11Z</time></trkpt><trkpt lat="45.24067436142328" lon="7.518215594543346"><ele>414.3333333333333</ele><time>2026-04-18T16:52:12Z</time></trkpt><trkpt lat="45.24082892397329" lon="7.518085229739627"><ele>413.0</ele><time>2026-04-18T16:52:13Z</time></trkpt><trkpt lat="45.240983410238655" lon="7.517948875805593"><ele>413.3333333333333</ele><time>2026-04-18T16:52:14Z</time></trkpt><trkpt lat="45.241155758143286" lon="7.517808422670215"><ele>413.66666666666663</ele><time>2026-04-18T16:52:15Z</time></trkpt><trkpt lat="45.24134053859485" lon="7.51765207916019"><ele>414.0</ele><time>2026-04-18T16:52:16Z</time></trkpt><trkpt lat="45.2415274548279" lon="7.517493830577891"><ele>414.0</ele><time>2026-04-18T16:52:17Z</time></trkpt><trkpt lat="45.241711659496076" lon="7.5173350629103295"><ele>414.0</ele><time>2026-04-18T16:52:18Z</time></trkpt><trkpt lat="45.2418983541512" lon="7.517183710201771"><ele>414.0</ele><time>2026-04-18T16:52:19Z</time></trkpt><trkpt lat="45.242081213516386" lon="7.517043012491379"><ele>414.66666666666663</ele><time>2026-04-18T16:52:20Z</time></trkpt><trkpt lat="45.24225135507805" lon="7.516919150252051"><ele>415.3333333333333</ele><time>2026-04-18T16:52:21Z</time></trkpt><trkpt lat="45.24240854675741" lon="7.516795264926782"><ele>416.0</ele><time>2026-04-18T16:52:22Z</time></trkpt><trkpt lat="45.2425551132997" lon="7.5166832257198894"><ele>416.0</ele><time>2026-04-18T16:52:23Z</time></trkpt><trkpt lat="45.24268194041716" lon="7.516584583681265"><ele>416.0</ele><time>2026-04-18T16:52:24Z</time></trkpt><trkpt lat="45.242789732361345" lon="7.516504565238252"><ele>416.0</ele><time>2026-04-18T16:52:25Z</time></trkpt><trkpt lat="45.242893483699774" lon="7.5164205433426226"><ele>416.0</ele><time>2026-04-18T16:52:26Z</time></trkpt><trkpt lat="45.24299240842852" lon="7.516337922625302"><ele>416.0</ele><time>2026-04-18T16:52:27Z</time></trkpt><trkpt lat="45.24307646682577" lon="7.516268501001135"><ele>416.0</ele><time>2026-04-18T16:52:28Z</time></trkpt><trkpt lat="45.243154640144354" lon="7.516203052348826"><ele>416.0</ele><time>2026-04-18T16:52:29Z</time></trkpt><trkpt lat="45.24321951747475" lon="7.516151491414713"><ele>416.0</ele><time>2026-04-18T16:52:30Z</time></trkpt><trkpt lat="45.24332100791866" lon="7.516081054549324"><ele>416.0</ele><time>2026-04-18T16:52:32Z</time></trkpt><trkpt lat="45.24345028695695" lon="7.516068208100824"><ele>415.99999999999994</ele><time>2026-04-18T16:52:34Z</time></trkpt><trkpt lat="45.24352551128698" lon="7.516083567656729"><ele>416.0</ele><time>2026-04-18T16:52:35Z</time></trkpt><trkpt lat="45.24359529434054" lon="7.516063528330411"><ele>416.0</ele><time>2026-04-18T16:52:36Z</time></trkpt><trkpt lat="45.24365750133741" lon="7.516009257348917"><ele>416.0</ele><time>2026-04-18T16:52:37Z</time></trkpt><trkpt lat="45.24370483628831" lon="7.5159156183922144"><ele>415.99999999999994</ele><time>2026-04-18T16:52:38Z</time></trkpt><trkpt lat="45.24374092499272" lon="7.5158068340542705"><ele>416.0</ele><time>2026-04-18T16:52:39Z</time></trkpt><trkpt lat="45.2437879004944" lon="7.515716315557025"><ele>416.0</ele><time>2026-04-18T16:52:40Z</time></trkpt><trkpt lat="45.24385972160476" lon="7.515645603900415"><ele>416.0</ele><time>2026-04-18T16:52:41Z</time></trkpt><trkpt lat="45.24394610492077" lon="7.515580127005652"><ele>416.0</ele><time>2026-04-18T16:52:42Z</time></trkpt><trkpt lat="45.24402944746335" lon="7.515511288267947"><ele>416.0</ele><time>2026-04-18T16:52:43Z</time></trkpt><trkpt lat="45.244108443171044" lon="7.515441314574228"><ele>416.0</ele><time>2026-04-18T16:52:44Z</time></trkpt><trkpt lat="45.244194378448654" lon="7.515369561066392"><ele>417.5</ele><time>2026-04-18T16:52:45Z</time></trkpt><trkpt lat="45.24428298307584" lon="7.515290483096616"><ele>419.0</ele><time>2026-04-18T16:52:46Z</time></trkpt><trkpt lat="45.24438161936917" lon="7.515206032754669"><ele>420.5</ele><time>2026-04-18T16:52:47Z</time></trkpt><trkpt lat="45.24448223989724" lon="7.515121299111539"><ele>422.0</ele><time>2026-04-18T16:52:48Z</time></trkpt><trkpt lat="45.24459524668753" lon="7.5150106814109705"><ele>422.0</ele><time>2026-04-18T16:52:49Z</time></trkpt><trkpt lat="45.24472635937701" lon="7.5148731324916636"><ele>422.0</ele><time>2026-04-18T16:52:50Z</time></trkpt><trkpt lat="45.24489326781419" lon="7.514742928404916"><ele>422.0</ele><time>2026-04-18T16:52:51Z</time></trkpt><trkpt lat="45.2450744740576" lon="7.514576672071798"><ele>424.5</ele><time>2026-04-18T16:52:52Z</time></trkpt><trkpt lat="45.24526334170399" lon="7.51440357306778"><ele>427.0</ele><time>2026-04-18T16:52:53Z</time></trkpt><trkpt lat="45.245446758284295" lon="7.514215085163628"><ele>426.33333333333337</ele><time>2026-04-18T16:52:54Z</time></trkpt><trkpt lat="45.24564198260047" lon="7.5140585992879485"><ele>425.66666666666663</ele><time>2026-04-18T16:52:55Z</time></trkpt><trkpt lat="45.24581678292103" lon="7.513880418688069"><ele>425.0</ele><time>2026-04-18T16:52:56Z</time></trkpt><trkpt lat="45.24599826835586" lon="7.513714268397855"><ele>425.0</ele><time>2026-04-18T16:52:57Z</time></trkpt><trkpt lat="45.24618083343173" lon="7.5135483581608"><ele>425.0</ele><time>2026-04-18T16:52:58Z</time></trkpt><trkpt lat="45.246367462063695" lon="7.513385577419142"><ele>425.0</ele><time>2026-04-18T16:52:59Z</time></trkpt><trkpt lat="45.24654751492863" lon="7.513234264081211"><ele>424.3333333333333</ele><time>2026-04-18T16:53:00Z</time></trkpt><trkpt lat="45.24671600963393" lon="7.5130909917681565"><ele>423.66666666666663</ele><time>2026-04-18T16:53:01Z</time></trkpt><trkpt lat="45.24687075219845" lon="7.512967459272478"><ele>423.0</ele><time>2026-04-18T16:53:02Z</time></trkpt><trkpt lat="45.24701613499522" lon="7.512847862713182"><ele>423.33333333333337</ele><time>2026-04-18T16:53:03Z</time></trkpt><trkpt lat="45.247153593892534" lon="7.5127376035559355"><ele>423.6666666666667</ele><time>2026-04-18T16:53:04Z</time></trkpt><trkpt lat="45.247286467711476" lon="7.512629021875852"><ele>424.0</ele><time>2026-04-18T16:53:05Z</time></trkpt><trkpt lat="45.24742513994012" lon="7.512514770852861"><ele>424.0</ele><time>2026-04-18T16:53:06Z</time></trkpt><trkpt lat="45.24756449119245" lon="7.5123972052435315"><ele>424.0</ele><time>2026-04-18T16:53:07Z</time></trkpt><trkpt lat="45.24771442043061" lon="7.512269223137623"><ele>424.0</ele><time>2026-04-18T16:53:08Z</time></trkpt><trkpt lat="45.2478721477063" lon="7.512134701476235"><ele>425.6666666666667</ele><time>2026-04-18T16:53:09Z</time></trkpt><trkpt lat="45.24802982586081" lon="7.51200228714418"><ele>427.33333333333337</ele><time>2026-04-18T16:53:10Z</time></trkpt><trkpt lat="45.24818426463913" lon="7.511875306600039"><ele>429.0</ele><time>2026-04-18T16:53:11Z</time></trkpt><trkpt lat="45.248336634414606" lon="7.511743923831163"><ele>429.0</ele><time>2026-04-18T16:53:12Z</time></trkpt><trkpt lat="45.24848636044552" lon="7.511616560301652"><ele>429.0</ele><time>2026-04-18T16:53:13Z</time></trkpt><trkpt lat="45.24863632864028" lon="7.51148877890406"><ele>429.0</ele><time>2026-04-18T16:53:14Z</time></trkpt><trkpt lat="45.24878346296985" lon="7.511365574585043"><ele>429.0</ele><time>2026-04-18T16:53:15Z</time></trkpt><trkpt lat="45.248927142701625" lon="7.511239006589716"><ele>429.0</ele><time>2026-04-18T16:53:16Z</time></trkpt><trkpt lat="45.24907529088056" lon="7.511111621855007"><ele>429.0</ele><time>2026-04-18T16:53:17Z</time></trkpt><trkpt lat="45.2492238977425" lon="7.510991131226813"><ele>429.0</ele><time>2026-04-18T16:53:18Z</time></trkpt><trkpt lat="45.249381823293234" lon="7.510862516720355"><ele>429.0</ele><time>2026-04-18T16:53:19Z</time></trkpt><trkpt lat="45.24954058455019" lon="7.510733243631279"><ele>429.0</ele><time>2026-04-18T16:53:20Z</time></trkpt><trkpt lat="45.24970182291855" lon="7.510600373737538"><ele>427.66666666666663</ele><time>2026-04-18T16:53:21Z</time></trkpt><trkpt lat="45.24986027278685" lon="7.510470347354303"><ele>426.3333333333333</ele><time>2026-04-18T16:53:22Z</time></trkpt><trkpt lat="45.250016749148884" lon="7.510338495057286"><ele>425.0</ele><time>2026-04-18T16:53:23Z</time></trkpt><trkpt lat="45.25017588389963" lon="7.510202392826702"><ele>425.0</ele><time>2026-04-18T16:53:24Z</time></trkpt><trkpt lat="45.250336057056124" lon="7.5100664417548115"><ele>425.0</ele><time>2026-04-18T16:53:25Z</time></trkpt><trkpt lat="45.25049490819371" lon="7.50993445934207"><ele>425.0</ele><time>2026-04-18T16:53:26Z</time></trkpt><trkpt lat="45.25065505233024" lon="7.509806564036868"><ele>425.66666666666663</ele><time>2026-04-18T16:53:27Z</time></trkpt><trkpt lat="45.250810142965996" lon="7.509676353746717"><ele>426.33333333333337</ele><time>2026-04-18T16:53:28Z</time></trkpt><trkpt lat="45.250963627638974" lon="7.509546900659889"><ele>427.0</ele><time>2026-04-18T16:53:29Z</time></trkpt><trkpt lat="45.25111173520368" lon="7.509416585691402"><ele>427.0</ele><time>2026-04-18T16:53:30Z</time></trkpt><trkpt lat="45.25125716678585" lon="7.509289633084996"><ele>427.0</ele><time>2026-04-18T16:53:31Z</time></trkpt><trkpt lat="45.25140861132627" lon="7.50915588958823"><ele>427.0</ele><time>2026-04-18T16:53:32Z</time></trkpt><trkpt lat="45.25156287244347" lon="7.509023300937049"><ele>426.0</ele><time>2026-04-18T16:53:33Z</time></trkpt><trkpt lat="45.25172146389436" lon="7.508892848078672"><ele>425.0</ele><time>2026-04-18T16:53:34Z</time></trkpt><trkpt lat="45.251879366053586" lon="7.508763806400685"><ele>424.0</ele><time>2026-04-18T16:53:35Z</time></trkpt><trkpt lat="45.25203986771583" lon="7.508630670313131"><ele>424.6666666666667</ele><time>2026-04-18T16:53:36Z</time></trkpt><trkpt lat="45.2522052555208" lon="7.508494952771092"><ele>425.33333333333337</ele><time>2026-04-18T16:53:37Z</time></trkpt><trkpt lat="45.2523728060879" lon="7.508352548432543"><ele>426.0</ele><time>2026-04-18T16:53:38Z</time></trkpt><trkpt lat="45.25254356469326" lon="7.508211902689715"><ele>426.0</ele><time>2026-04-18T16:53:39Z</time></trkpt><trkpt lat="45.25271412846384" lon="7.508071035215564"><ele>426.0</ele><time>2026-04-18T16:53:40Z</time></trkpt><trkpt lat="45.25288117203304" lon="7.5079293663934985"><ele>426.0</ele><time>2026-04-18T16:53:41Z</time></trkpt><trkpt lat="45.25305002909273" lon="7.507790730524599"><ele>426.66666666666663</ele><time>2026-04-18T16:53:42Z</time></trkpt><trkpt lat="45.25321976634193" lon="7.5076508396048895"><ele>427.3333333333333</ele><time>2026-04-18T16:53:43Z</time></trkpt><trkpt lat="45.25338703160198" lon="7.507508887825298"><ele>428.0</ele><time>2026-04-18T16:53:44Z</time></trkpt><trkpt lat="45.25355191322719" lon="7.507371624521931"><ele>428.0</ele><time>2026-04-18T16:53:45Z</time></trkpt><trkpt lat="45.25371692138222" lon="7.507235738755065"><ele>428.0</ele><time>2026-04-18T16:53:46Z</time></trkpt><trkpt lat="45.25387927030467" lon="7.507095214691651"><ele>428.0</ele><time>2026-04-18T16:53:47Z</time></trkpt><trkpt lat="45.25404714524387" lon="7.506948404805536"><ele>428.0</ele><time>2026-04-18T16:53:48Z</time></trkpt><trkpt lat="45.25421604312393" lon="7.5068070032485155"><ele>428.0</ele><time>2026-04-18T16:53:49Z</time></trkpt><trkpt lat="45.25438322552933" lon="7.50666595569964"><ele>428.0</ele><time>2026-04-18T16:53:50Z</time></trkpt><trkpt lat="45.25455319894773" lon="7.506518865592441"><ele>428.0</ele><time>2026-04-18T16:53:51Z</time></trkpt><trkpt lat="45.25472275336257" lon="7.5063736344470895"><ele>428.0</ele><time>2026-04-18T16:53:52Z</time></trkpt><trkpt lat="45.254892223268186" lon="7.506228312985297"><ele>428.0</ele><time>2026-04-18T16:53:53Z</time></trkpt><trkpt lat="45.25506378120837" lon="7.506084823894688"><ele>430.3333333333333</ele><time>2026-04-18T16:53:54Z</time></trkpt><trkpt lat="45.25523229867702" lon="7.505939373308001"><ele>432.66666666666663</ele><time>2026-04-18T16:53:55Z</time></trkpt><trkpt lat="45.25539777727267" lon="7.505793367126195"><ele>435.0</ele><time>2026-04-18T16:53:56Z</time></trkpt><trkpt lat="45.2555690840646" lon="7.505651684430544"><ele>434.0</ele><time>2026-04-18T16:53:57Z</time></trkpt><trkpt lat="45.25574140651282" lon="7.505503051631794"><ele>433.0</ele><time>2026-04-18T16:53:58Z</time></trkpt><trkpt lat="45.25591163347343" lon="7.505360516032373"><ele>432.0</ele><time>2026-04-18T16:53:59Z</time></trkpt><trkpt lat="45.25607797104752" lon="7.505229209113735"><ele>435.0</ele><time>2026-04-18T16:54:00Z</time></trkpt><trkpt lat="45.25624195600153" lon="7.505119375104632"><ele>438.0</ele><time>2026-04-18T16:54:01Z</time></trkpt><trkpt lat="45.256414001130295" lon="7.50503629454145"><ele>441.0</ele><time>2026-04-18T16:54:02Z</time></trkpt><trkpt lat="45.25658472717154" lon="7.504976135086571"><ele>441.0</ele><time>2026-04-18T16:54:03Z</time></trkpt><trkpt lat="45.256761061895666" lon="7.504943568849547"><ele>441.0</ele><time>2026-04-18T16:54:04Z</time></trkpt><trkpt lat="45.256941130892216" lon="7.504935402424607"><ele>441.0</ele><time>2026-04-18T16:54:05Z</time></trkpt><trkpt lat="45.25711558072145" lon="7.504944620948215"><ele>439.33333333333337</ele><time>2026-04-18T16:54:06Z</time></trkpt><trkpt lat="45.257290619179734" lon="7.5049701087613885"><ele>437.6666666666667</ele><time>2026-04-18T16:54:07Z</time></trkpt><trkpt lat="45.257467898790566" lon="7.505004909860622"><ele>436.0</ele><time>2026-04-18T16:54:08Z</time></trkpt><trkpt lat="45.257629414174325" lon="7.505022880542995"><ele>436.0</ele><time>2026-04-18T16:54:09Z</time></trkpt><trkpt lat="45.25778288977299" lon="7.505018077085218"><ele>436.0</ele><time>2026-04-18T16:54:10Z</time></trkpt><trkpt lat="45.25794696676628" lon="7.50495504975882"><ele>436.0</ele><time>2026-04-18T16:54:11Z</time></trkpt><trkpt lat="45.25811527657818" lon="7.504869248075406"><ele>434.0</ele><time>2026-04-18T16:54:12Z</time></trkpt><trkpt lat="45.25828231464745" lon="7.504772872409506"><ele>432.0</ele><time>2026-04-18T16:54:13Z</time></trkpt><trkpt lat="45.258455113775014" lon="7.5046776708211"><ele>430.0</ele><time>2026-04-18T16:54:14Z</time></trkpt><trkpt lat="45.25863888256234" lon="7.504597399873146"><ele>430.6666666666667</ele><time>2026-04-18T16:54:15Z</time></trkpt><trkpt lat="45.25882852566187" lon="7.504543191552339"><ele>431.33333333333337</ele><time>2026-04-18T16:54:16Z</time></trkpt><trkpt lat="45.259018531767396" lon="7.5045027589332785"><ele>432.0</ele><time>2026-04-18T16:54:17Z</time></trkpt><trkpt lat="45.259207532901435" lon="7.504474974967772"><ele>432.0</ele><time>2026-04-18T16:54:18Z</time></trkpt><trkpt lat="45.2593975671124" lon="7.504442196514458"><ele>432.0</ele><time>2026-04-18T16:54:19Z</time></trkpt><trkpt lat="45.25958292151548" lon="7.504403206193447"><ele>432.0</ele><time>2026-04-18T16:54:20Z</time></trkpt><trkpt lat="45.259766261301564" lon="7.504349562717289"><ele>431.33333333333337</ele><time>2026-04-18T16:54:21Z</time></trkpt><trkpt lat="45.25994100163526" lon="7.5042743280319435"><ele>430.6666666666667</ele><time>2026-04-18T16:54:22Z</time></trkpt><trkpt lat="45.26011351149885" lon="7.504173872254395"><ele>430.0</ele><time>2026-04-18T16:54:23Z</time></trkpt><trkpt lat="45.260283294364825" lon="7.504056664424972"><ele>430.0</ele><time>2026-04-18T16:54:24Z</time></trkpt><trkpt lat="45.26044869525" lon="7.503921852698574"><ele>430.0</ele><time>2026-04-18T16:54:25Z</time></trkpt><trkpt lat="45.26061027720567" lon="7.503763792822221"><ele>430.0</ele><time>2026-04-18T16:54:26Z</time></trkpt><trkpt lat="45.26076911110826" lon="7.503595011531459"><ele>430.33333333333337</ele><time>2026-04-18T16:54:27Z</time></trkpt><trkpt lat="45.26091991350037" lon="7.503407788701541"><ele>430.66666666666663</ele><time>2026-04-18T16:54:28Z</time></trkpt><trkpt lat="45.26106027646007" lon="7.503209274165538"><ele>431.0</ele><time>2026-04-18T16:54:29Z</time></trkpt><trkpt lat="45.26120345830207" lon="7.502998646838516"><ele>432.0</ele><time>2026-04-18T16:54:30Z</time></trkpt><trkpt lat="45.26135455402233" lon="7.502773006079691"><ele>433.0</ele><time>2026-04-18T16:54:31Z</time></trkpt><trkpt lat="45.26152841472014" lon="7.502556338506495"><ele>433.0</ele><time>2026-04-18T16:54:32Z</time></trkpt><trkpt lat="45.26171021134399" lon="7.502303831345951"><ele>433.0</ele><time>2026-04-18T16:54:33Z</time></trkpt><trkpt lat="45.261902599226595" lon="7.502041605922887"><ele>433.5</ele><time>2026-04-18T16:54:34Z</time></trkpt><trkpt lat="45.262106348485396" lon="7.501762619016626"><ele>434.0</ele><time>2026-04-18T16:54:35Z</time></trkpt><trkpt lat="45.262303306591484" lon="7.501489238803729"><ele>436.5</ele><time>2026-04-18T16:54:36Z</time></trkpt><trkpt lat="45.262479155896074" lon="7.501213434630992"><ele>439.0</ele><time>2026-04-18T16:54:37Z</time></trkpt><trkpt lat="45.26266459298174" lon="7.500971691375795"><ele>439.0</ele><time>2026-04-18T16:54:38Z</time></trkpt><trkpt lat="45.26284199256247" lon="7.5007351595398175"><ele>439.0</ele><time>2026-04-18T16:54:39Z</time></trkpt><trkpt lat="45.26300831897376" lon="7.5005056201981875"><ele>439.5</ele><time>2026-04-18T16:54:40Z</time></trkpt><trkpt lat="45.26316939280767" lon="7.500282312043444"><ele>440.0</ele><time>2026-04-18T16:54:41Z</time></trkpt><trkpt lat="45.26332945319069" lon="7.500058704942126"><ele>440.0</ele><time>2026-04-18T16:54:42Z</time></trkpt><trkpt lat="45.2634864662566" lon="7.499849008573243"><ele>440.0</ele><time>2026-04-18T16:54:43Z</time></trkpt><trkpt lat="45.26363708734919" lon="7.4996641742748045"><ele>440.0</ele><time>2026-04-18T16:54:44Z</time></trkpt><trkpt lat="45.26378760630831" lon="7.499487017879838"><ele>439.66666666666663</ele><time>2026-04-18T16:54:45Z</time></trkpt><trkpt lat="45.2639510772311" lon="7.499323887973172"><ele>439.33333333333337</ele><time>2026-04-18T16:54:46Z</time></trkpt><trkpt lat="45.26411540022406" lon="7.499166534032457"><ele>439.0</ele><time>2026-04-18T16:54:47Z</time></trkpt><trkpt lat="45.26428551030829" lon="7.499020122575811"><ele>439.0</ele><time>2026-04-18T16:54:48Z</time></trkpt><trkpt lat="45.26445018916383" lon="7.498885946967148"><ele>439.0</ele><time>2026-04-18T16:54:49Z</time></trkpt><trkpt lat="45.26461905108829" lon="7.498766164054831"><ele>439.0</ele><time>2026-04-18T16:54:50Z</time></trkpt><trkpt lat="45.264784608007446" lon="7.4986578828336246"><ele>438.33333333333337</ele><time>2026-04-18T16:54:51Z</time></trkpt><trkpt lat="45.26494846903503" lon="7.498549305380386"><ele>437.66666666666663</ele><time>2026-04-18T16:54:52Z</time></trkpt><trkpt lat="45.26510664086778" lon="7.498420059620565"><ele>437.0</ele><time>2026-04-18T16:54:53Z</time></trkpt><trkpt lat="45.265267965661884" lon="7.498282946218613"><ele>437.0</ele><time>2026-04-18T16:54:54Z</time></trkpt><trkpt lat="45.265426446768366" lon="7.498123255632133"><ele>437.0</ele><time>2026-04-18T16:54:55Z</time></trkpt><trkpt lat="45.26558276646912" lon="7.497954626057439"><ele>437.0</ele><time>2026-04-18T16:54:56Z</time></trkpt><trkpt lat="45.26573509461163" lon="7.497763171247525"><ele>437.3333333333333</ele><time>2026-04-18T16:54:57Z</time></trkpt><trkpt lat="45.265882424124655" lon="7.4975648168929006"><ele>437.66666666666663</ele><time>2026-04-18T16:54:58Z</time></trkpt><trkpt lat="45.26601993977324" lon="7.497353161613568"><ele>438.0</ele><time>2026-04-18T16:54:59Z</time></trkpt><trkpt lat="45.266148500554706" lon="7.497136436435501"><ele>439.0</ele><time>2026-04-18T16:55:00Z</time></trkpt><trkpt lat="45.266271353709165" lon="7.496923750516555"><ele>440.0</ele><time>2026-04-18T16:55:01Z</time></trkpt><trkpt lat="45.26639193479442" lon="7.496718021268611"><ele>441.0</ele><time>2026-04-18T16:55:02Z</time></trkpt><trkpt lat="45.26650439342499" lon="7.496530497882427"><ele>441.0</ele><time>2026-04-18T16:55:03Z</time></trkpt><trkpt lat="45.266613632915494" lon="7.496333389230562"><ele>441.0</ele><time>2026-04-18T16:55:04Z</time></trkpt><trkpt lat="45.26672214303777" lon="7.496138999070257"><ele>441.0</ele><time>2026-04-18T16:55:05Z</time></trkpt><trkpt lat="45.2668298429011" lon="7.495947646986737"><ele>446.66666666666663</ele><time>2026-04-18T16:55:06Z</time></trkpt><trkpt lat="45.26693092943822" lon="7.49576251487395"><ele>452.3333333333333</ele><time>2026-04-18T16:55:07Z</time></trkpt><trkpt lat="45.267030848078925" lon="7.4955762723324435"><ele>458.0</ele><time>2026-04-18T16:55:08Z</time></trkpt><trkpt lat="45.2671335062514" lon="7.495395538162965"><ele>453.0</ele><time>2026-04-18T16:55:09Z</time></trkpt><trkpt lat="45.2672347680343" lon="7.495198767622792"><ele>448.0</ele><time>2026-04-18T16:55:10Z</time></trkpt><trkpt lat="45.26732707432677" lon="7.494988958349995"><ele>443.0</ele><time>2026-04-18T16:55:11Z</time></trkpt><trkpt lat="45.267412994946035" lon="7.494772649500105"><ele>445.66666666666663</ele><time>2026-04-18T16:55:12Z</time></trkpt><trkpt lat="45.267484546087914" lon="7.494542844483926"><ele>448.33333333333337</ele><time>2026-04-18T16:55:13Z</time></trkpt><trkpt lat="45.26754529245207" lon="7.494302647239609"><ele>451.0</ele><time>2026-04-18T16:55:14Z</time></trkpt><trkpt lat="45.267599064629344" lon="7.494053610162531"><ele>451.0</ele><time>2026-04-18T16:55:15Z</time></trkpt><trkpt lat="45.26764238228061" lon="7.4938006773158685"><ele>451.0</ele><time>2026-04-18T16:55:16Z</time></trkpt><trkpt lat="45.267672101347415" lon="7.4935394335684435"><ele>451.0</ele><time>2026-04-18T16:55:17Z</time></trkpt><trkpt lat="45.267689778579694" lon="7.49329169327402"><ele>451.33333333333337</ele><time>2026-04-18T16:55:18Z</time></trkpt><trkpt lat="45.26770173245971" lon="7.493068242616697"><ele>451.66666666666663</ele><time>2026-04-18T16:55:19Z</time></trkpt><trkpt lat="45.26770140225966" lon="7.492854377028271"><ele>452.0</ele><time>2026-04-18T16:55:20Z</time></trkpt><trkpt lat="45.26769693397195" lon="7.492650330036937"><ele>452.0</ele><time>2026-04-18T16:55:21Z</time></trkpt><trkpt lat="45.26769660537272" lon="7.492448073459584"><ele>452.0</ele><time>2026-04-18T16:55:22Z</time></trkpt><trkpt lat="45.267705495728094" lon="7.492243321468787"><ele>452.0</ele><time>2026-04-18T16:55:23Z</time></trkpt><trkpt lat="45.267721371044246" lon="7.492031437975153"><ele>452.0</ele><time>2026-04-18T16:55:24Z</time></trkpt><trkpt lat="45.26774329361852" lon="7.491827309136965"><ele>451.75</ele><time>2026-04-18T16:55:25Z</time></trkpt><trkpt lat="45.26775973756501" lon="7.491626159882812"><ele>451.5</ele><time>2026-04-18T16:55:26Z</time></trkpt><trkpt lat="45.26775487759935" lon="7.491449336983611"><ele>451.25</ele><time>2026-04-18T16:55:27Z</time></trkpt><trkpt lat="45.26779908714902" lon="7.491258758224562"><ele>451.0</ele><time>2026-04-18T16:55:28Z</time></trkpt><trkpt lat="45.26783683964275" lon="7.491059674995824"><ele>452.25</ele><time>2026-04-18T16:55:29Z</time></trkpt><trkpt lat="45.26788072328934" lon="7.490864710909214"><ele>453.5</ele><time>2026-04-18T16:55:30Z</time></trkpt><trkpt lat="45.26792820811517" lon="7.490666045973134"><ele>454.75</ele><time>2026-04-18T16:55:31Z</time></trkpt><trkpt lat="45.26796822310457" lon="7.490473903165811"><ele>456.0</ele><time>2026-04-18T16:55:32Z</time></trkpt><trkpt lat="45.26799813610236" lon="7.4902648725934045"><ele>457.66666666666663</ele><time>2026-04-18T16:55:33Z</time></trkpt><trkpt lat="45.26802525710742" lon="7.490050308547566"><ele>459.3333333333333</ele><time>2026-04-18T16:55:34Z</time></trkpt><trkpt lat="45.26803983043347" lon="7.489838265721792"><ele>461.0</ele><time>2026-04-18T16:55:35Z</time></trkpt><trkpt lat="45.26804867906313" lon="7.489624880866159"><ele>462.75</ele><time>2026-04-18T16:55:36Z</time></trkpt><trkpt lat="45.268045253028426" lon="7.489411078138277"><ele>464.5</ele><time>2026-04-18T16:55:37Z</time></trkpt><trkpt lat="45.26803007846933" lon="7.48919671223434"><ele>466.25</ele><time>2026-04-18T16:55:38Z</time></trkpt><trkpt lat="45.26801082756976" lon="7.489001367143383"><ele>468.0</ele><time>2026-04-18T16:55:39Z</time></trkpt><trkpt lat="45.267992339003364" lon="7.488806120907398"><ele>469.5</ele><time>2026-04-18T16:55:40Z</time></trkpt><trkpt lat="45.2679745925178" lon="7.488614413707757"><ele>471.0</ele><time>2026-04-18T16:55:41Z</time></trkpt><trkpt lat="45.26795229710457" lon="7.488416971088854"><ele>472.5</ele><time>2026-04-18T16:55:42Z</time></trkpt><trkpt lat="45.267927523385026" lon="7.488222636857879"><ele>474.0</ele><time>2026-04-18T16:55:43Z</time></trkpt><trkpt lat="45.26790957584941" lon="7.488023944948447"><ele>476.25</ele><time>2026-04-18T16:55:44Z</time></trkpt><trkpt lat="45.267903276822615" lon="7.487823891192529"><ele>478.5</ele><time>2026-04-18T16:55:45Z</time></trkpt><trkpt lat="45.26791475139731" lon="7.48762205846031"><ele>480.75</ele><time>2026-04-18T16:55:46Z</time></trkpt><trkpt lat="45.26792432461962" lon="7.487419149791092"><ele>483.0</ele><time>2026-04-18T16:55:47Z</time></trkpt><trkpt lat="45.26792403511924" lon="7.487221880303005"><ele>485.75</ele><time>2026-04-18T16:55:48Z</time></trkpt><trkpt lat="45.26792185346652" lon="7.487038537062379"><ele>488.5</ele><time>2026-04-18T16:55:49Z</time></trkpt><trkpt lat="45.26792585619421" lon="7.486862561273342"><ele>491.25</ele><time>2026-04-18T16:55:50Z</time></trkpt><trkpt lat="45.2679458711338" lon="7.486686930287548"><ele>494.0</ele><time>2026-04-18T16:55:51Z</time></trkpt><trkpt lat="45.26798240014454" lon="7.486522992676086"><ele>494.0</ele><time>2026-04-18T16:55:52Z</time></trkpt><trkpt lat="45.268039777794" lon="7.486382485749957"><ele>494.0</ele><time>2026-04-18T16:55:53Z</time></trkpt><trkpt lat="45.26810705530075" lon="7.48625844141037"><ele>494.0</ele><time>2026-04-18T16:55:54Z</time></trkpt><trkpt lat="45.26819286571163" lon="7.4861561500226985"><ele>494.0</ele><time>2026-04-18T16:55:55Z</time></trkpt><trkpt lat="45.26829680474436" lon="7.486076214548582"><ele>484.0</ele><time>2026-04-18T16:55:56Z</time></trkpt><trkpt lat="45.26840578768878" lon="7.486026740873657"><ele>474.0</ele><time>2026-04-18T16:55:57Z</time></trkpt><trkpt lat="45.268520130324085" lon="7.486001528469926"><ele>464.0</ele><time>2026-04-18T16:55:58Z</time></trkpt><trkpt lat="45.26864094083812" lon="7.4859874740862695"><ele>454.0</ele><time>2026-04-18T16:55:59Z</time></trkpt><trkpt lat="45.26876455011942" lon="7.485968726468319"><ele>454.0</ele><time>2026-04-18T16:56:00Z</time></trkpt><trkpt lat="45.26888884703201" lon="7.485945488498158"><ele>454.0</ele><time>2026-04-18T16:56:01Z</time></trkpt><trkpt lat="45.26901803530376" lon="7.4859234463780275"><ele>454.0</ele><time>2026-04-18T16:56:02Z</time></trkpt><trkpt lat="45.269150962474185" lon="7.4858963331229615"><ele>454.0</ele><time>2026-04-18T16:56:03Z</time></trkpt><trkpt lat="45.26927072537053" lon="7.485861773436649"><ele>455.0</ele><time>2026-04-18T16:56:04Z</time></trkpt><trkpt lat="45.269396978149715" lon="7.485838655265574"><ele>456.0</ele><time>2026-04-18T16:56:05Z</time></trkpt><trkpt lat="45.26952540758224" lon="7.4858194682558725"><ele>457.0</ele><time>2026-04-18T16:56:06Z</time></trkpt><trkpt lat="45.269651383594955" lon="7.485793680004232"><ele>458.0</ele><time>2026-04-18T16:56:07Z</time></trkpt><trkpt lat="45.26977936250996" lon="7.485771243681079"><ele>458.0</ele><time>2026-04-18T16:56:08Z</time></trkpt><trkpt lat="45.269908007365906" lon="7.485744822539658"><ele>458.0</ele><time>2026-04-18T16:56:09Z</time></trkpt><trkpt lat="45.27003561104804" lon="7.485725655134882"><ele>458.0</ele><time>2026-04-18T16:56:10Z</time></trkpt><trkpt lat="45.27016820322487" lon="7.485703395169676"><ele>458.0</ele><time>2026-04-18T16:56:11Z</time></trkpt><trkpt lat="45.27030022121902" lon="7.485680750041467"><ele>458.0</ele><time>2026-04-18T16:56:12Z</time></trkpt><trkpt lat="45.270430728951474" lon="7.485651180905712"><ele>458.0</ele><time>2026-04-18T16:56:13Z</time></trkpt><trkpt lat="45.270557618579446" lon="7.4856278170910056"><ele>458.0</ele><time>2026-04-18T16:56:14Z</time></trkpt><trkpt lat="45.27066941655594" lon="7.485617191494088"><ele>458.0</ele><time>2026-04-18T16:56:15Z</time></trkpt><trkpt lat="45.27079187589386" lon="7.485588408062974"><ele>458.4</ele><time>2026-04-18T16:56:16Z</time></trkpt><trkpt lat="45.270917832852774" lon="7.485556647796567"><ele>458.79999999999995</ele><time>2026-04-18T16:56:17Z</time></trkpt><trkpt lat="45.271034744814244" lon="7.4855280103737485"><ele>459.2</ele><time>2026-04-18T16:56:18Z</time></trkpt><trkpt lat="45.27113487247368" lon="7.485506449503519"><ele>459.6</ele><time>2026-04-18T16:56:19Z</time></trkpt><trkpt lat="45.27121436243359" lon="7.4854854181377934"><ele>460.0</ele><time>2026-04-18T16:56:20Z</time></trkpt><trkpt lat="45.27128793248295" lon="7.485471833093653"><ele>460.00000000000006</ele><time>2026-04-18T16:56:21Z</time></trkpt><trkpt lat="45.27139039203533" lon="7.485452956399736"><ele>460.0</ele><time>2026-04-18T16:56:23Z</time></trkpt><trkpt lat="45.271469272888964" lon="7.485425124405699"><ele>460.0</ele><time>2026-04-18T16:56:25Z</time></trkpt><trkpt lat="45.27153162934091" lon="7.485400267274214"><ele>460.0</ele><time>2026-04-18T16:56:27Z</time></trkpt><trkpt lat="45.271605258375956" lon="7.48539710834444"><ele>460.00000000000006</ele><time>2026-04-18T16:56:29Z</time></trkpt><trkpt lat="45.271669875087724" lon="7.485390622900927"><ele>460.0</ele><time>2026-04-18T16:56:32Z</time></trkpt><trkpt lat="45.27176591299745" lon="7.485424084339124"><ele>461.0</ele><time>2026-04-18T16:56:34Z</time></trkpt><trkpt lat="45.271839424685425" lon="7.485510239494297"><ele>462.0</ele><time>2026-04-18T16:56:36Z</time></trkpt><trkpt lat="45.27191743677733" lon="7.485599785248358"><ele>463.0</ele><time>2026-04-18T16:56:38Z</time></trkpt><trkpt lat="45.272008864144695" lon="7.485571760518422"><ele>464.0</ele><time>2026-04-18T16:56:40Z</time></trkpt><trkpt lat="45.2720666437057" lon="7.485407916015731"><ele>465.0</ele><time>2026-04-18T16:56:42Z</time></trkpt><trkpt lat="45.27201828979062" lon="7.48531564088481"><ele>465.0</ele><time>2026-04-18T16:56:43Z</time></trkpt><trkpt lat="45.27193419998401" lon="7.485270008556719"><ele>465.0</ele><time>2026-04-18T16:56:44Z</time></trkpt><trkpt lat="45.27187734142385" lon="7.485187622009189"><ele>465.0</ele><time>2026-04-18T16:56:45Z</time></trkpt><trkpt lat="45.27182619093821" lon="7.4850839511296865"><ele>465.0</ele><time>2026-04-18T16:56:46Z</time></trkpt><trkpt lat="45.271803808824274" lon="7.484958473251825"><ele>465.0</ele><time>2026-04-18T16:56:47Z</time></trkpt><trkpt lat="45.2717958143513" lon="7.484807218510044"><ele>465.0</ele><time>2026-04-18T16:56:48Z</time></trkpt><trkpt lat="45.27178832693482" lon="7.484620894230319"><ele>465.0</ele><time>2026-04-18T16:56:49Z</time></trkpt><trkpt lat="45.27177189200302" lon="7.484416549239661"><ele>465.0</ele><time>2026-04-18T16:56:50Z</time></trkpt><trkpt lat="45.271748853172426" lon="7.484210578602546"><ele>465.0</ele><time>2026-04-18T16:56:51Z</time></trkpt><trkpt lat="45.27172158276293" lon="7.483994146452738"><ele>465.33333333333337</ele><time>2026-04-18T16:56:52Z</time></trkpt><trkpt lat="45.27169827563776" lon="7.4837669034726515"><ele>465.6666666666667</ele><time>2026-04-18T16:56:53Z</time></trkpt><trkpt lat="45.27167431767324" lon="7.483539829193432"><ele>466.0</ele><time>2026-04-18T16:56:54Z</time></trkpt><trkpt lat="45.27164955924466" lon="7.483314856433118"><ele>465.0</ele><time>2026-04-18T16:56:55Z</time></trkpt><trkpt lat="45.27162067510982" lon="7.483097690091922"><ele>464.0</ele><time>2026-04-18T16:56:56Z</time></trkpt><trkpt lat="45.271584549990834" lon="7.48288805370167"><ele>463.0</ele><time>2026-04-18T16:56:57Z</time></trkpt><trkpt lat="45.271542729001304" lon="7.482691730285925"><ele>462.59999999999997</ele><time>2026-04-18T16:56:58Z</time></trkpt><trkpt lat="45.27150059934399" lon="7.482512250531254"><ele>462.19999999999993</ele><time>2026-04-18T16:56:59Z</time></trkpt><trkpt lat="45.271452707745226" lon="7.482356587183776"><ele>461.8</ele><time>2026-04-18T16:57:00Z</time></trkpt><trkpt lat="45.271414336395694" lon="7.482212671119213"><ele>461.4</ele><time>2026-04-18T16:57:01Z</time></trkpt><trkpt lat="45.2713898455373" lon="7.482094478246075"><ele>461.0</ele><time>2026-04-18T16:57:02Z</time></trkpt><trkpt lat="45.27138122169956" lon="7.481986485872225"><ele>466.6</ele><time>2026-04-18T16:57:03Z</time></trkpt><trkpt lat="45.271406866427206" lon="7.481849100000292"><ele>472.20000000000005</ele><time>2026-04-18T16:57:05Z</time></trkpt><trkpt lat="45.271424272917" lon="7.481733694582369"><ele>477.79999999999995</ele><time>2026-04-18T16:57:07Z</time></trkpt><trkpt lat="45.271382926205725" lon="7.48156413739171"><ele>483.4</ele><time>2026-04-18T16:57:09Z</time></trkpt><trkpt lat="45.27131747719258" lon="7.481498015761676"><ele>489.0</ele><time>2026-04-18T16:57:10Z</time></trkpt><trkpt lat="45.27124771472669" lon="7.481419690327672"><ele>489.0</ele><time>2026-04-18T16:57:11Z</time></trkpt><trkpt lat="45.27119219387367" lon="7.481304349735727"><ele>489.0</ele><time>2026-04-18T16:57:12Z</time></trkpt><trkpt lat="45.27115269880236" lon="7.4811665665818365"><ele>489.0</ele><time>2026-04-18T16:57:13Z</time></trkpt><trkpt lat="45.27112459540178" lon="7.481020369093718"><ele>489.0</ele><time>2026-04-18T16:57:14Z</time></trkpt><trkpt lat="45.2710888006792" lon="7.48088214015411"><ele>489.0</ele><time>2026-04-18T16:57:15Z</time></trkpt><trkpt lat="45.27104749457212" lon="7.480734843333282"><ele>497.25</ele><time>2026-04-18T16:57:16.014Z</time></trkpt><trkpt lat="45.271012427766514" lon="7.480593036462971"><ele>505.5</ele><time>2026-04-18T16:57:17.026Z</time></trkpt><trkpt lat="45.27097237405763" lon="7.480443589307096"><ele>513.75</ele><time>2026-04-18T16:57:18.016Z</time></trkpt><trkpt lat="45.270929753392366" lon="7.48028395172843"><ele>522.0</ele><time>2026-04-18T16:57:19.016Z</time></trkpt><trkpt lat="45.270888605007805" lon="7.480131207811483"><ele>494.0</ele><time>2026-04-18T16:57:20.015Z</time></trkpt><trkpt lat="45.27046287505765" lon="7.478459436003906"><ele>494.0</ele><time>2026-04-18T16:57:23.5Z</time></trkpt><trkpt lat="45.27034200735017" lon="7.477979675562865"><ele>494.0</ele><time>2026-04-18T16:57:24.5Z</time></trkpt><trkpt lat="45.27032098737104" lon="7.477681813768556"><ele>488.3333333333333</ele><time>2026-04-18T16:57:31Z</time></trkpt><trkpt lat="45.270262906102865" lon="7.477496249981004"><ele>482.66666666666663</ele><time>2026-04-18T16:57:32Z</time></trkpt><trkpt lat="45.27005945899122" lon="7.477449255901912"><ele>477.0</ele><time>2026-04-18T16:57:33Z</time></trkpt><trkpt lat="45.26992534577237" lon="7.4773920013539446"><ele>477.0</ele><time>2026-04-18T16:57:34Z</time></trkpt><trkpt lat="45.26981314986363" lon="7.47731187707173"><ele>477.0</ele><time>2026-04-18T16:57:35Z</time></trkpt><trkpt lat="45.269584884368854" lon="7.477223226137269"><ele>477.0</ele><time>2026-04-18T16:57:36Z</time></trkpt><trkpt lat="45.26939959880095" lon="7.477170905946444"><ele>477.0</ele><time>2026-04-18T16:57:37Z</time></trkpt><trkpt lat="45.26922527625038" lon="7.47713179735046"><ele>477.0</ele><time>2026-04-18T16:57:38Z</time></trkpt><trkpt lat="45.26906462379567" lon="7.477087256804199"><ele>477.0</ele><time>2026-04-18T16:57:39Z</time></trkpt><trkpt lat="45.26892096106151" lon="7.477038893846965"><ele>477.0</ele><time>2026-04-18T16:57:40Z</time></trkpt><trkpt lat="45.26878262616215" lon="7.476973516149711"><ele>477.0</ele><time>2026-04-18T16:57:41Z</time></trkpt><trkpt lat="45.26866399468387" lon="7.476891795644049"><ele>477.0</ele><time>2026-04-18T16:57:42Z</time></trkpt><trkpt lat="45.26855433426467" lon="7.476784619815431"><ele>477.0</ele><time>2026-04-18T16:57:43Z</time></trkpt><trkpt lat="45.268443329679144" lon="7.476645031807523"><ele>477.0</ele><time>2026-04-18T16:57:44Z</time></trkpt><trkpt lat="45.268325258152906" lon="7.476486005283082"><ele>477.0</ele><time>2026-04-18T16:57:45Z</time></trkpt><trkpt lat="45.268201663571496" lon="7.476312017166891"><ele>477.0</ele><time>2026-04-18T16:57:46Z</time></trkpt><trkpt lat="45.26807590034298" lon="7.476156052109352"><ele>475.33333333333337</ele><time>2026-04-18T16:57:47Z</time></trkpt><trkpt lat="45.2679455798042" lon="7.475986169714118"><ele>473.6666666666667</ele><time>2026-04-18T16:57:48Z</time></trkpt><trkpt lat="45.267819185847074" lon="7.475823024507484"><ele>472.0</ele><time>2026-04-18T16:57:49Z</time></trkpt><trkpt lat="45.267698965909375" lon="7.475664363180271"><ele>472.0</ele><time>2026-04-18T16:57:50Z</time></trkpt><trkpt lat="45.267575428287536" lon="7.475516248415141"><ele>472.0</ele><time>2026-04-18T16:57:51Z</time></trkpt><trkpt lat="45.26745786629759" lon="7.475358693764431"><ele>472.0</ele><time>2026-04-18T16:57:52Z</time></trkpt><trkpt lat="45.267333413476855" lon="7.475198092329508"><ele>472.0</ele><time>2026-04-18T16:57:53Z</time></trkpt><trkpt lat="45.26720469983928" lon="7.475030252894774"><ele>472.0</ele><time>2026-04-18T16:57:54Z</time></trkpt><trkpt lat="45.26707798521307" lon="7.4748584222641625"><ele>472.0</ele><time>2026-04-18T16:57:55Z</time></trkpt><trkpt lat="45.266954675699466" lon="7.47469572864561"><ele>474.0</ele><time>2026-04-18T16:57:56Z</time></trkpt><trkpt lat="45.26683037546445" lon="7.474535104123944"><ele>476.0</ele><time>2026-04-18T16:57:57Z</time></trkpt><trkpt lat="45.266709691322525" lon="7.47437793076834"><ele>478.0</ele><time>2026-04-18T16:57:58Z</time></trkpt><trkpt lat="45.26658935487672" lon="7.474221729488149"><ele>478.0</ele><time>2026-04-18T16:57:59Z</time></trkpt><trkpt lat="45.26646670124251" lon="7.474071054680565"><ele>478.0</ele><time>2026-04-18T16:58:00Z</time></trkpt><trkpt lat="45.2663446808388" lon="7.473916405686601"><ele>478.0</ele><time>2026-04-18T16:58:01Z</time></trkpt><trkpt lat="45.26622653382202" lon="7.473767371922745"><ele>478.33333333333337</ele><time>2026-04-18T16:58:02Z</time></trkpt><trkpt lat="45.2661091976758" lon="7.473618672466498"><ele>478.66666666666663</ele><time>2026-04-18T16:58:03Z</time></trkpt><trkpt lat="45.26599025257343" lon="7.473467097972035"><ele>479.0</ele><time>2026-04-18T16:58:04Z</time></trkpt><trkpt lat="45.26587421984112" lon="7.473318013277375"><ele>479.0</ele><time>2026-04-18T16:58:05Z</time></trkpt><trkpt lat="45.26576088642437" lon="7.473174542166644"><ele>479.0</ele><time>2026-04-18T16:58:06Z</time></trkpt><trkpt lat="45.26565103242459" lon="7.473032480593371"><ele>479.0</ele><time>2026-04-18T16:58:07Z</time></trkpt><trkpt lat="45.26554394511073" lon="7.472889700842953"><ele>479.0</ele><time>2026-04-18T16:58:08Z</time></trkpt><trkpt lat="45.265435651653256" lon="7.472748853759691"><ele>480.0</ele><time>2026-04-18T16:58:09Z</time></trkpt><trkpt lat="45.26532351981342" lon="7.4726046101255585"><ele>481.0</ele><time>2026-04-18T16:58:10Z</time></trkpt><trkpt lat="45.2652077044399" lon="7.472455236641391"><ele>482.0</ele><time>2026-04-18T16:58:11Z</time></trkpt><trkpt lat="45.26508742064323" lon="7.472299568991051"><ele>482.0</ele><time>2026-04-18T16:58:12Z</time></trkpt><trkpt lat="45.264965434388316" lon="7.472142272136718"><ele>482.0</ele><time>2026-04-18T16:58:13Z</time></trkpt><trkpt lat="45.26484079220171" lon="7.4719805049302925"><ele>482.0</ele><time>2026-04-18T16:58:14Z</time></trkpt><trkpt lat="45.264718806868196" lon="7.4718259401519695"><ele>481.66666666666663</ele><time>2026-04-18T16:58:15Z</time></trkpt><trkpt lat="45.26459673242902" lon="7.471676083199941"><ele>481.33333333333337</ele><time>2026-04-18T16:58:16Z</time></trkpt><trkpt lat="45.264480574024894" lon="7.471528053122446"><ele>481.0</ele><time>2026-04-18T16:58:17Z</time></trkpt><trkpt lat="45.26436527139339" lon="7.47137837231762"><ele>481.6666666666667</ele><time>2026-04-18T16:58:18Z</time></trkpt><trkpt lat="45.26425235169011" lon="7.471228812833044"><ele>482.33333333333337</ele><time>2026-04-18T16:58:19Z</time></trkpt><trkpt lat="45.26413843845286" lon="7.471083192681095"><ele>483.0</ele><time>2026-04-18T16:58:20Z</time></trkpt><trkpt lat="45.264025135463285" lon="7.470934462951141"><ele>483.0</ele><time>2026-04-18T16:58:21Z</time></trkpt><trkpt lat="45.26391097413759" lon="7.470787366597988"><ele>483.0</ele><time>2026-04-18T16:58:22Z</time></trkpt><trkpt lat="45.26379594872069" lon="7.470642242048053"><ele>483.0</ele><time>2026-04-18T16:58:23Z</time></trkpt><trkpt lat="45.263684078781736" lon="7.470496480654943"><ele>483.25</ele><time>2026-04-18T16:58:24Z</time></trkpt><trkpt lat="45.26357619594177" lon="7.470358874992805"><ele>483.5</ele><time>2026-04-18T16:58:25Z</time></trkpt><trkpt lat="45.26347627269461" lon="7.470230180598531"><ele>483.75</ele><time>2026-04-18T16:58:26Z</time></trkpt><trkpt lat="45.26337584168506" lon="7.470100651766645"><ele>484.0</ele><time>2026-04-18T16:58:27Z</time></trkpt><trkpt lat="45.26327706725312" lon="7.469971936935068"><ele>484.0</ele><time>2026-04-18T16:58:28Z</time></trkpt><trkpt lat="45.263175999736696" lon="7.469842600954465"><ele>484.0</ele><time>2026-04-18T16:58:29Z</time></trkpt><trkpt lat="45.263072249903864" lon="7.469705142153887"><ele>484.0</ele><time>2026-04-18T16:58:30Z</time></trkpt><trkpt lat="45.262968122904944" lon="7.469570531890561"><ele>484.0</ele><time>2026-04-18T16:58:31Z</time></trkpt><trkpt lat="45.262857645939526" lon="7.46943278074709"><ele>483.75</ele><time>2026-04-18T16:58:32Z</time></trkpt><trkpt lat="45.26274952867907" lon="7.469299554074248"><ele>483.5</ele><time>2026-04-18T16:58:33Z</time></trkpt><trkpt lat="45.26264501633943" lon="7.469165114195485"><ele>483.25</ele><time>2026-04-18T16:58:34Z</time></trkpt><trkpt lat="45.26254117904896" lon="7.469030699798414"><ele>483.0</ele><time>2026-04-18T16:58:35Z</time></trkpt><trkpt lat="45.262440646237025" lon="7.4688989385459434"><ele>483.25</ele><time>2026-04-18T16:58:36Z</time></trkpt><trkpt lat="45.26234058890592" lon="7.468769818709707"><ele>483.5</ele><time>2026-04-18T16:58:37Z</time></trkpt><trkpt lat="45.26223782830336" lon="7.468639674592839"><ele>483.75</ele><time>2026-04-18T16:58:38Z</time></trkpt><trkpt lat="45.26213394503641" lon="7.468515688209931"><ele>484.0</ele><time>2026-04-18T16:58:39Z</time></trkpt><trkpt lat="45.262032495816605" lon="7.468379808553643"><ele>484.0</ele><time>2026-04-18T16:58:40Z</time></trkpt><trkpt lat="45.26192372445382" lon="7.4682490224733575"><ele>484.0</ele><time>2026-04-18T16:58:41.001Z</time></trkpt><trkpt lat="45.261817758290974" lon="7.468105227707831"><ele>484.0</ele><time>2026-04-18T16:58:42.001Z</time></trkpt><trkpt lat="45.26170668712232" lon="7.46796145826135"><ele>484.0</ele><time>2026-04-18T16:58:43.001Z</time></trkpt><trkpt lat="45.26159715584149" lon="7.4678208910763075"><ele>484.5</ele><time>2026-04-18T16:58:44.001Z</time></trkpt><trkpt lat="45.26149677447317" lon="7.4676959259961535"><ele>485.0</ele><time>2026-04-18T16:58:45.001Z</time></trkpt><trkpt lat="45.261409186052454" lon="7.467577835233941"><ele>485.5</ele><time>2026-04-18T16:58:46.001Z</time></trkpt><trkpt lat="45.26132378074936" lon="7.467466841402164"><ele>486.0</ele><time>2026-04-18T16:58:47.001Z</time></trkpt><trkpt lat="45.26123742245143" lon="7.467363064446814"><ele>486.0</ele><time>2026-04-18T16:58:48.001Z</time></trkpt><trkpt lat="45.26114966639374" lon="7.467239802100246"><ele>486.0</ele><time>2026-04-18T16:58:49.001Z</time></trkpt><trkpt lat="45.26104600759452" lon="7.467111178347267"><ele>486.0</ele><time>2026-04-18T16:58:50.001Z</time></trkpt><trkpt lat="45.26093849516906" lon="7.46697929717315"><ele>486.0</ele><time>2026-04-18T16:58:51.001Z</time></trkpt><trkpt lat="45.2608364647047" lon="7.466847316155947"><ele>486.25</ele><time>2026-04-18T16:58:52.001Z</time></trkpt><trkpt lat="45.26074555171499" lon="7.466727848313791"><ele>486.5</ele><time>2026-04-18T16:58:53.001Z</time></trkpt><trkpt lat="45.26066427651424" lon="7.466622491501043"><ele>486.75</ele><time>2026-04-18T16:58:54.001Z</time></trkpt><trkpt lat="45.26058695346373" lon="7.466500625592699"><ele>487.0</ele><time>2026-04-18T16:58:55Z</time></trkpt><trkpt lat="45.2605301982512" lon="7.466367915431399"><ele>486.20000000000005</ele><time>2026-04-18T16:58:56Z</time></trkpt><trkpt lat="45.26049342432945" lon="7.466220092779652"><ele>485.40000000000003</ele><time>2026-04-18T16:58:57Z</time></trkpt><trkpt lat="45.26048208045575" lon="7.46607658719045"><ele>484.59999999999997</ele><time>2026-04-18T16:58:58Z</time></trkpt><trkpt lat="45.2604955845171" lon="7.4659412008886425"><ele>483.79999999999995</ele><time>2026-04-18T16:58:59Z</time></trkpt><trkpt lat="45.26052850978645" lon="7.465803581498625"><ele>483.0</ele><time>2026-04-18T16:59:00Z</time></trkpt><trkpt lat="45.26057862020617" lon="7.4656717275368765"><ele>484.79999999999995</ele><time>2026-04-18T16:59:01Z</time></trkpt><trkpt lat="45.2606242501217" lon="7.465541833597677"><ele>486.59999999999997</ele><time>2026-04-18T16:59:02Z</time></trkpt><trkpt lat="45.260654740317015" lon="7.465422401341063"><ele>488.40000000000003</ele><time>2026-04-18T16:59:03Z</time></trkpt><trkpt lat="45.260661443123354" lon="7.465298688979516"><ele>490.20000000000005</ele><time>2026-04-18T16:59:04Z</time></trkpt><trkpt lat="45.26065250246843" lon="7.465187698199927"><ele>492.0</ele><time>2026-04-18T16:59:05Z</time></trkpt><trkpt lat="45.26062369809178" lon="7.465038872548382"><ele>490.75</ele><time>2026-04-18T16:59:06Z</time></trkpt><trkpt lat="45.26058238626644" lon="7.464902834627646"><ele>489.5</ele><time>2026-04-18T16:59:07Z</time></trkpt><trkpt lat="45.26056158383364" lon="7.464732393638967"><ele>488.25</ele><time>2026-04-18T16:59:08Z</time></trkpt><trkpt lat="45.26057336633643" lon="7.46452609741358"><ele>487.0</ele><time>2026-04-18T16:59:09Z</time></trkpt><trkpt lat="45.26059767480803" lon="7.464287345025747"><ele>490.6666666666667</ele><time>2026-04-18T16:59:10Z</time></trkpt><trkpt lat="45.26061964127431" lon="7.46403155734137"><ele>494.33333333333337</ele><time>2026-04-18T16:59:11Z</time></trkpt><trkpt lat="45.26063627719115" lon="7.463765541593145"><ele>498.0</ele><time>2026-04-18T16:59:12Z</time></trkpt><trkpt lat="45.26065404309078" lon="7.463483942139928"><ele>498.0</ele><time>2026-04-18T16:59:13Z</time></trkpt><trkpt lat="45.26067282218154" lon="7.4631902507466"><ele>498.0</ele><time>2026-04-18T16:59:14Z</time></trkpt><trkpt lat="45.260691259801945" lon="7.462908419622936"><ele>498.0</ele><time>2026-04-18T16:59:15Z</time></trkpt><trkpt lat="45.26070813540107" lon="7.462642038131292"><ele>498.66666666666663</ele><time>2026-04-18T16:59:16Z</time></trkpt><trkpt lat="45.2607218094488" lon="7.4624032158099585"><ele>499.3333333333333</ele><time>2026-04-18T16:59:17Z</time></trkpt><trkpt lat="45.26074117603806" lon="7.462178301883668"><ele>500.0</ele><time>2026-04-18T16:59:18Z</time></trkpt><trkpt lat="45.26075793645551" lon="7.461972312312793"><ele>500.25</ele><time>2026-04-18T16:59:19Z</time></trkpt><trkpt lat="45.26077255672554" lon="7.461776663171608"><ele>500.5</ele><time>2026-04-18T16:59:20Z</time></trkpt><trkpt lat="45.26078702846777" lon="7.46159453577659"><ele>500.75</ele><time>2026-04-18T16:59:21Z</time></trkpt><trkpt lat="45.26080041060431" lon="7.461418680605005"><ele>501.0</ele><time>2026-04-18T16:59:22Z</time></trkpt><trkpt lat="45.260813323571014" lon="7.461243179251149"><ele>499.4</ele><time>2026-04-18T16:59:23Z</time></trkpt><trkpt lat="45.260819039969284" lon="7.461078540114019"><ele>497.8</ele><time>2026-04-18T16:59:24Z</time></trkpt><trkpt lat="45.26081870088266" lon="7.4609314563684945"><ele>496.19999999999993</ele><time>2026-04-18T16:59:25Z</time></trkpt><trkpt lat="45.26082096848437" lon="7.460792405885548"><ele>494.59999999999997</ele><time>2026-04-18T16:59:26Z</time></trkpt><trkpt lat="45.26084022363657" lon="7.460635796641547"><ele>493.0</ele><time>2026-04-18T16:59:27Z</time></trkpt><trkpt lat="45.260854899608766" lon="7.4604817127275425"><ele>491.4</ele><time>2026-04-18T16:59:28Z</time></trkpt><trkpt lat="45.26096182277696" lon="7.460360938679252"><ele>489.79999999999995</ele><time>2026-04-18T16:59:29Z</time></trkpt><trkpt lat="45.26104703347203" lon="7.460266092046793"><ele>488.2</ele><time>2026-04-18T16:59:30Z</time></trkpt><trkpt lat="45.26113237398145" lon="7.460180937696247"><ele>486.6</ele><time>2026-04-18T16:59:31Z</time></trkpt><trkpt lat="45.261208508677434" lon="7.460110000721108"><ele>485.0</ele><time>2026-04-18T16:59:32Z</time></trkpt><trkpt lat="45.26128011879722" lon="7.460045896220736"><ele>485.0</ele><time>2026-04-18T16:59:33Z</time></trkpt><trkpt lat="45.26133500143035" lon="7.459993433271187"><ele>485.0</ele><time>2026-04-18T16:59:34Z</time></trkpt><trkpt lat="45.261390598816334" lon="7.459921878062996"><ele>485.0</ele><time>2026-04-18T16:59:36Z</time></trkpt><trkpt lat="45.26130467144129" lon="7.459727695651923"><ele>485.0</ele><time>2026-04-18T16:59:38Z</time></trkpt><trkpt lat="45.26126725306187" lon="7.459633359706493"><ele>485.0</ele><time>2026-04-18T16:59:39Z</time></trkpt><trkpt lat="45.2612333722809" lon="7.459517781714403"><ele>485.0</ele><time>2026-04-18T16:59:40Z</time></trkpt><trkpt lat="45.26119118014214" lon="7.459383034648954"><ele>485.0</ele><time>2026-04-18T16:59:41Z</time></trkpt><trkpt lat="45.26114566296276" lon="7.459242219931426"><ele>485.0</ele><time>2026-04-18T16:59:42Z</time></trkpt><trkpt lat="45.26109465163133" lon="7.459091079463129"><ele>485.0</ele><time>2026-04-18T16:59:43Z</time></trkpt><trkpt lat="45.261046519022756" lon="7.458924675125829"><ele>488.0</ele><time>2026-04-18T16:59:44Z</time></trkpt><trkpt lat="45.26100955155876" lon="7.458754778410488"><ele>491.0</ele><time>2026-04-18T16:59:45Z</time></trkpt><trkpt lat="45.26100138389898" lon="7.458570174454352"><ele>494.0</ele><time>2026-04-18T16:59:46Z</time></trkpt><trkpt lat="45.26103740790881" lon="7.458375597730938"><ele>497.0</ele><time>2026-04-18T16:59:47Z</time></trkpt><trkpt lat="45.26104163254293" lon="7.45816617030038"><ele>497.0</ele><time>2026-04-18T16:59:48Z</time></trkpt><trkpt lat="45.26103834629944" lon="7.457983514509963"><ele>497.0</ele><time>2026-04-18T16:59:49Z</time></trkpt><trkpt lat="45.261008540161114" lon="7.457810528834266"><ele>497.0</ele><time>2026-04-18T16:59:50Z</time></trkpt><trkpt lat="45.260957110491574" lon="7.4576436743722425"><ele>497.0</ele><time>2026-04-18T16:59:51Z</time></trkpt><trkpt lat="45.26091103435479" lon="7.457500253292649"><ele>499.5</ele><time>2026-04-18T16:59:52Z</time></trkpt><trkpt lat="45.26087110608803" lon="7.457368933991505"><ele>502.0</ele><time>2026-04-18T16:59:53Z</time></trkpt><trkpt lat="45.26080306366237" lon="7.457271060733334"><ele>504.5</ele><time>2026-04-18T16:59:54Z</time></trkpt><trkpt lat="45.260823221405616" lon="7.4570760280322705"><ele>507.0</ele><time>2026-04-18T16:59:55Z</time></trkpt><trkpt lat="45.26080860014479" lon="7.456906351204781"><ele>511.0</ele><time>2026-04-18T16:59:56Z</time></trkpt><trkpt lat="45.260786938388655" lon="7.456698356445985"><ele>515.0</ele><time>2026-04-18T16:59:57Z</time></trkpt><trkpt lat="45.260732573770106" lon="7.456480430893937"><ele>519.0</ele><time>2026-04-18T16:59:58Z</time></trkpt><trkpt lat="45.26066060297484" lon="7.456286150927456"><ele>521.4</ele><time>2026-04-18T16:59:59Z</time></trkpt><trkpt lat="45.260577873418185" lon="7.456127367322646"><ele>523.8</ele><time>2026-04-18T17:00:00Z</time></trkpt><trkpt lat="45.260508681750544" lon="7.456010092522246"><ele>526.2</ele><time>2026-04-18T17:00:01Z</time></trkpt><trkpt lat="45.26047805124757" lon="7.4559099974046585"><ele>528.6</ele><time>2026-04-18T17:00:02Z</time></trkpt><trkpt lat="45.26046518911557" lon="7.455805516447482"><ele>531.0</ele><time>2026-04-18T17:00:04Z</time></trkpt><trkpt lat="45.260576693044996" lon="7.455818963778456"><ele>530.6</ele><time>2026-04-18T17:00:06Z</time></trkpt><trkpt lat="45.26061817275529" lon="7.4558864383358365"><ele>530.2</ele><time>2026-04-18T17:00:07Z</time></trkpt><trkpt lat="45.26065661363173" lon="7.455987343396551"><ele>529.8</ele><time>2026-04-18T17:00:08Z</time></trkpt><trkpt lat="45.26070903901697" lon="7.456125825088637"><ele>529.4</ele><time>2026-04-18T17:00:09Z</time></trkpt><trkpt lat="45.26079028325078" lon="7.456310030515879"><ele>529.0</ele><time>2026-04-18T17:00:10Z</time></trkpt><trkpt lat="45.260880973784865" lon="7.456524026571581"><ele>525.6666666666667</ele><time>2026-04-18T17:00:11Z</time></trkpt><trkpt lat="45.26096687728226" lon="7.4567583633547985"><ele>522.3333333333334</ele><time>2026-04-18T17:00:12Z</time></trkpt><trkpt lat="45.261047494877204" lon="7.457015003155636"><ele>519.0</ele><time>2026-04-18T17:00:13Z</time></trkpt><trkpt lat="45.26111655966178" lon="7.457238981089491"><ele>516.0</ele><time>2026-04-18T17:00:14Z</time></trkpt><trkpt lat="45.26117723527571" lon="7.45742315350496"><ele>513.0</ele><time>2026-04-18T17:00:15Z</time></trkpt><trkpt lat="45.26124004825961" lon="7.457578564297654"><ele>510.0</ele><time>2026-04-18T17:00:16Z</time></trkpt><trkpt lat="45.2613016333204" lon="7.457663261798977"><ele>507.0</ele><time>2026-04-18T17:00:17Z</time></trkpt><trkpt lat="45.26139287281117" lon="7.4576996255793855"><ele>508.5</ele><time>2026-04-18T17:00:18Z</time></trkpt><trkpt lat="45.26151107279999" lon="7.457677124249021"><ele>510.0</ele><time>2026-04-18T17:00:19Z</time></trkpt><trkpt lat="45.26164697105407" lon="7.457630580023735"><ele>511.5</ele><time>2026-04-18T17:00:20Z</time></trkpt><trkpt lat="45.26180298697324" lon="7.457566553198644"><ele>513.0</ele><time>2026-04-18T17:00:21Z</time></trkpt><trkpt lat="45.26194119534499" lon="7.457492388458697"><ele>513.0</ele><time>2026-04-18T17:00:22Z</time></trkpt><trkpt lat="45.262043772924066" lon="7.457397513817652"><ele>513.0</ele><time>2026-04-18T17:00:23Z</time></trkpt><trkpt lat="45.2621207233251" lon="7.457267374063204"><ele>513.0</ele><time>2026-04-18T17:00:24Z</time></trkpt><trkpt lat="45.262177213622635" lon="7.4571085461643545"><ele>513.0</ele><time>2026-04-18T17:00:25Z</time></trkpt><trkpt lat="45.262224927086905" lon="7.456944815208506"><ele>514.25</ele><time>2026-04-18T17:00:26Z</time></trkpt><trkpt lat="45.26231006707552" lon="7.456835417596545"><ele>515.5</ele><time>2026-04-18T17:00:27Z</time></trkpt><trkpt lat="45.26241631529728" lon="7.456777550106541"><ele>516.75</ele><time>2026-04-18T17:00:28Z</time></trkpt><trkpt lat="45.26253865694696" lon="7.456750519340601"><ele>518.0</ele><time>2026-04-18T17:00:29Z</time></trkpt><trkpt lat="45.26266293285531" lon="7.456690876267421"><ele>518.0</ele><time>2026-04-18T17:00:30Z</time></trkpt><trkpt lat="45.26277153166126" lon="7.456564829929422"><ele>518.0</ele><time>2026-04-18T17:00:31Z</time></trkpt><trkpt lat="45.26286205858828" lon="7.456402957828626"><ele>518.0</ele><time>2026-04-18T17:00:32Z</time></trkpt><trkpt lat="45.26292371555534" lon="7.456198669685628"><ele>518.0</ele><time>2026-04-18T17:00:33Z</time></trkpt><trkpt lat="45.2629803947572" lon="7.455949952832943"><ele>520.3333333333333</ele><time>2026-04-18T17:00:34Z</time></trkpt><trkpt lat="45.2630672455326" lon="7.455683760371463"><ele>522.6666666666666</ele><time>2026-04-18T17:00:35Z</time></trkpt><trkpt lat="45.26315428012821" lon="7.455414976420468"><ele>525.0</ele><time>2026-04-18T17:00:36Z</time></trkpt><trkpt lat="45.26323700100106" lon="7.455196757684445"><ele>525.0</ele><time>2026-04-18T17:00:37Z</time></trkpt><trkpt lat="45.263311522056256" lon="7.455018033736479"><ele>525.0</ele><time>2026-04-18T17:00:38Z</time></trkpt><trkpt lat="45.263391536986035" lon="7.454859472969894"><ele>525.0</ele><time>2026-04-18T17:00:39Z</time></trkpt><trkpt lat="45.263497607207945" lon="7.454786445781817"><ele>525.0</ele><time>2026-04-18T17:00:40Z</time></trkpt><trkpt lat="45.26361563172124" lon="7.454736764973139"><ele>525.0</ele><time>2026-04-18T17:00:41Z</time></trkpt><trkpt lat="45.26370421103084" lon="7.454633293449343"><ele>525.0</ele><time>2026-04-18T17:00:42Z</time></trkpt><trkpt lat="45.263758654509175" lon="7.454472773032163"><ele>525.0</ele><time>2026-04-18T17:00:43Z</time></trkpt><trkpt lat="45.2637953957303" lon="7.454268826218904"><ele>525.0</ele><time>2026-04-18T17:00:44Z</time></trkpt><trkpt lat="45.2638352865397" lon="7.454027031159228"><ele>528.0</ele><time>2026-04-18T17:00:45Z</time></trkpt><trkpt lat="45.26388552324699" lon="7.453756010689951"><ele>531.0</ele><time>2026-04-18T17:00:46Z</time></trkpt><trkpt lat="45.26396670811331" lon="7.4535108024333105"><ele>534.0</ele><time>2026-04-18T17:00:47Z</time></trkpt><trkpt lat="45.26405327828283" lon="7.453305533388253"><ele>534.0</ele><time>2026-04-18T17:00:48Z</time></trkpt><trkpt lat="45.264142273413846" lon="7.453115098202817"><ele>534.0</ele><time>2026-04-18T17:00:49Z</time></trkpt><trkpt lat="45.264237779894884" lon="7.452986289438097"><ele>534.0</ele><time>2026-04-18T17:00:50.001Z</time></trkpt><trkpt lat="45.26430837971298" lon="7.452915032292323"><ele>534.0</ele><time>2026-04-18T17:00:51.001Z</time></trkpt><trkpt lat="45.264383925441784" lon="7.452914195279342"><ele>534.0</ele><time>2026-04-18T17:00:52.001Z</time></trkpt><trkpt lat="45.26445272970882" lon="7.452959985014063"><ele>534.0</ele><time>2026-04-18T17:00:53.001Z</time></trkpt><trkpt lat="45.26453463267649" lon="7.453030357879757"><ele>534.0</ele><time>2026-04-18T17:00:54.001Z</time></trkpt><trkpt lat="45.26464607132344" lon="7.4530726263322125"><ele>534.0</ele><time>2026-04-18T17:00:55.001Z</time></trkpt><trkpt lat="45.264789551043236" lon="7.453086455870155"><ele>534.0</ele><time>2026-04-18T17:00:56.001Z</time></trkpt><trkpt lat="45.26494706477438" lon="7.453067460874517"><ele>534.6666666666666</ele><time>2026-04-18T17:00:57.001Z</time></trkpt><trkpt lat="45.265101660999484" lon="7.453009499628773"><ele>535.3333333333333</ele><time>2026-04-18T17:00:58.001Z</time></trkpt><trkpt lat="45.265253633871474" lon="7.45293930863436"><ele>536.0</ele><time>2026-04-18T17:00:59.001Z</time></trkpt><trkpt lat="45.265401049942604" lon="7.452839405500821"><ele>535.3333333333333</ele><time>2026-04-18T17:01:00.001Z</time></trkpt><trkpt lat="45.26552802724746" lon="7.452706004409554"><ele>534.6666666666666</ele><time>2026-04-18T17:01:01Z</time></trkpt><trkpt lat="45.26563726966811" lon="7.452532565707197"><ele>534.0</ele><time>2026-04-18T17:01:02Z</time></trkpt><trkpt lat="45.26573093521351" lon="7.452341486405706"><ele>534.0</ele><time>2026-04-18T17:01:03Z</time></trkpt><trkpt lat="45.26582793136114" lon="7.4521847574850035"><ele>534.0</ele><time>2026-04-18T17:01:04Z</time></trkpt><trkpt lat="45.265953597666694" lon="7.452076122631338"><ele>534.0</ele><time>2026-04-18T17:01:05Z</time></trkpt><trkpt lat="45.26606598528634" lon="7.451935307553302"><ele>534.0</ele><time>2026-04-18T17:01:06Z</time></trkpt><trkpt lat="45.266169203986" lon="7.451733748449319"><ele>536.3333333333334</ele><time>2026-04-18T17:01:07Z</time></trkpt><trkpt lat="45.26628146230766" lon="7.451489049661985"><ele>538.6666666666667</ele><time>2026-04-18T17:01:08Z</time></trkpt><trkpt lat="45.266391971092744" lon="7.451207714602678"><ele>541.0</ele><time>2026-04-18T17:01:09Z</time></trkpt><trkpt lat="45.26650593475551" lon="7.450989414946096"><ele>541.0</ele><time>2026-04-18T17:01:10Z</time></trkpt><trkpt lat="45.266596195612955" lon="7.450785465681833"><ele>541.0</ele><time>2026-04-18T17:01:11Z</time></trkpt><trkpt lat="45.26670886275746" lon="7.450630541205635"><ele>541.0</ele><time>2026-04-18T17:01:12Z</time></trkpt><trkpt lat="45.26685310711541" lon="7.450498180979413"><ele>544.6666666666667</ele><time>2026-04-18T17:01:13Z</time></trkpt><trkpt lat="45.26702258457102" lon="7.4503390038665085"><ele>548.3333333333334</ele><time>2026-04-18T17:01:14Z</time></trkpt><trkpt lat="45.26722607750542" lon="7.450227102640317"><ele>552.0</ele><time>2026-04-18T17:01:15Z</time></trkpt><trkpt lat="45.26741046589567" lon="7.450153382374095"><ele>552.0</ele><time>2026-04-18T17:01:16Z</time></trkpt><trkpt lat="45.267564119961804" lon="7.450097073752044"><ele>552.0</ele><time>2026-04-18T17:01:17Z</time></trkpt><trkpt lat="45.267681674341205" lon="7.4500392032300935"><ele>552.0</ele><time>2026-04-18T17:01:18Z</time></trkpt><trkpt lat="45.26776290850066" lon="7.4499425215190245"><ele>552.0</ele><time>2026-04-18T17:01:19Z</time></trkpt><trkpt lat="45.2678329342794" lon="7.449810749105967"><ele>558.0</ele><time>2026-04-18T17:01:20Z</time></trkpt><trkpt lat="45.26785281326533" lon="7.449587883871533"><ele>564.0</ele><time>2026-04-18T17:01:21Z</time></trkpt><trkpt lat="45.26786194789982" lon="7.4493606672761405"><ele>570.0</ele><time>2026-04-18T17:01:22Z</time></trkpt><trkpt lat="45.26785946493971" lon="7.449089477013643"><ele>570.0</ele><time>2026-04-18T17:01:23Z</time></trkpt><trkpt lat="45.26786241235979" lon="7.448806987462951"><ele>570.0</ele><time>2026-04-18T17:01:24Z</time></trkpt><trkpt lat="45.267883513963454" lon="7.448546838474412"><ele>570.0</ele><time>2026-04-18T17:01:25Z</time></trkpt><trkpt lat="45.267903530439646" lon="7.448330595573032"><ele>571.0</ele><time>2026-04-18T17:01:26Z</time></trkpt><trkpt lat="45.267892037952485" lon="7.448143506233491"><ele>572.0</ele><time>2026-04-18T17:01:27Z</time></trkpt><trkpt lat="45.267848326528515" lon="7.447932848962607"><ele>573.0</ele><time>2026-04-18T17:01:28Z</time></trkpt><trkpt lat="45.26778172441957" lon="7.447672699934366"><ele>573.0</ele><time>2026-04-18T17:01:29Z</time></trkpt><trkpt lat="45.26773385048294" lon="7.447392918187581"><ele>573.0</ele><time>2026-04-18T17:01:30Z</time></trkpt><trkpt lat="45.26770190606411" lon="7.447131872596406"><ele>573.0</ele><time>2026-04-18T17:01:31Z</time></trkpt><trkpt lat="45.26768123281718" lon="7.446889611443754"><ele>575.0</ele><time>2026-04-18T17:01:32Z</time></trkpt><trkpt lat="45.26767654500617" lon="7.446627288045992"><ele>577.0</ele><time>2026-04-18T17:01:33Z</time></trkpt><trkpt lat="45.267722575232014" lon="7.446363859243238"><ele>579.0</ele><time>2026-04-18T17:01:34Z</time></trkpt><trkpt lat="45.267750437962135" lon="7.446054020844128"><ele>582.0</ele><time>2026-04-18T17:01:35Z</time></trkpt><trkpt lat="45.26779927602734" lon="7.44576419430552"><ele>585.0</ele><time>2026-04-18T17:01:36Z</time></trkpt><trkpt lat="45.267845653519196" lon="7.44551810023183"><ele>588.0</ele><time>2026-04-18T17:01:37Z</time></trkpt><trkpt lat="45.26792216090284" lon="7.445327109793246"><ele>591.3333333333334</ele><time>2026-04-18T17:01:38Z</time></trkpt><trkpt lat="45.26801040739987" lon="7.445161781368383"><ele>594.6666666666667</ele><time>2026-04-18T17:01:39Z</time></trkpt><trkpt lat="45.26806118438816" lon="7.444942251851765"><ele>598.0</ele><time>2026-04-18T17:01:40Z</time></trkpt><trkpt lat="45.268105054026115" lon="7.444714332155202"><ele>591.5</ele><time>2026-04-18T17:01:41Z</time></trkpt><trkpt lat="45.26820202858512" lon="7.444541407086397"><ele>585.0</ele><time>2026-04-18T17:01:42Z</time></trkpt><trkpt lat="45.268264446260076" lon="7.444377825008164"><ele>578.5</ele><time>2026-04-18T17:01:43Z</time></trkpt><trkpt lat="45.26829828813574" lon="7.444225097239068"><ele>572.0</ele><time>2026-04-18T17:01:44Z</time></trkpt><trkpt lat="45.26829762277175" lon="7.444024557763877"><ele>572.0</ele><time>2026-04-18T17:01:45Z</time></trkpt><trkpt lat="45.26829343197784" lon="7.443811337458785"><ele>572.0</ele><time>2026-04-18T17:01:46Z</time></trkpt><trkpt lat="45.26826703894342" lon="7.443597131530165"><ele>572.0</ele><time>2026-04-18T17:01:47Z</time></trkpt><trkpt lat="45.26820481542613" lon="7.44336459237448"><ele>573.0</ele><time>2026-04-18T17:01:48Z</time></trkpt><trkpt lat="45.26811407979846" lon="7.443080937103436"><ele>574.0</ele><time>2026-04-18T17:01:49Z</time></trkpt><trkpt lat="45.268021258987524" lon="7.442783413189538"><ele>575.0</ele><time>2026-04-18T17:01:50Z</time></trkpt><trkpt lat="45.26791755843688" lon="7.442479506839775"><ele>579.3333333333333</ele><time>2026-04-18T17:01:51Z</time></trkpt><trkpt lat="45.26782609531884" lon="7.442208532977208"><ele>583.6666666666666</ele><time>2026-04-18T17:01:52Z</time></trkpt><trkpt lat="45.26772116869732" lon="7.441961916242637"><ele>588.0</ele><time>2026-04-18T17:01:53Z</time></trkpt><trkpt lat="45.2676242733901" lon="7.441746482806778"><ele>588.0</ele><time>2026-04-18T17:01:54Z</time></trkpt><trkpt lat="45.26757506302039" lon="7.441539614068652"><ele>588.0</ele><time>2026-04-18T17:01:55Z</time></trkpt><trkpt lat="45.26752302846886" lon="7.4413489576525444"><ele>588.0</ele><time>2026-04-18T17:01:56Z</time></trkpt><trkpt lat="45.26749570180713" lon="7.441156286047606"><ele>588.0</ele><time>2026-04-18T17:01:57Z</time></trkpt><trkpt lat="45.26746962972762" lon="7.441027154083811"><ele>584.4</ele><time>2026-04-18T17:01:58Z</time></trkpt><trkpt lat="45.26741968322156" lon="7.440936359473003"><ele>580.8</ele><time>2026-04-18T17:01:59Z</time></trkpt><trkpt lat="45.26734486221069" lon="7.440888326806812"><ele>577.2</ele><time>2026-04-18T17:02:00Z</time></trkpt><trkpt lat="45.267242793795916" lon="7.4409067668559725"><ele>573.6</ele><time>2026-04-18T17:02:01Z</time></trkpt><trkpt lat="45.267119219076385" lon="7.440974455741508"><ele>570.0</ele><time>2026-04-18T17:02:02Z</time></trkpt><trkpt lat="45.26696881643527" lon="7.441074123773646"><ele>569.3333333333334</ele><time>2026-04-18T17:02:03Z</time></trkpt><trkpt lat="45.26680376754561" lon="7.44117455114272"><ele>568.6666666666667</ele><time>2026-04-18T17:02:04Z</time></trkpt><trkpt lat="45.26663837261949" lon="7.441231138402153"><ele>568.0</ele><time>2026-04-18T17:02:05Z</time></trkpt><trkpt lat="45.266477823804074" lon="7.441199363037076"><ele>572.3333333333334</ele><time>2026-04-18T17:02:06Z</time></trkpt><trkpt lat="45.26629747812883" lon="7.441201346012565"><ele>576.6666666666666</ele><time>2026-04-18T17:02:07Z</time></trkpt><trkpt lat="45.26613625956323" lon="7.441191539049229"><ele>581.0</ele><time>2026-04-18T17:02:08Z</time></trkpt><trkpt lat="45.26601038554382" lon="7.441098891252902"><ele>581.0</ele><time>2026-04-18T17:02:09Z</time></trkpt><trkpt lat="45.26586203183253" lon="7.440999343621021"><ele>581.0</ele><time>2026-04-18T17:02:10Z</time></trkpt><trkpt lat="45.26568495077873" lon="7.440915427135722"><ele>581.0</ele><time>2026-04-18T17:02:11Z</time></trkpt><trkpt lat="45.26548267208757" lon="7.4408262590602785"><ele>590.5</ele><time>2026-04-18T17:02:12Z</time></trkpt><trkpt lat="45.2652562550455" lon="7.4407511432131574"><ele>600.0</ele><time>2026-04-18T17:02:13Z</time></trkpt><trkpt lat="45.26500769691392" lon="7.440683617016795"><ele>600.5</ele><time>2026-04-18T17:02:14Z</time></trkpt><trkpt lat="45.264747577391866" lon="7.440642261295755"><ele>601.0</ele><time>2026-04-18T17:02:15Z</time></trkpt><trkpt lat="45.264466793458226" lon="7.440634919074585"><ele>601.0</ele><time>2026-04-18T17:02:16Z</time></trkpt><trkpt lat="45.26420714944616" lon="7.440612190025046"><ele>601.0</ele><time>2026-04-18T17:02:17Z</time></trkpt><trkpt lat="45.26396680682074" lon="7.440586179470188"><ele>602.6666666666667</ele><time>2026-04-18T17:02:18Z</time></trkpt><trkpt lat="45.2637424619378" lon="7.440556830968771"><ele>604.3333333333334</ele><time>2026-04-18T17:02:19Z</time></trkpt><trkpt lat="45.263529629883976" lon="7.440538711410427"><ele>606.0</ele><time>2026-04-18T17:02:20Z</time></trkpt><trkpt lat="45.26332067782549" lon="7.440501976107338"><ele>601.0</ele><time>2026-04-18T17:02:21Z</time></trkpt><trkpt lat="45.26311035423818" lon="7.4403934778472385"><ele>596.0</ele><time>2026-04-18T17:02:22Z</time></trkpt><trkpt lat="45.26288526194512" lon="7.440254090155517"><ele>596.0</ele><time>2026-04-18T17:02:23Z</time></trkpt><trkpt lat="45.262643464252896" lon="7.4400802500215075"><ele>596.0</ele><time>2026-04-18T17:02:24Z</time></trkpt><trkpt lat="45.26240429559227" lon="7.439898006742879"><ele>591.5</ele><time>2026-04-18T17:02:25Z</time></trkpt><trkpt lat="45.262196102100575" lon="7.439720592715623"><ele>587.0</ele><time>2026-04-18T17:02:26Z</time></trkpt><trkpt lat="45.26200650747741" lon="7.439550955384575"><ele>587.0</ele><time>2026-04-18T17:02:27Z</time></trkpt><trkpt lat="45.261834639806025" lon="7.439401048913331"><ele>587.0</ele><time>2026-04-18T17:02:28Z</time></trkpt><trkpt lat="45.26168898183891" lon="7.4392791065975485"><ele>587.0</ele><time>2026-04-18T17:02:29Z</time></trkpt><trkpt lat="45.261568483942995" lon="7.439181549466087"><ele>587.0</ele><time>2026-04-18T17:02:30Z</time></trkpt><trkpt lat="45.26145294475315" lon="7.439109897662813"><ele>587.0</ele><time>2026-04-18T17:02:31Z</time></trkpt><trkpt lat="45.26132455165712" lon="7.43910038308144"><ele>587.0</ele><time>2026-04-18T17:02:32Z</time></trkpt><trkpt lat="45.261189715778876" lon="7.43915973539279"><ele>587.0</ele><time>2026-04-18T17:02:33Z</time></trkpt><trkpt lat="45.261029191766916" lon="7.439275944968728"><ele>583.3333333333333</ele><time>2026-04-18T17:02:34Z</time></trkpt><trkpt lat="45.26084352665584" lon="7.439418195571202"><ele>579.6666666666666</ele><time>2026-04-18T17:02:35Z</time></trkpt><trkpt lat="45.2606714503818" lon="7.439538816104437"><ele>576.0</ele><time>2026-04-18T17:02:36Z</time></trkpt><trkpt lat="45.260505084860455" lon="7.43960449946667"><ele>574.6666666666666</ele><time>2026-04-18T17:02:37Z</time></trkpt><trkpt lat="45.26032843197153" lon="7.439558606490367"><ele>573.3333333333333</ele><time>2026-04-18T17:02:38Z</time></trkpt><trkpt lat="45.26012511731356" lon="7.439535063158702"><ele>572.0</ele><time>2026-04-18T17:02:39Z</time></trkpt><trkpt lat="45.25989909257765" lon="7.439524004571825"><ele>579.0</ele><time>2026-04-18T17:02:40Z</time></trkpt><trkpt lat="45.25970014768468" lon="7.439447505427039"><ele>586.0</ele><time>2026-04-18T17:02:41Z</time></trkpt><trkpt lat="45.25950860144241" lon="7.439365827185271"><ele>593.0</ele><time>2026-04-18T17:02:42Z</time></trkpt><trkpt lat="45.25933697194002" lon="7.439239791553714"><ele>593.0</ele><time>2026-04-18T17:02:43Z</time></trkpt><trkpt lat="45.259148480708184" lon="7.4391107739421996"><ele>593.0</ele><time>2026-04-18T17:02:44Z</time></trkpt><trkpt lat="45.25897016622649" lon="7.438958312061914"><ele>593.0</ele><time>2026-04-18T17:02:45Z</time></trkpt><trkpt lat="45.258773719999155" lon="7.438827095320156"><ele>587.3333333333333</ele><time>2026-04-18T17:02:46Z</time></trkpt><trkpt lat="45.25856955125462" lon="7.438751282331029"><ele>581.6666666666666</ele><time>2026-04-18T17:02:47Z</time></trkpt><trkpt lat="45.258391838109304" lon="7.438706201167836"><ele>576.0</ele><time>2026-04-18T17:02:48Z</time></trkpt><trkpt lat="45.25825277317835" lon="7.438648466120981"><ele>576.0</ele><time>2026-04-18T17:02:49Z</time></trkpt><trkpt lat="45.25814942534043" lon="7.4385379427235225"><ele>576.0</ele><time>2026-04-18T17:02:50Z</time></trkpt><trkpt lat="45.25805290158626" lon="7.438419600414841"><ele>576.0</ele><time>2026-04-18T17:02:51Z</time></trkpt><trkpt lat="45.25798811501087" lon="7.438273588811397"><ele>576.0</ele><time>2026-04-18T17:02:52Z</time></trkpt><trkpt lat="45.257910481790695" lon="7.438161093736695"><ele>581.0</ele><time>2026-04-18T17:02:53.001Z</time></trkpt><trkpt lat="45.257790489801316" lon="7.438118983007774"><ele>586.0</ele><time>2026-04-18T17:02:54Z</time></trkpt><trkpt lat="45.257624202166944" lon="7.438094882850061"><ele>591.0</ele><time>2026-04-18T17:02:55.001Z</time></trkpt><trkpt lat="45.25747372371947" lon="7.438068354816187"><ele>596.0</ele><time>2026-04-18T17:02:56.001Z</time></trkpt><trkpt lat="45.25735448758215" lon="7.438052916258508"><ele>596.6</ele><time>2026-04-18T17:02:57.001Z</time></trkpt><trkpt lat="45.257258183277166" lon="7.438048358097483"><ele>597.2</ele><time>2026-04-18T17:02:58.001Z</time></trkpt><trkpt lat="45.257191624671975" lon="7.437962194004351"><ele>597.8</ele><time>2026-04-18T17:02:59.001Z</time></trkpt><trkpt lat="45.257162128692805" lon="7.437810395377752"><ele>598.4</ele><time>2026-04-18T17:03:00.001Z</time></trkpt><trkpt lat="45.257112613636124" lon="7.4376576055321415"><ele>599.0</ele><time>2026-04-18T17:03:01.001Z</time></trkpt><trkpt lat="45.25706329382755" lon="7.437515252395675"><ele>599.0</ele><time>2026-04-18T17:03:02.001Z</time></trkpt><trkpt lat="45.25697724315304" lon="7.4374241618002985"><ele>599.0</ele><time>2026-04-18T17:03:03.001Z</time></trkpt><trkpt lat="45.25686306620969" lon="7.437368687044204"><ele>599.0</ele><time>2026-04-18T17:03:04.001Z</time></trkpt><trkpt lat="45.25674261456436" lon="7.437317013130611"><ele>599.0</ele><time>2026-04-18T17:03:05.001Z</time></trkpt><trkpt lat="45.25666750486753" lon="7.43724133480204"><ele>599.0</ele><time>2026-04-18T17:03:06.001Z</time></trkpt><trkpt lat="45.25663616002962" lon="7.43711642219688"><ele>595.25</ele><time>2026-04-18T17:03:07Z</time></trkpt><trkpt lat="45.25664356034404" lon="7.436960655695548"><ele>591.5</ele><time>2026-04-18T17:03:08Z</time></trkpt><trkpt lat="45.25667964059399" lon="7.436793374011526"><ele>587.75</ele><time>2026-04-18T17:03:09Z</time></trkpt><trkpt lat="45.256709090809096" lon="7.436625137280267"><ele>584.0</ele><time>2026-04-18T17:03:10Z</time></trkpt><trkpt lat="45.25672264939982" lon="7.436480085260916"><ele>584.0</ele><time>2026-04-18T17:03:11Z</time></trkpt><trkpt lat="45.25671304556909" lon="7.436346734987491"><ele>584.0</ele><time>2026-04-18T17:03:12Z</time></trkpt><trkpt lat="45.25666994452259" lon="7.4362027466950025"><ele>584.0</ele><time>2026-04-18T17:03:13Z</time></trkpt><trkpt lat="45.25661673792583" lon="7.43608721833818"><ele>584.0</ele><time>2026-04-18T17:03:14Z</time></trkpt><trkpt lat="45.256539302788866" lon="7.436013089876421"><ele>584.0</ele><time>2026-04-18T17:03:15Z</time></trkpt><trkpt lat="45.25643852997581" lon="7.435974881322435"><ele>580.4</ele><time>2026-04-18T17:03:16Z</time></trkpt><trkpt lat="45.25632652955617" lon="7.435968276992306"><ele>576.8</ele><time>2026-04-18T17:03:17Z</time></trkpt><trkpt lat="45.25621470146605" lon="7.435980191841988"><ele>573.2</ele><time>2026-04-18T17:03:18Z</time></trkpt><trkpt lat="45.256112206810215" lon="7.43600686006546"><ele>569.6</ele><time>2026-04-18T17:03:19Z</time></trkpt><trkpt lat="45.256010690015245" lon="7.436056873097844"><ele>566.0</ele><time>2026-04-18T17:03:20Z</time></trkpt><trkpt lat="45.25591787639806" lon="7.436131423071866"><ele>566.0</ele><time>2026-04-18T17:03:21Z</time></trkpt><trkpt lat="45.25583775154584" lon="7.436215003160295"><ele>566.0</ele><time>2026-04-18T17:03:22Z</time></trkpt><trkpt lat="45.25576648765882" lon="7.436285324353797"><ele>566.0</ele><time>2026-04-18T17:03:23Z</time></trkpt><trkpt lat="45.255688957259785" lon="7.436341111115302"><ele>566.0</ele><time>2026-04-18T17:03:24Z</time></trkpt><trkpt lat="45.25559783369642" lon="7.436372468930653"><ele>566.0</ele><time>2026-04-18T17:03:25Z</time></trkpt><trkpt lat="45.25549872812838" lon="7.4363757655997444"><ele>566.2</ele><time>2026-04-18T17:03:26Z</time></trkpt><trkpt lat="45.25540399261671" lon="7.436346708842057"><ele>566.4000000000001</ele><time>2026-04-18T17:03:27Z</time></trkpt><trkpt lat="45.25533372380402" lon="7.4362497496873345"><ele>566.6</ele><time>2026-04-18T17:03:28Z</time></trkpt><trkpt lat="45.25524981703062" lon="7.436162451360541"><ele>566.8000000000001</ele><time>2026-04-18T17:03:29Z</time></trkpt><trkpt lat="45.25518743629996" lon="7.4360711946326505"><ele>567.0</ele><time>2026-04-18T17:03:30Z</time></trkpt><trkpt lat="45.25510289006042" lon="7.4360315256069365"><ele>567.0</ele><time>2026-04-18T17:03:31Z</time></trkpt><trkpt lat="45.25499565886242" lon="7.436049833811431"><ele>567.0</ele><time>2026-04-18T17:03:32Z</time></trkpt><trkpt lat="45.254869021551634" lon="7.436090627038177"><ele>567.0</ele><time>2026-04-18T17:03:33Z</time></trkpt><trkpt lat="45.25474266899324" lon="7.436131526332363"><ele>567.0</ele><time>2026-04-18T17:03:34Z</time></trkpt><trkpt lat="45.25462690818558" lon="7.436163688160235"><ele>567.0</ele><time>2026-04-18T17:03:35Z</time></trkpt><trkpt lat="45.254514954449746" lon="7.436219217657807"><ele>567.0</ele><time>2026-04-18T17:03:36Z</time></trkpt><trkpt lat="45.25439630773885" lon="7.4362443433155105"><ele>567.0</ele><time>2026-04-18T17:03:37Z</time></trkpt><trkpt lat="45.25426666840479" lon="7.436239169147425"><ele>567.0</ele><time>2026-04-18T17:03:38Z</time></trkpt><trkpt lat="45.25412131732471" lon="7.436215319656709"><ele>567.0</ele><time>2026-04-18T17:03:39Z</time></trkpt><trkpt lat="45.2539838638292" lon="7.436185064093747"><ele>567.0</ele><time>2026-04-18T17:03:40Z</time></trkpt><trkpt lat="45.25385721519849" lon="7.436153814777328"><ele>567.0</ele><time>2026-04-18T17:03:41Z</time></trkpt><trkpt lat="45.25373484965196" lon="7.4361510349895665"><ele>567.0</ele><time>2026-04-18T17:03:42Z</time></trkpt><trkpt lat="45.25360089847037" lon="7.436169907970767"><ele>566.75</ele><time>2026-04-18T17:03:43Z</time></trkpt><trkpt lat="45.25346014365889" lon="7.436157046522449"><ele>566.5</ele><time>2026-04-18T17:03:44Z</time></trkpt><trkpt lat="45.253311243424" lon="7.436131188802939"><ele>566.25</ele><time>2026-04-18T17:03:45Z</time></trkpt><trkpt lat="45.25316145059443" lon="7.436112842042459"><ele>566.0</ele><time>2026-04-18T17:03:46Z</time></trkpt><trkpt lat="45.25301430876064" lon="7.43609202462185"><ele>565.3333333333333</ele><time>2026-04-18T17:03:47Z</time></trkpt><trkpt lat="45.25286172627479" lon="7.436074030231528"><ele>564.6666666666666</ele><time>2026-04-18T17:03:48Z</time></trkpt><trkpt lat="45.252715092065294" lon="7.436050784245906"><ele>564.0</ele><time>2026-04-18T17:03:49Z</time></trkpt><trkpt lat="45.25256353876983" lon="7.436028567187734"><ele>564.0</ele><time>2026-04-18T17:03:50Z</time></trkpt><trkpt lat="45.25242210682239" lon="7.436022411966904"><ele>564.0</ele><time>2026-04-18T17:03:51Z</time></trkpt><trkpt lat="45.25229183593786" lon="7.4360442503510376"><ele>564.0</ele><time>2026-04-18T17:03:52Z</time></trkpt><trkpt lat="45.25217036109319" lon="7.436053554472828"><ele>564.0</ele><time>2026-04-18T17:03:53Z</time></trkpt><trkpt lat="45.25205277611743" lon="7.4360822789385495"><ele>565.25</ele><time>2026-04-18T17:03:54Z</time></trkpt><trkpt lat="45.251932711912225" lon="7.436083310643771"><ele>566.5</ele><time>2026-04-18T17:03:55Z</time></trkpt><trkpt lat="45.25180403570419" lon="7.436007472384081"><ele>567.75</ele><time>2026-04-18T17:03:56Z</time></trkpt><trkpt lat="45.251684480796015" lon="7.4359113054367745"><ele>569.0</ele><time>2026-04-18T17:03:57Z</time></trkpt><trkpt lat="45.25155276757188" lon="7.435805921802992"><ele>579.0</ele><time>2026-04-18T17:03:58Z</time></trkpt><trkpt lat="45.25142848625468" lon="7.435686809514536"><ele>589.0</ele><time>2026-04-18T17:03:59Z</time></trkpt><trkpt lat="45.25129915110999" lon="7.4355861096845155"><ele>599.0</ele><time>2026-04-18T17:04:00Z</time></trkpt><trkpt lat="45.25115859629295" lon="7.43549839636072"><ele>588.0</ele><time>2026-04-18T17:04:01Z</time></trkpt><trkpt lat="45.25101538176685" lon="7.4354231824993535"><ele>577.0</ele><time>2026-04-18T17:04:02Z</time></trkpt><trkpt lat="45.25087558471296" lon="7.435344277038756"><ele>566.0</ele><time>2026-04-18T17:04:03Z</time></trkpt><trkpt lat="45.25074602095144" lon="7.435247167497295"><ele>570.5</ele><time>2026-04-18T17:04:04Z</time></trkpt><trkpt lat="45.250618641055524" lon="7.435149272384065"><ele>575.0</ele><time>2026-04-18T17:04:05Z</time></trkpt><trkpt lat="45.25049401719036" lon="7.435052991091324"><ele>579.5</ele><time>2026-04-18T17:04:06Z</time></trkpt><trkpt lat="45.25036393443604" lon="7.4349605323154275"><ele>584.0</ele><time>2026-04-18T17:04:07Z</time></trkpt><trkpt lat="45.25022229921845" lon="7.434889138754365"><ele>584.0</ele><time>2026-04-18T17:04:08Z</time></trkpt><trkpt lat="45.2500983004402" lon="7.434771464507225"><ele>584.0</ele><time>2026-04-18T17:04:09Z</time></trkpt><trkpt lat="45.249966707675796" lon="7.4346963221332025"><ele>584.0</ele><time>2026-04-18T17:04:10Z</time></trkpt><trkpt lat="45.249837282287814" lon="7.4346187112974205"><ele>584.0</ele><time>2026-04-18T17:04:11Z</time></trkpt><trkpt lat="45.249697822252685" lon="7.434552697715023"><ele>578.75</ele><time>2026-04-18T17:04:12Z</time></trkpt><trkpt lat="45.249559761018865" lon="7.434494538242146"><ele>573.5</ele><time>2026-04-18T17:04:13Z</time></trkpt><trkpt lat="45.24943072004208" lon="7.434457598537118"><ele>568.25</ele><time>2026-04-18T17:04:14Z</time></trkpt><trkpt lat="45.24930242238449" lon="7.434434700167441"><ele>563.0</ele><time>2026-04-18T17:04:15Z</time></trkpt><trkpt lat="45.24917763661058" lon="7.434391437393901"><ele>563.0</ele><time>2026-04-18T17:04:16Z</time></trkpt><trkpt lat="45.24905541464852" lon="7.43438128981487"><ele>563.0</ele><time>2026-04-18T17:04:17Z</time></trkpt><trkpt lat="45.24894397813013" lon="7.434353217731094"><ele>563.0</ele><time>2026-04-18T17:04:18Z</time></trkpt><trkpt lat="45.24884237000167" lon="7.43433886376553"><ele>563.0</ele><time>2026-04-18T17:04:19Z</time></trkpt><trkpt lat="45.24874437159931" lon="7.434360809451267"><ele>563.0</ele><time>2026-04-18T17:04:20Z</time></trkpt><trkpt lat="45.248662257940666" lon="7.434415877427919"><ele>564.0</ele><time>2026-04-18T17:04:21Z</time></trkpt><trkpt lat="45.24858818153529" lon="7.434470643688449"><ele>565.0</ele><time>2026-04-18T17:04:22Z</time></trkpt><trkpt lat="45.248514380471754" lon="7.434490243896273"><ele>566.0</ele><time>2026-04-18T17:04:23Z</time></trkpt><trkpt lat="45.24844645329622" lon="7.434458609641634"><ele>567.0</ele><time>2026-04-18T17:04:24Z</time></trkpt><trkpt lat="45.248391341277774" lon="7.4343774903219"><ele>568.0</ele><time>2026-04-18T17:04:25Z</time></trkpt><trkpt lat="45.24837137014238" lon="7.434263594071818"><ele>569.0</ele><time>2026-04-18T17:04:26Z</time></trkpt><trkpt lat="45.24832129675408" lon="7.434161848650266"><ele>569.0</ele><time>2026-04-18T17:04:27Z</time></trkpt><trkpt lat="45.248258790252194" lon="7.434051928204933"><ele>569.0</ele><time>2026-04-18T17:04:28Z</time></trkpt><trkpt lat="45.24815442028233" lon="7.43396322656969"><ele>569.0</ele><time>2026-04-18T17:04:29Z</time></trkpt><trkpt lat="45.24801472775264" lon="7.43384908822481"><ele>569.0</ele><time>2026-04-18T17:04:30Z</time></trkpt><trkpt lat="45.24782800826953" lon="7.433729887757762"><ele>570.5</ele><time>2026-04-18T17:04:31Z</time></trkpt><trkpt lat="45.24761942870265" lon="7.433568070391946"><ele>572.0</ele><time>2026-04-18T17:04:32Z</time></trkpt><trkpt lat="45.24743485205862" lon="7.433381173191557"><ele>572.0</ele><time>2026-04-18T17:04:33Z</time></trkpt><trkpt lat="45.24728425749879" lon="7.433198504727376"><ele>572.0</ele><time>2026-04-18T17:04:34Z</time></trkpt><trkpt lat="45.24714504786033" lon="7.433028116958503"><ele>572.0</ele><time>2026-04-18T17:04:35Z</time></trkpt><trkpt lat="45.247020789981256" lon="7.432869893458844"><ele>572.0</ele><time>2026-04-18T17:04:36Z</time></trkpt><trkpt lat="45.24686532856445" lon="7.4327562715943"><ele>572.0</ele><time>2026-04-18T17:04:37Z</time></trkpt><trkpt lat="45.24666415693112" lon="7.432650238444025"><ele>572.0</ele><time>2026-04-18T17:04:38Z</time></trkpt><trkpt lat="45.24646696002871" lon="7.432474680613101"><ele>571.0</ele><time>2026-04-18T17:04:39Z</time></trkpt><trkpt lat="45.24629580652382" lon="7.432332129954936"><ele>570.0</ele><time>2026-04-18T17:04:40Z</time></trkpt><trkpt lat="45.246162710365525" lon="7.432186825253925"><ele>569.0</ele><time>2026-04-18T17:04:41.001Z</time></trkpt><trkpt lat="45.24604818476728" lon="7.432030455796235"><ele>569.0</ele><time>2026-04-18T17:04:42.001Z</time></trkpt><trkpt lat="45.24593600495536" lon="7.431923148498151"><ele>569.0</ele><time>2026-04-18T17:04:43.001Z</time></trkpt><trkpt lat="45.24583140438033" lon="7.431835942715056"><ele>569.0</ele><time>2026-04-18T17:04:44.001Z</time></trkpt><trkpt lat="45.24571630484397" lon="7.4317931935571995"><ele>569.0</ele><time>2026-04-18T17:04:45.001Z</time></trkpt><trkpt lat="45.24559038076251" lon="7.431804024283354"><ele>570.25</ele><time>2026-04-18T17:04:46.001Z</time></trkpt><trkpt lat="45.24547700626886" lon="7.431866342594485"><ele>571.5</ele><time>2026-04-18T17:04:47.001Z</time></trkpt><trkpt lat="45.245373287269" lon="7.431977934218226"><ele>572.75</ele><time>2026-04-18T17:04:48.001Z</time></trkpt><trkpt lat="45.24526507841489" lon="7.432140372452944"><ele>574.0</ele><time>2026-04-18T17:04:49.001Z</time></trkpt><trkpt lat="45.24516023366395" lon="7.432379910233421"><ele>575.3333333333334</ele><time>2026-04-18T17:04:50.001Z</time></trkpt><trkpt lat="45.24504356461389" lon="7.432636553999468"><ele>576.6666666666666</ele><time>2026-04-18T17:04:51.001Z</time></trkpt><trkpt lat="45.244940245667024" lon="7.432869151844546"><ele>578.0</ele><time>2026-04-18T17:04:52.001Z</time></trkpt><trkpt lat="45.24485728452393" lon="7.43307838069073"><ele>578.1999999999999</ele><time>2026-04-18T17:04:53.001Z</time></trkpt><trkpt lat="45.244793305663094" lon="7.433258624403696"><ele>578.4</ele><time>2026-04-18T17:04:54.001Z</time></trkpt><trkpt lat="45.24473429003473" lon="7.433406502095954"><ele>578.5999999999999</ele><time>2026-04-18T17:04:55.001Z</time></trkpt><trkpt lat="45.24467622203214" lon="7.433505298090881"><ele>578.8</ele><time>2026-04-18T17:04:56.001Z</time></trkpt><trkpt lat="45.244640803286075" lon="7.433592442593099"><ele>579.0</ele><time>2026-04-18T17:04:57.001Z</time></trkpt><trkpt lat="45.2445662520106" lon="7.433601779681292"><ele>579.0</ele><time>2026-04-18T17:04:58.001Z</time></trkpt><trkpt lat="45.24448758494295" lon="7.433555782873797"><ele>579.0</ele><time>2026-04-18T17:04:59.001Z</time></trkpt><trkpt lat="45.24440059443107" lon="7.433450106084521"><ele>579.0</ele><time>2026-04-18T17:05:00.001Z</time></trkpt><trkpt lat="45.24429206548694" lon="7.433401883779345"><ele>579.0</ele><time>2026-04-18T17:05:01.001Z</time></trkpt><trkpt lat="45.24418715654279" lon="7.433370902086433"><ele>579.0</ele><time>2026-04-18T17:05:02.001Z</time></trkpt><trkpt lat="45.24408396866748" lon="7.433387642846307"><ele>579.0</ele><time>2026-04-18T17:05:03.001Z</time></trkpt><trkpt lat="45.2439940269313" lon="7.433553163304455"><ele>579.0</ele><time>2026-04-18T17:05:04.001Z</time></trkpt><trkpt lat="45.243888995116315" lon="7.43369563900876"><ele>579.0</ele><time>2026-04-18T17:05:05.001Z</time></trkpt><trkpt lat="45.243753929242864" lon="7.433836153930414"><ele>579.3333333333334</ele><time>2026-04-18T17:05:06.001Z</time></trkpt><trkpt lat="45.24359147348731" lon="7.433951877642071"><ele>579.6666666666667</ele><time>2026-04-18T17:05:07.001Z</time></trkpt><trkpt lat="45.243388484189694" lon="7.434024649504342"><ele>580.0</ele><time>2026-04-18T17:05:08.001Z</time></trkpt><trkpt lat="45.243195321199686" lon="7.434113263191754"><ele>587.5</ele><time>2026-04-18T17:05:09.001Z</time></trkpt><trkpt lat="45.24300218367639" lon="7.4342491041542855"><ele>595.0</ele><time>2026-04-18T17:05:10.001Z</time></trkpt><trkpt lat="45.24279881639877" lon="7.4344163065089495"><ele>595.0</ele><time>2026-04-18T17:05:11.001Z</time></trkpt><trkpt lat="45.24260660298804" lon="7.434554356868951"><ele>595.0</ele><time>2026-04-18T17:05:12.001Z</time></trkpt><trkpt lat="45.24243168721299" lon="7.434664303166387"><ele>595.0</ele><time>2026-04-18T17:05:13Z</time></trkpt><trkpt lat="45.24226122840876" lon="7.434714350335059"><ele>595.0</ele><time>2026-04-18T17:05:14Z</time></trkpt><trkpt lat="45.2421018338979" lon="7.434752263489813"><ele>595.0</ele><time>2026-04-18T17:05:15Z</time></trkpt><trkpt lat="45.241965590746" lon="7.434827076665837"><ele>595.0</ele><time>2026-04-18T17:05:16Z</time></trkpt><trkpt lat="45.24183165232725" lon="7.434929674675169"><ele>595.0</ele><time>2026-04-18T17:05:17Z</time></trkpt><trkpt lat="45.24168173113911" lon="7.4350987981473855"><ele>595.0</ele><time>2026-04-18T17:05:18Z</time></trkpt><trkpt lat="45.2415276442871" lon="7.435290814761711"><ele>595.0</ele><time>2026-04-18T17:05:19Z</time></trkpt><trkpt lat="45.24142396597382" lon="7.435477937821547"><ele>597.5</ele><time>2026-04-18T17:05:20Z</time></trkpt><trkpt lat="45.24133944025588" lon="7.435665283011241"><ele>600.0</ele><time>2026-04-18T17:05:21Z</time></trkpt><trkpt lat="45.24125680060038" lon="7.4358353019755175"><ele>602.5</ele><time>2026-04-18T17:05:22Z</time></trkpt><trkpt lat="45.2411438469708" lon="7.435930754477293"><ele>605.0</ele><time>2026-04-18T17:05:23Z</time></trkpt><trkpt lat="45.24103614475307" lon="7.436064342693997"><ele>605.0</ele><time>2026-04-18T17:05:24Z</time></trkpt><trkpt lat="45.24095460605694" lon="7.436245274385991"><ele>605.0</ele><time>2026-04-18T17:05:25Z</time></trkpt><trkpt lat="45.24085857731276" lon="7.43642066886148"><ele>605.0</ele><time>2026-04-18T17:05:26Z</time></trkpt><trkpt lat="45.240737165047506" lon="7.436557818563613"><ele>606.3333333333333</ele><time>2026-04-18T17:05:27Z</time></trkpt><trkpt lat="45.24061621347025" lon="7.436698859427059"><ele>607.6666666666666</ele><time>2026-04-18T17:05:28Z</time></trkpt><trkpt lat="45.24051457295824" lon="7.436873275630285"><ele>609.0</ele><time>2026-04-18T17:05:29Z</time></trkpt><trkpt lat="45.240422993554795" lon="7.437039354219985"><ele>605.0</ele><time>2026-04-18T17:05:30Z</time></trkpt><trkpt lat="45.24034079397084" lon="7.437194919748183"><ele>601.0</ele><time>2026-04-18T17:05:31Z</time></trkpt><trkpt lat="45.240262569310616" lon="7.4373399104084"><ele>597.0</ele><time>2026-04-18T17:05:32Z</time></trkpt><trkpt lat="45.24018117214397" lon="7.437451493630151"><ele>593.0</ele><time>2026-04-18T17:05:33Z</time></trkpt><trkpt lat="45.24010506163793" lon="7.437544575771682"><ele>593.0</ele><time>2026-04-18T17:05:34Z</time></trkpt><trkpt lat="45.24001710921871" lon="7.437578910355027"><ele>593.0</ele><time>2026-04-18T17:05:35Z</time></trkpt><trkpt lat="45.23993966271855" lon="7.437616855513433"><ele>593.0</ele><time>2026-04-18T17:05:36Z</time></trkpt><trkpt lat="45.23983841497741" lon="7.437560902737832"><ele>593.0</ele><time>2026-04-18T17:05:37Z</time></trkpt><trkpt lat="45.23975860236757" lon="7.437494630169709"><ele>593.0</ele><time>2026-04-18T17:05:38Z</time></trkpt><trkpt lat="45.239708611901435" lon="7.437381840947702"><ele>591.4</ele><time>2026-04-18T17:05:39Z</time></trkpt><trkpt lat="45.239630878138755" lon="7.437291470719351"><ele>589.8</ele><time>2026-04-18T17:05:40Z</time></trkpt><trkpt lat="45.239544671918345" lon="7.437225836339346"><ele>588.2</ele><time>2026-04-18T17:05:41Z</time></trkpt><trkpt lat="45.239456821640346" lon="7.437144595414527"><ele>586.6</ele><time>2026-04-18T17:05:42Z</time></trkpt><trkpt lat="45.23936384812056" lon="7.437077922025187"><ele>585.0</ele><time>2026-04-18T17:05:43Z</time></trkpt><trkpt lat="45.23927043675101" lon="7.437024487900368"><ele>587.2</ele><time>2026-04-18T17:05:44Z</time></trkpt><trkpt lat="45.239181762640825" lon="7.436980045450116"><ele>589.4</ele><time>2026-04-18T17:05:45Z</time></trkpt><trkpt lat="45.239093490650035" lon="7.43693003195361"><ele>591.6</ele><time>2026-04-18T17:05:46Z</time></trkpt><trkpt lat="45.23900547856542" lon="7.4368921166763355"><ele>593.8</ele><time>2026-04-18T17:05:47Z</time></trkpt><trkpt lat="45.23891701370961" lon="7.436864477743993"><ele>596.0</ele><time>2026-04-18T17:05:48Z</time></trkpt><trkpt lat="45.23882444079803" lon="7.4368506209809295"><ele>596.0</ele><time>2026-04-18T17:05:49Z</time></trkpt><trkpt lat="45.23872998470979" lon="7.436837040024771"><ele>596.0</ele><time>2026-04-18T17:05:50Z</time></trkpt><trkpt lat="45.23863171847392" lon="7.436823742347695"><ele>596.0</ele><time>2026-04-18T17:05:51Z</time></trkpt><trkpt lat="45.23851993284712" lon="7.436795267837379"><ele>596.0</ele><time>2026-04-18T17:05:52Z</time></trkpt><trkpt lat="45.23840871490552" lon="7.436734468739229"><ele>596.0</ele><time>2026-04-18T17:05:53Z</time></trkpt><trkpt lat="45.23829677013657" lon="7.436644615865205"><ele>596.0</ele><time>2026-04-18T17:05:54Z</time></trkpt><trkpt lat="45.238181834874844" lon="7.43655432355099"><ele>596.0</ele><time>2026-04-18T17:05:55Z</time></trkpt><trkpt lat="45.238074765545804" lon="7.436464429930327"><ele>596.0</ele><time>2026-04-18T17:05:56Z</time></trkpt><trkpt lat="45.23796816778553" lon="7.4363870010491935"><ele>596.0</ele><time>2026-04-18T17:05:57Z</time></trkpt><trkpt lat="45.23785867352307" lon="7.436321556839192"><ele>601.8</ele><time>2026-04-18T17:05:58Z</time></trkpt><trkpt lat="45.23775569461299" lon="7.43624945822364"><ele>607.6</ele><time>2026-04-18T17:05:59Z</time></trkpt><trkpt lat="45.2376448503308" lon="7.436196020027077"><ele>613.4</ele><time>2026-04-18T17:06:00Z</time></trkpt><trkpt lat="45.2375436056315" lon="7.4361599810016425"><ele>619.2</ele><time>2026-04-18T17:06:01Z</time></trkpt><trkpt lat="45.23745043202345" lon="7.436128412710058"><ele>625.0</ele><time>2026-04-18T17:06:02Z</time></trkpt><trkpt lat="45.23735690460109" lon="7.436098999582106"><ele>620.6</ele><time>2026-04-18T17:06:03Z</time></trkpt><trkpt lat="45.237270036042034" lon="7.436067294864847"><ele>616.2</ele><time>2026-04-18T17:06:04Z</time></trkpt><trkpt lat="45.23719190681407" lon="7.436048708846133"><ele>611.8</ele><time>2026-04-18T17:06:05Z</time></trkpt><trkpt lat="45.23709254986937" lon="7.436052980657402"><ele>607.4</ele><time>2026-04-18T17:06:07Z</time></trkpt><trkpt lat="45.23697816839824" lon="7.436055013402387"><ele>603.0</ele><time>2026-04-18T17:06:09Z</time></trkpt><trkpt lat="45.236904021109154" lon="7.436031568305571"><ele>603.0</ele><time>2026-04-18T17:06:10Z</time></trkpt><trkpt lat="45.23682785680024" lon="7.435980966692623"><ele>603.0</ele><time>2026-04-18T17:06:11Z</time></trkpt><trkpt lat="45.236767911552455" lon="7.4359277920713005"><ele>603.0</ele><time>2026-04-18T17:06:12Z</time></trkpt><trkpt lat="45.23669963104899" lon="7.435841417404259"><ele>603.0</ele><time>2026-04-18T17:06:21Z</time></trkpt><trkpt lat="45.23664961345718" lon="7.435782415988614"><ele>603.0</ele><time>2026-04-18T17:06:23Z</time></trkpt><trkpt lat="45.23658750406874" lon="7.435723594520869"><ele>603.0</ele><time>2026-04-18T17:06:25Z</time></trkpt><trkpt lat="45.236503545862966" lon="7.435636799705661"><ele>602.5</ele><time>2026-04-18T17:06:27Z</time></trkpt><trkpt lat="45.23645236207619" lon="7.435577325869635"><ele>602.0</ele><time>2026-04-18T17:06:28Z</time></trkpt><trkpt lat="45.23638958642156" lon="7.4355080317053535"><ele>601.5</ele><time>2026-04-18T17:06:29Z</time></trkpt><trkpt lat="45.23632571379952" lon="7.435437326117053"><ele>601.0</ele><time>2026-04-18T17:06:30Z</time></trkpt><trkpt lat="45.23625553960465" lon="7.435360087331832"><ele>600.5</ele><time>2026-04-18T17:06:31Z</time></trkpt><trkpt lat="45.2361794908138" lon="7.4352854682628555"><ele>600.0</ele><time>2026-04-18T17:06:32Z</time></trkpt><trkpt lat="45.23609664307216" lon="7.435203946751897"><ele>600.0</ele><time>2026-04-18T17:06:33Z</time></trkpt><trkpt lat="45.23601006678521" lon="7.435115926424447"><ele>600.0</ele><time>2026-04-18T17:06:34Z</time></trkpt><trkpt lat="45.235924482724194" lon="7.435018154816039"><ele>600.0</ele><time>2026-04-18T17:06:35Z</time></trkpt><trkpt lat="45.2358438816609" lon="7.4348993105901995"><ele>600.0</ele><time>2026-04-18T17:06:36Z</time></trkpt><trkpt lat="45.235775622565384" lon="7.434741476034844"><ele>599.0</ele><time>2026-04-18T17:06:37Z</time></trkpt><trkpt lat="45.23571261163249" lon="7.434606734331216"><ele>598.0</ele><time>2026-04-18T17:06:38Z</time></trkpt><trkpt lat="45.235655512686" lon="7.434486710565249"><ele>597.0</ele><time>2026-04-18T17:06:39Z</time></trkpt><trkpt lat="45.235593047650354" lon="7.434360202379968"><ele>596.0</ele><time>2026-04-18T17:06:40Z</time></trkpt><trkpt lat="45.235546287519796" lon="7.434213551673065"><ele>595.0</ele><time>2026-04-18T17:06:41Z</time></trkpt><trkpt lat="45.235519934078226" lon="7.434044618188042"><ele>595.0</ele><time>2026-04-18T17:06:42Z</time></trkpt><trkpt lat="45.23551223986111" lon="7.433858552390874"><ele>595.0</ele><time>2026-04-18T17:06:43Z</time></trkpt><trkpt lat="45.23551977148381" lon="7.433642155741042"><ele>595.0</ele><time>2026-04-18T17:06:44Z</time></trkpt><trkpt lat="45.235536104364925" lon="7.433422894435816"><ele>595.0</ele><time>2026-04-18T17:06:45Z</time></trkpt><trkpt lat="45.235546649937895" lon="7.433219824963363"><ele>594.5</ele><time>2026-04-18T17:06:46Z</time></trkpt><trkpt lat="45.23555323837069" lon="7.433041020736031"><ele>594.0</ele><time>2026-04-18T17:06:47Z</time></trkpt><trkpt lat="45.23556838726298" lon="7.43287075537851"><ele>593.5</ele><time>2026-04-18T17:06:48Z</time></trkpt><trkpt lat="45.23559195586735" lon="7.432677194246384"><ele>593.0</ele><time>2026-04-18T17:06:49Z</time></trkpt><trkpt lat="45.23562361762428" lon="7.432431111318724"><ele>601.5</ele><time>2026-04-18T17:06:50Z</time></trkpt><trkpt lat="45.235670466815996" lon="7.432131973486121"><ele>610.0</ele><time>2026-04-18T17:06:51Z</time></trkpt><trkpt lat="45.23572518315844" lon="7.431764786540768"><ele>610.0</ele><time>2026-04-18T17:06:52Z</time></trkpt><trkpt lat="45.2357889819928" lon="7.431391705452837"><ele>610.0</ele><time>2026-04-18T17:06:53Z</time></trkpt><trkpt lat="45.235847962860966" lon="7.431064274760565"><ele>608.6666666666667</ele><time>2026-04-18T17:06:54Z</time></trkpt><trkpt lat="45.23591971784469" lon="7.430778545097145"><ele>607.3333333333334</ele><time>2026-04-18T17:06:55Z</time></trkpt><trkpt lat="45.235998245665144" lon="7.43052155991828"><ele>606.0</ele><time>2026-04-18T17:06:56Z</time></trkpt><trkpt lat="45.23606559969462" lon="7.430284813573809"><ele>604.6666666666666</ele><time>2026-04-18T17:06:57Z</time></trkpt><trkpt lat="45.2361021182774" lon="7.430021409780498"><ele>603.3333333333333</ele><time>2026-04-18T17:06:58Z</time></trkpt><trkpt lat="45.23612166282546" lon="7.4297489407882775"><ele>602.0</ele><time>2026-04-18T17:06:59Z</time></trkpt><trkpt lat="45.23613866781918" lon="7.4295114226970504"><ele>602.0</ele><time>2026-04-18T17:07:00Z</time></trkpt><trkpt lat="45.236148856432735" lon="7.429290413991184"><ele>602.0</ele><time>2026-04-18T17:07:01Z</time></trkpt><trkpt lat="45.2361558663847" lon="7.429077163844227"><ele>602.0</ele><time>2026-04-18T17:07:02Z</time></trkpt><trkpt lat="45.23617043313339" lon="7.42887957990703"><ele>602.0</ele><time>2026-04-18T17:07:03Z</time></trkpt><trkpt lat="45.236202098165656" lon="7.428701370818075"><ele>602.25</ele><time>2026-04-18T17:07:04Z</time></trkpt><trkpt lat="45.23625652657792" lon="7.428516422125574"><ele>602.5</ele><time>2026-04-18T17:07:05Z</time></trkpt><trkpt lat="45.23632091641643" lon="7.428329827088665"><ele>602.75</ele><time>2026-04-18T17:07:06Z</time></trkpt><trkpt lat="45.236401134457516" lon="7.428145877491965"><ele>603.0</ele><time>2026-04-18T17:07:07Z</time></trkpt><trkpt lat="45.23648432285793" lon="7.427926909399556"><ele>607.6666666666666</ele><time>2026-04-18T17:07:08Z</time></trkpt><trkpt lat="45.23659073445718" lon="7.427687890465027"><ele>612.3333333333333</ele><time>2026-04-18T17:07:09Z</time></trkpt><trkpt lat="45.23672835500166" lon="7.42744998643742"><ele>617.0</ele><time>2026-04-18T17:07:10Z</time></trkpt><trkpt lat="45.23686651330886" lon="7.427252629657775"><ele>614.3333333333333</ele><time>2026-04-18T17:07:11Z</time></trkpt><trkpt lat="45.23699048477905" lon="7.4270598782338215"><ele>611.6666666666666</ele><time>2026-04-18T17:07:12Z</time></trkpt><trkpt lat="45.23709593997417" lon="7.426822307749618"><ele>609.0</ele><time>2026-04-18T17:07:13Z</time></trkpt><trkpt lat="45.23719398577176" lon="7.4265233811225695"><ele>608.5</ele><time>2026-04-18T17:07:14Z</time></trkpt><trkpt lat="45.237299479088776" lon="7.426208637993962"><ele>608.0</ele><time>2026-04-18T17:07:15Z</time></trkpt><trkpt lat="45.23740448919423" lon="7.425944733386975"><ele>615.0</ele><time>2026-04-18T17:07:16Z</time></trkpt><trkpt lat="45.23748303576465" lon="7.42563074397002"><ele>622.0</ele><time>2026-04-18T17:07:17.001Z</time></trkpt><trkpt lat="45.237548015513504" lon="7.425260850253602"><ele>622.0</ele><time>2026-04-18T17:07:18.001Z</time></trkpt><trkpt lat="45.23760894792344" lon="7.424871495989607"><ele>622.0</ele><time>2026-04-18T17:07:19Z</time></trkpt><trkpt lat="45.237662895508464" lon="7.4244876684482675"><ele>621.0</ele><time>2026-04-18T17:07:20Z</time></trkpt><trkpt lat="45.237716992424346" lon="7.424130449557783"><ele>620.0</ele><time>2026-04-18T17:07:21Z</time></trkpt><trkpt lat="45.23778360417137" lon="7.423794720303329"><ele>620.0</ele><time>2026-04-18T17:07:22Z</time></trkpt><trkpt lat="45.23783348772925" lon="7.423452601151875"><ele>620.0</ele><time>2026-04-18T17:07:23Z</time></trkpt><trkpt lat="45.23786934649806" lon="7.423121384385689"><ele>621.0</ele><time>2026-04-18T17:07:24Z</time></trkpt><trkpt lat="45.23790494509539" lon="7.422812980970446"><ele>622.0</ele><time>2026-04-18T17:07:25Z</time></trkpt><trkpt lat="45.237922588961624" lon="7.422548168810924"><ele>623.0</ele><time>2026-04-18T17:07:26Z</time></trkpt><trkpt lat="45.23790865516814" lon="7.422303615840442"><ele>624.3333333333333</ele><time>2026-04-18T17:07:27Z</time></trkpt><trkpt lat="45.23786228173858" lon="7.422068607791869"><ele>625.6666666666666</ele><time>2026-04-18T17:07:28Z</time></trkpt><trkpt lat="45.237832651915014" lon="7.421829854966813"><ele>627.0</ele><time>2026-04-18T17:07:29Z</time></trkpt><trkpt lat="45.23785685447831" lon="7.421589083657023"><ele>627.0</ele><time>2026-04-18T17:07:30Z</time></trkpt><trkpt lat="45.2379110180259" lon="7.421334643531707"><ele>627.0</ele><time>2026-04-18T17:07:31Z</time></trkpt><trkpt lat="45.23795385985607" lon="7.4210780930780675"><ele>627.0</ele><time>2026-04-18T17:07:32Z</time></trkpt><trkpt lat="45.23795120422705" lon="7.4208196083887925"><ele>627.0</ele><time>2026-04-18T17:07:33Z</time></trkpt><trkpt lat="45.23790900854654" lon="7.420559544316877"><ele>627.0</ele><time>2026-04-18T17:07:34Z</time></trkpt><trkpt lat="45.237829542268344" lon="7.420295250590271"><ele>627.0</ele><time>2026-04-18T17:07:35Z</time></trkpt><trkpt lat="45.23771633625061" lon="7.420006883087573"><ele>632.5</ele><time>2026-04-18T17:07:36Z</time></trkpt><trkpt lat="45.23759524944591" lon="7.419690221103948"><ele>638.0</ele><time>2026-04-18T17:07:37Z</time></trkpt><trkpt lat="45.237481572811284" lon="7.419370211827786"><ele>636.3333333333333</ele><time>2026-04-18T17:07:38Z</time></trkpt><trkpt lat="45.23737335295334" lon="7.419099361755427"><ele>634.6666666666666</ele><time>2026-04-18T17:07:39Z</time></trkpt><trkpt lat="45.23725580406803" lon="7.418863985743449"><ele>633.0</ele><time>2026-04-18T17:07:40Z</time></trkpt><trkpt lat="45.23714130115036" lon="7.41865920309226"><ele>633.0</ele><time>2026-04-18T17:07:41Z</time></trkpt><trkpt lat="45.23704168939201" lon="7.418468397989144"><ele>633.0</ele><time>2026-04-18T17:07:42Z</time></trkpt><trkpt lat="45.23699998766501" lon="7.418253338555576"><ele>633.0</ele><time>2026-04-18T17:07:43Z</time></trkpt><trkpt lat="45.23696040575684" lon="7.418035105729279"><ele>635.3333333333334</ele><time>2026-04-18T17:07:44Z</time></trkpt><trkpt lat="45.23694027507706" lon="7.417813522940302"><ele>637.6666666666667</ele><time>2026-04-18T17:07:45Z</time></trkpt><trkpt lat="45.23695468259282" lon="7.41760824169124"><ele>640.0</ele><time>2026-04-18T17:07:46Z</time></trkpt><trkpt lat="45.236982301785" lon="7.417395181758831"><ele>640.0</ele><time>2026-04-18T17:07:47Z</time></trkpt><trkpt lat="45.236981459314066" lon="7.417205692063051"><ele>640.0</ele><time>2026-04-18T17:07:48Z</time></trkpt><trkpt lat="45.23693966196281" lon="7.417030330370465"><ele>640.0</ele><time>2026-04-18T17:07:49Z</time></trkpt><trkpt lat="45.23684423834382" lon="7.416835853090528"><ele>640.0</ele><time>2026-04-18T17:07:50Z</time></trkpt><trkpt lat="45.23672145604554" lon="7.416627373166875"><ele>642.5</ele><time>2026-04-18T17:07:51Z</time></trkpt><trkpt lat="45.23660685136453" lon="7.416424357889078"><ele>645.0</ele><time>2026-04-18T17:07:52Z</time></trkpt><trkpt lat="45.236534719704345" lon="7.41626635678898"><ele>647.5</ele><time>2026-04-18T17:07:53Z</time></trkpt><trkpt lat="45.23649521549606" lon="7.416139833143382"><ele>650.0</ele><time>2026-04-18T17:07:54Z</time></trkpt><trkpt lat="45.23650207568757" lon="7.416010206960139"><ele>649.25</ele><time>2026-04-18T17:07:55Z</time></trkpt><trkpt lat="45.23654496045272" lon="7.415872038083397"><ele>648.5</ele><time>2026-04-18T17:07:56Z</time></trkpt><trkpt lat="45.23665321207176" lon="7.415761339534241"><ele>647.75</ele><time>2026-04-18T17:07:57Z</time></trkpt><trkpt lat="45.236730463873776" lon="7.415578790844572"><ele>647.0</ele><time>2026-04-18T17:07:58Z</time></trkpt><trkpt lat="45.23683440462784" lon="7.415375466457532"><ele>647.0</ele><time>2026-04-18T17:07:59Z</time></trkpt><trkpt lat="45.23689967420416" lon="7.4151262208348365"><ele>647.0</ele><time>2026-04-18T17:08:00Z</time></trkpt><trkpt lat="45.23693948253093" lon="7.41483456096486"><ele>647.0</ele><time>2026-04-18T17:08:01Z</time></trkpt><trkpt lat="45.23696508854414" lon="7.414553196286855"><ele>644.75</ele><time>2026-04-18T17:08:02Z</time></trkpt><trkpt lat="45.23699059326388" lon="7.414324467628164"><ele>642.5</ele><time>2026-04-18T17:08:03Z</time></trkpt><trkpt lat="45.23702105709607" lon="7.41413009358441"><ele>640.25</ele><time>2026-04-18T17:08:04Z</time></trkpt><trkpt lat="45.23707525411698" lon="7.413975379092044"><ele>638.0</ele><time>2026-04-18T17:08:05Z</time></trkpt><trkpt lat="45.237172609405995" lon="7.413879632764261"><ele>635.75</ele><time>2026-04-18T17:08:06Z</time></trkpt><trkpt lat="45.23729636556599" lon="7.413755558498084"><ele>633.5</ele><time>2026-04-18T17:08:07Z</time></trkpt><trkpt lat="45.23743967684376" lon="7.413687336482163"><ele>631.25</ele><time>2026-04-18T17:08:08Z</time></trkpt><trkpt lat="45.23755931724024" lon="7.413615132088522"><ele>629.0</ele><time>2026-04-18T17:08:09Z</time></trkpt><trkpt lat="45.23764606818267" lon="7.413515663937726"><ele>635.25</ele><time>2026-04-18T17:08:10Z</time></trkpt><trkpt lat="45.23769918245763" lon="7.413366686273949"><ele>641.5</ele><time>2026-04-18T17:08:11Z</time></trkpt><trkpt lat="45.23771708946541" lon="7.4131652672314825"><ele>647.75</ele><time>2026-04-18T17:08:12Z</time></trkpt><trkpt lat="45.237726258641224" lon="7.412941684768008"><ele>654.0</ele><time>2026-04-18T17:08:13Z</time></trkpt><trkpt lat="45.23776082352936" lon="7.412738153013052"><ele>654.0</ele><time>2026-04-18T17:08:14Z</time></trkpt><trkpt lat="45.23782620539522" lon="7.41256783013799"><ele>654.0</ele><time>2026-04-18T17:08:15Z</time></trkpt><trkpt lat="45.23791764469256" lon="7.412401081742177"><ele>654.0</ele><time>2026-04-18T17:08:16Z</time></trkpt><trkpt lat="45.23805859848607" lon="7.41228054556577"><ele>659.3333333333334</ele><time>2026-04-18T17:08:17Z</time></trkpt><trkpt lat="45.238207240156605" lon="7.412125584752909"><ele>664.6666666666667</ele><time>2026-04-18T17:08:18Z</time></trkpt><trkpt lat="45.23838113397805" lon="7.411997191699339"><ele>670.0</ele><time>2026-04-18T17:08:19Z</time></trkpt><trkpt lat="45.23854248318567" lon="7.411861534719395"><ele>670.0</ele><time>2026-04-18T17:08:20Z</time></trkpt><trkpt lat="45.238693514570336" lon="7.411724341524138"><ele>670.0</ele><time>2026-04-18T17:08:21Z</time></trkpt><trkpt lat="45.238839964014495" lon="7.411590312669287"><ele>670.0</ele><time>2026-04-18T17:08:22Z</time></trkpt><trkpt lat="45.23897339230987" lon="7.411460048869053"><ele>674.2</ele><time>2026-04-18T17:08:23Z</time></trkpt><trkpt lat="45.23909696981525" lon="7.4113599919082915"><ele>678.4</ele><time>2026-04-18T17:08:24Z</time></trkpt><trkpt lat="45.23920731472392" lon="7.4113008455189515"><ele>682.5999999999999</ele><time>2026-04-18T17:08:25Z</time></trkpt><trkpt lat="45.239292126957444" lon="7.411230125936627"><ele>686.8</ele><time>2026-04-18T17:08:26Z</time></trkpt><trkpt lat="45.23934643193637" lon="7.411150729698247"><ele>691.0</ele><time>2026-04-18T17:08:27Z</time></trkpt><trkpt lat="45.239359107610944" lon="7.4110337368195"><ele>691.0</ele><time>2026-04-18T17:08:28Z</time></trkpt><trkpt lat="45.239317150452315" lon="7.410910244732244"><ele>691.0</ele><time>2026-04-18T17:08:29Z</time></trkpt><trkpt lat="45.23924524210754" lon="7.410812758965831"><ele>691.0</ele><time>2026-04-18T17:08:30Z</time></trkpt><trkpt lat="45.23914238450258" lon="7.410744938594072"><ele>691.0</ele><time>2026-04-18T17:08:31Z</time></trkpt><trkpt lat="45.23901791350748" lon="7.4107204039032295"><ele>691.0</ele><time>2026-04-18T17:08:32Z</time></trkpt><trkpt lat="45.23886458748478" lon="7.410715669289613"><ele>687.25</ele><time>2026-04-18T17:08:33Z</time></trkpt><trkpt lat="45.238690607427195" lon="7.410739031677331"><ele>683.5</ele><time>2026-04-18T17:08:34Z</time></trkpt><trkpt lat="45.238558496583856" lon="7.410733811093805"><ele>679.75</ele><time>2026-04-18T17:08:35Z</time></trkpt><trkpt lat="45.23846027784044" lon="7.410708155269102"><ele>676.0</ele><time>2026-04-18T17:08:36Z</time></trkpt><trkpt lat="45.238384779136815" lon="7.41062737865322"><ele>676.0</ele><time>2026-04-18T17:08:37Z</time></trkpt><trkpt lat="45.23834756044185" lon="7.410494386059153"><ele>676.0</ele><time>2026-04-18T17:08:38Z</time></trkpt><trkpt lat="45.23833694583805" lon="7.41034456432225"><ele>676.0</ele><time>2026-04-18T17:08:39Z</time></trkpt><trkpt lat="45.238354338978496" lon="7.410186879278137"><ele>676.0</ele><time>2026-04-18T17:08:40Z</time></trkpt><trkpt lat="45.238358162327074" lon="7.4100098490000015"><ele>676.0</ele><time>2026-04-18T17:08:41Z</time></trkpt><trkpt lat="45.2383360276023" lon="7.409866310291801"><ele>679.5</ele><time>2026-04-18T17:08:42Z</time></trkpt><trkpt lat="45.23825678067781" lon="7.409750595438713"><ele>683.0</ele><time>2026-04-18T17:08:43Z</time></trkpt><trkpt lat="45.23815590219338" lon="7.409623620255415"><ele>686.5</ele><time>2026-04-18T17:08:44Z</time></trkpt><trkpt lat="45.23799380560833" lon="7.4095799617373"><ele>690.0</ele><time>2026-04-18T17:08:45Z</time></trkpt><trkpt lat="45.237890690898155" lon="7.409493560324137"><ele>690.0</ele><time>2026-04-18T17:08:46Z</time></trkpt><trkpt lat="45.23784477902025" lon="7.4093325371710845"><ele>690.0</ele><time>2026-04-18T17:08:47Z</time></trkpt><trkpt lat="45.237799253278375" lon="7.409131464988145"><ele>690.0</ele><time>2026-04-18T17:08:48Z</time></trkpt><trkpt lat="45.23769761232247" lon="7.408890821427122"><ele>698.0</ele><time>2026-04-18T17:08:49Z</time></trkpt><trkpt lat="45.23757561723497" lon="7.408637748525047"><ele>706.0</ele><time>2026-04-18T17:08:50Z</time></trkpt><trkpt lat="45.237430916209306" lon="7.408371983732871"><ele>703.6666666666667</ele><time>2026-04-18T17:08:51Z</time></trkpt><trkpt lat="45.237298445550316" lon="7.408123947166648"><ele>701.3333333333334</ele><time>2026-04-18T17:08:52Z</time></trkpt><trkpt lat="45.23719755299756" lon="7.4079029547803685"><ele>699.0</ele><time>2026-04-18T17:08:53Z</time></trkpt><trkpt lat="45.23713898638899" lon="7.407681690994823"><ele>699.0</ele><time>2026-04-18T17:08:54Z</time></trkpt><trkpt lat="45.237149699889414" lon="7.407437010604945"><ele>699.0</ele><time>2026-04-18T17:08:55Z</time></trkpt><trkpt lat="45.237119300627754" lon="7.407151714458966"><ele>699.0</ele><time>2026-04-18T17:08:56Z</time></trkpt><trkpt lat="45.23708661912122" lon="7.406824428487705"><ele>702.0</ele><time>2026-04-18T17:08:57Z</time></trkpt><trkpt lat="45.23703569679489" lon="7.4064634858342435"><ele>705.0</ele><time>2026-04-18T17:08:58Z</time></trkpt><trkpt lat="45.236974149495346" lon="7.406072299584362"><ele>709.0</ele><time>2026-04-18T17:08:59Z</time></trkpt><trkpt lat="45.23691213721996" lon="7.405659943420609"><ele>713.0</ele><time>2026-04-18T17:09:00Z</time></trkpt><trkpt lat="45.2368519224444" lon="7.405274826575369"><ele>715.5</ele><time>2026-04-18T17:09:01Z</time></trkpt><trkpt lat="45.23679562577866" lon="7.404943978915795"><ele>718.0</ele><time>2026-04-18T17:09:02Z</time></trkpt><trkpt lat="45.23674495955576" lon="7.404638622728556"><ele>719.0</ele><time>2026-04-18T17:09:03Z</time></trkpt><trkpt lat="45.2366978819017" lon="7.404369407363902"><ele>720.0</ele><time>2026-04-18T17:09:04Z</time></trkpt><trkpt lat="45.236649981943614" lon="7.404124059536739"><ele>721.0</ele><time>2026-04-18T17:09:05Z</time></trkpt><trkpt lat="45.23661960391684" lon="7.403891190163682"><ele>721.0</ele><time>2026-04-18T17:09:06Z</time></trkpt><trkpt lat="45.236634134050284" lon="7.403680069419208"><ele>721.0</ele><time>2026-04-18T17:09:07Z</time></trkpt><trkpt lat="45.236656546120194" lon="7.4034585746133805"><ele>721.0</ele><time>2026-04-18T17:09:08Z</time></trkpt><trkpt lat="45.23667783818274" lon="7.403222463555773"><ele>721.6666666666667</ele><time>2026-04-18T17:09:09Z</time></trkpt><trkpt lat="45.23670357762984" lon="7.402994835126399"><ele>722.3333333333334</ele><time>2026-04-18T17:09:10Z</time></trkpt><trkpt lat="45.23672650534063" lon="7.402777370026561"><ele>723.0</ele><time>2026-04-18T17:09:11Z</time></trkpt><trkpt lat="45.23675087579506" lon="7.4025760329065875"><ele>723.0</ele><time>2026-04-18T17:09:12Z</time></trkpt><trkpt lat="45.23678997857826" lon="7.402383850236648"><ele>723.0</ele><time>2026-04-18T17:09:13Z</time></trkpt><trkpt lat="45.236838007242845" lon="7.4021959056098705"><ele>723.0</ele><time>2026-04-18T17:09:14Z</time></trkpt><trkpt lat="45.23689339516854" lon="7.402026389312089"><ele>723.0</ele><time>2026-04-18T17:09:15Z</time></trkpt><trkpt lat="45.23694358628881" lon="7.401852687465095"><ele>723.25</ele><time>2026-04-18T17:09:16Z</time></trkpt><trkpt lat="45.23698880486707" lon="7.401692237879476"><ele>723.5</ele><time>2026-04-18T17:09:17Z</time></trkpt><trkpt lat="45.237035747884406" lon="7.40155157150591"><ele>723.75</ele><time>2026-04-18T17:09:18Z</time></trkpt><trkpt lat="45.23711809204223" lon="7.401449419286981"><ele>724.0</ele><time>2026-04-18T17:09:19Z</time></trkpt><trkpt lat="45.23720623568806" lon="7.401325250064204"><ele>725.25</ele><time>2026-04-18T17:09:20Z</time></trkpt><trkpt lat="45.23730384830617" lon="7.401219238370655"><ele>726.5</ele><time>2026-04-18T17:09:21Z</time></trkpt><trkpt lat="45.23740837273633" lon="7.401098693142595"><ele>727.75</ele><time>2026-04-18T17:09:22Z</time></trkpt><trkpt lat="45.23751694662096" lon="7.400985611421674"><ele>729.0</ele><time>2026-04-18T17:09:23Z</time></trkpt><trkpt lat="45.23762213891795" lon="7.400885547475892"><ele>729.0</ele><time>2026-04-18T17:09:24Z</time></trkpt><trkpt lat="45.23770704677565" lon="7.400800626766353"><ele>729.0</ele><time>2026-04-18T17:09:25Z</time></trkpt><trkpt lat="45.237769089651685" lon="7.400728078882979"><ele>729.0</ele><time>2026-04-18T17:09:26Z</time></trkpt><trkpt lat="45.23780754893535" lon="7.400639778031248"><ele>729.0</ele><time>2026-04-18T17:09:27Z</time></trkpt><trkpt lat="45.237810717130834" lon="7.40052959928153"><ele>729.0</ele><time>2026-04-18T17:09:28Z</time></trkpt><trkpt lat="45.237774326695316" lon="7.400399568101244"><ele>729.0</ele><time>2026-04-18T17:09:29Z</time></trkpt><trkpt lat="45.23771039740888" lon="7.4002602175838295"><ele>728.8000000000001</ele><time>2026-04-18T17:09:30Z</time></trkpt><trkpt lat="45.23763294615267" lon="7.400119170516818"><ele>728.6</ele><time>2026-04-18T17:09:31Z</time></trkpt><trkpt lat="45.23756971832601" lon="7.399999222988746"><ele>728.4</ele><time>2026-04-18T17:09:32Z</time></trkpt><trkpt lat="45.23753993630652" lon="7.399878894303957"><ele>728.2</ele><time>2026-04-18T17:09:33Z</time></trkpt><trkpt lat="45.2375487741964" lon="7.399746722512915"><ele>728.0</ele><time>2026-04-18T17:09:34Z</time></trkpt><trkpt lat="45.237593406477636" lon="7.399616283393089"><ele>725.0</ele><time>2026-04-18T17:09:35Z</time></trkpt><trkpt lat="45.23766857207857" lon="7.3995238454678605"><ele>722.0</ele><time>2026-04-18T17:09:36Z</time></trkpt><trkpt lat="45.23776296654062" lon="7.39940541484635"><ele>719.0</ele><time>2026-04-18T17:09:37Z</time></trkpt><trkpt lat="45.23787396246003" lon="7.399270997988642"><ele>716.0</ele><time>2026-04-18T17:09:38Z</time></trkpt><trkpt lat="45.237987408537215" lon="7.399193088142925"><ele>716.0</ele><time>2026-04-18T17:09:39Z</time></trkpt><trkpt lat="45.23808946825911" lon="7.399166214718221"><ele>716.0</ele><time>2026-04-18T17:09:40Z</time></trkpt><trkpt lat="45.238185556050034" lon="7.399177856872549"><ele>716.0</ele><time>2026-04-18T17:09:41Z</time></trkpt><trkpt lat="45.23826663514731" lon="7.399160012365322"><ele>716.0</ele><time>2026-04-18T17:09:42Z</time></trkpt><trkpt lat="45.23832412093635" lon="7.3990969942840845"><ele>716.0</ele><time>2026-04-18T17:09:43Z</time></trkpt><trkpt lat="45.23835394212314" lon="7.398983706286259"><ele>716.0</ele><time>2026-04-18T17:09:44Z</time></trkpt><trkpt lat="45.23835287482485" lon="7.398844576210429"><ele>717.5</ele><time>2026-04-18T17:09:45Z</time></trkpt><trkpt lat="45.238320283689504" lon="7.398695574108446"><ele>719.0</ele><time>2026-04-18T17:09:46Z</time></trkpt><trkpt lat="45.2382586247971" lon="7.398526830889452"><ele>720.5</ele><time>2026-04-18T17:09:47Z</time></trkpt><trkpt lat="45.238184149276925" lon="7.398349051740124"><ele>722.0</ele><time>2026-04-18T17:09:48Z</time></trkpt><trkpt lat="45.23809594221997" lon="7.398179104150211"><ele>722.0</ele><time>2026-04-18T17:09:49Z</time></trkpt><trkpt lat="45.23798129155731" lon="7.398038622525247"><ele>722.0</ele><time>2026-04-18T17:09:50Z</time></trkpt><trkpt lat="45.237836475398986" lon="7.397900102182864"><ele>722.0</ele><time>2026-04-18T17:09:51Z</time></trkpt><trkpt lat="45.23769536168623" lon="7.397728856271984"><ele>727.3333333333333</ele><time>2026-04-18T17:09:52Z</time></trkpt><trkpt lat="45.23757235793637" lon="7.397544095463857"><ele>732.6666666666666</ele><time>2026-04-18T17:09:53Z</time></trkpt><trkpt lat="45.23746732662002" lon="7.397353735485636"><ele>738.0</ele><time>2026-04-18T17:09:54Z</time></trkpt><trkpt lat="45.2373841924049" lon="7.397126502220364"><ele>736.5</ele><time>2026-04-18T17:09:55Z</time></trkpt><trkpt lat="45.23732040542973" lon="7.396923011942693"><ele>735.0</ele><time>2026-04-18T17:09:56Z</time></trkpt><trkpt lat="45.23725541429221" lon="7.396753554424471"><ele>733.5</ele><time>2026-04-18T17:09:57Z</time></trkpt><trkpt lat="45.23715759869212" lon="7.396635811444151"><ele>732.0</ele><time>2026-04-18T17:09:58Z</time></trkpt><trkpt lat="45.23703170164059" lon="7.39655921026549"><ele>732.0</ele><time>2026-04-18T17:09:59Z</time></trkpt><trkpt lat="45.2368781431214" lon="7.396505659582019"><ele>732.0</ele><time>2026-04-18T17:10:00Z</time></trkpt><trkpt lat="45.236727979449185" lon="7.396459830804635"><ele>732.0</ele><time>2026-04-18T17:10:01Z</time></trkpt><trkpt lat="45.236610965087046" lon="7.396408114473246"><ele>732.0</ele><time>2026-04-18T17:10:02Z</time></trkpt><trkpt lat="45.23652158509829" lon="7.396310787850777"><ele>721.75</ele><time>2026-04-18T17:10:03Z</time></trkpt><trkpt lat="45.23645122702892" lon="7.396182284214404"><ele>711.5</ele><time>2026-04-18T17:10:04Z</time></trkpt><trkpt lat="45.23638320879302" lon="7.396002203190634"><ele>701.25</ele><time>2026-04-18T17:10:05Z</time></trkpt><trkpt lat="45.23631893517421" lon="7.395814594806978"><ele>691.0</ele><time>2026-04-18T17:10:06Z</time></trkpt><trkpt lat="45.23628030183724" lon="7.395640368233332"><ele>689.8</ele><time>2026-04-18T17:10:07Z</time></trkpt><trkpt lat="45.23627502712054" lon="7.395493575530592"><ele>688.5999999999999</ele><time>2026-04-18T17:10:08Z</time></trkpt><trkpt lat="45.23629572209615" lon="7.395354534815835"><ele>687.4</ele><time>2026-04-18T17:10:09Z</time></trkpt><trkpt lat="45.236343615142566" lon="7.395246308285393"><ele>686.2</ele><time>2026-04-18T17:10:10Z</time></trkpt><trkpt lat="45.23643138292167" lon="7.395179277420028"><ele>685.0</ele><time>2026-04-18T17:10:11Z</time></trkpt><trkpt lat="45.23653967218216" lon="7.395040857667792"><ele>697.5</ele><time>2026-04-18T17:10:12Z</time></trkpt><trkpt lat="45.23664977888625" lon="7.394910024809743"><ele>710.0</ele><time>2026-04-18T17:10:13Z</time></trkpt><trkpt lat="45.236717231795005" lon="7.39476850777264"><ele>722.5</ele><time>2026-04-18T17:10:14Z</time></trkpt><trkpt lat="45.23674165354089" lon="7.394587667995049"><ele>735.0</ele><time>2026-04-18T17:10:15Z</time></trkpt><trkpt lat="45.236746146778074" lon="7.3943656682910746"><ele>735.0</ele><time>2026-04-18T17:10:16Z</time></trkpt><trkpt lat="45.23676001574076" lon="7.394131230247793"><ele>735.0</ele><time>2026-04-18T17:10:17Z</time></trkpt><trkpt lat="45.23678729436527" lon="7.393887511578256"><ele>735.0</ele><time>2026-04-18T17:10:18Z</time></trkpt><trkpt lat="45.23683552910116" lon="7.393670543944756"><ele>731.3333333333334</ele><time>2026-04-18T17:10:19Z</time></trkpt><trkpt lat="45.23690784845731" lon="7.393468058244307"><ele>727.6666666666667</ele><time>2026-04-18T17:10:20Z</time></trkpt><trkpt lat="45.23699946585378" lon="7.3932820184365005"><ele>724.0</ele><time>2026-04-18T17:10:21Z</time></trkpt><trkpt lat="45.23710591089633" lon="7.393097943562397"><ele>728.0</ele><time>2026-04-18T17:10:22Z</time></trkpt><trkpt lat="45.23722273106794" lon="7.392926996307961"><ele>732.0</ele><time>2026-04-18T17:10:23Z</time></trkpt><trkpt lat="45.237353746113605" lon="7.3927817778360625"><ele>736.0</ele><time>2026-04-18T17:10:24Z</time></trkpt><trkpt lat="45.23750104928363" lon="7.392652146199486"><ele>736.0</ele><time>2026-04-18T17:10:25Z</time></trkpt><trkpt lat="45.237641380641655" lon="7.3925193172105335"><ele>736.0</ele><time>2026-04-18T17:10:26Z</time></trkpt><trkpt lat="45.23776435872162" lon="7.39236889422892"><ele>736.0</ele><time>2026-04-18T17:10:27Z</time></trkpt><trkpt lat="45.237867657946225" lon="7.392190031814477"><ele>738.6666666666667</ele><time>2026-04-18T17:10:28Z</time></trkpt><trkpt lat="45.23795681950643" lon="7.392000800799591"><ele>741.3333333333334</ele><time>2026-04-18T17:10:29Z</time></trkpt><trkpt lat="45.23805090140123" lon="7.391812089970562"><ele>744.0</ele><time>2026-04-18T17:10:30Z</time></trkpt><trkpt lat="45.23817315464031" lon="7.391643726850249"><ele>744.0</ele><time>2026-04-18T17:10:31Z</time></trkpt><trkpt lat="45.238320350307255" lon="7.391489696868628"><ele>744.0</ele><time>2026-04-18T17:10:32Z</time></trkpt><trkpt lat="45.23845219174234" lon="7.39133762178198"><ele>744.0</ele><time>2026-04-18T17:10:33Z</time></trkpt><trkpt lat="45.23856024223283" lon="7.391194068343326"><ele>741.6</ele><time>2026-04-18T17:10:34Z</time></trkpt><trkpt lat="45.23864760835766" lon="7.391066992420736"><ele>739.2</ele><time>2026-04-18T17:10:35.001Z</time></trkpt><trkpt lat="45.23871130330185" lon="7.390965843332161"><ele>736.8000000000001</ele><time>2026-04-18T17:10:36.001Z</time></trkpt><trkpt lat="45.23876367945616" lon="7.390886047133067"><ele>734.4000000000001</ele><time>2026-04-18T17:10:37.001Z</time></trkpt><trkpt lat="45.23879903527253" lon="7.390710526547692"><ele>732.0</ele><time>2026-04-18T17:10:39.001Z</time></trkpt><trkpt lat="45.238792729004444" lon="7.390583694489206"><ele>736.0</ele><time>2026-04-18T17:10:40.001Z</time></trkpt><trkpt lat="45.23876406357551" lon="7.3904881937591576"><ele>740.0</ele><time>2026-04-18T17:10:41.001Z</time></trkpt><trkpt lat="45.23870417016367" lon="7.390437988961417"><ele>744.0</ele><time>2026-04-18T17:10:42.001Z</time></trkpt><trkpt lat="45.238618560935954" lon="7.390425663169675"><ele>748.0</ele><time>2026-04-18T17:10:43.001Z</time></trkpt><trkpt lat="45.23850827742045" lon="7.390425264225483"><ele>752.0</ele><time>2026-04-18T17:10:44.001Z</time></trkpt><trkpt lat="45.23836054306834" lon="7.390448688194863"><ele>752.0</ele><time>2026-04-18T17:10:45.001Z</time></trkpt><trkpt lat="45.238204120032066" lon="7.390466583216912"><ele>752.0</ele><time>2026-04-18T17:10:46.001Z</time></trkpt><trkpt lat="45.2380595016937" lon="7.390453326077663"><ele>752.0</ele><time>2026-04-18T17:10:47.001Z</time></trkpt><trkpt lat="45.23792056273267" lon="7.390462833782961"><ele>752.0</ele><time>2026-04-18T17:10:48.001Z</time></trkpt><trkpt lat="45.23780169584098" lon="7.390438727774519"><ele>746.0</ele><time>2026-04-18T17:10:49.001Z</time></trkpt><trkpt lat="45.23770385309486" lon="7.390396866813333"><ele>740.0</ele><time>2026-04-18T17:10:50.001Z</time></trkpt><trkpt lat="45.237634442381214" lon="7.390318970862191"><ele>734.0</ele><time>2026-04-18T17:10:51.001Z</time></trkpt><trkpt lat="45.23757433934742" lon="7.390222174019092"><ele>728.0</ele><time>2026-04-18T17:10:52.001Z</time></trkpt><trkpt lat="45.23752778921042" lon="7.3900967158443915"><ele>722.0</ele><time>2026-04-18T17:10:53.001Z</time></trkpt><trkpt lat="45.237482241377876" lon="7.3899605629695815"><ele>722.0</ele><time>2026-04-18T17:10:54.001Z</time></trkpt><trkpt lat="45.23745664672817" lon="7.3898576090176205"><ele>722.0</ele><time>2026-04-18T17:10:55.001Z</time></trkpt><trkpt lat="45.23745950748092" lon="7.389763983867449"><ele>722.0</ele><time>2026-04-18T17:10:56.001Z</time></trkpt><trkpt lat="45.237499019206126" lon="7.389658957578377"><ele>722.0</ele><time>2026-04-18T17:10:57.001Z</time></trkpt><trkpt lat="45.23756622915045" lon="7.389576890450145"><ele>722.0</ele><time>2026-04-18T17:10:58.001Z</time></trkpt><trkpt lat="45.23764441273651" lon="7.389448123535877"><ele>722.0</ele><time>2026-04-18T17:10:59.001Z</time></trkpt><trkpt lat="45.237743695250984" lon="7.389326867895306"><ele>718.6666666666666</ele><time>2026-04-18T17:11:00.001Z</time></trkpt><trkpt lat="45.23785057757013" lon="7.389180275622249"><ele>715.3333333333334</ele><time>2026-04-18T17:11:01.001Z</time></trkpt><trkpt lat="45.23796154912027" lon="7.389019800245119"><ele>712.0</ele><time>2026-04-18T17:11:02.001Z</time></trkpt><trkpt lat="45.238083700582855" lon="7.388841869346074"><ele>718.3333333333334</ele><time>2026-04-18T17:11:03.001Z</time></trkpt><trkpt lat="45.23823714572336" lon="7.388659250481182"><ele>724.6666666666666</ele><time>2026-04-18T17:11:04.001Z</time></trkpt><trkpt lat="45.238390383620754" lon="7.388486101990875"><ele>731.0</ele><time>2026-04-18T17:11:05.001Z</time></trkpt><trkpt lat="45.23854128360133" lon="7.388347817210891"><ele>731.0</ele><time>2026-04-18T17:11:06.001Z</time></trkpt><trkpt lat="45.23869779663288" lon="7.388238975950329"><ele>731.0</ele><time>2026-04-18T17:11:07.001Z</time></trkpt><trkpt lat="45.23884284110948" lon="7.388156707723496"><ele>731.0</ele><time>2026-04-18T17:11:08.001Z</time></trkpt><trkpt lat="45.23894169088558" lon="7.3880860379476"><ele>731.0</ele><time>2026-04-18T17:11:09.001Z</time></trkpt><trkpt lat="45.239022386750406" lon="7.388023852453659"><ele>733.4</ele><time>2026-04-18T17:11:10.001Z</time></trkpt><trkpt lat="45.23908146195651" lon="7.387960177596551"><ele>735.8</ele><time>2026-04-18T17:11:11.001Z</time></trkpt><trkpt lat="45.239084609921704" lon="7.387783825707156"><ele>738.1999999999999</ele><time>2026-04-18T17:11:13.001Z</time></trkpt><trkpt lat="45.239036004447485" lon="7.387688463907146"><ele>740.5999999999999</ele><time>2026-04-18T17:11:14.001Z</time></trkpt><trkpt lat="45.23897511487263" lon="7.38760164306151"><ele>743.0</ele><time>2026-04-18T17:11:15.001Z</time></trkpt><trkpt lat="45.23886411762963" lon="7.387600029906001"><ele>743.0</ele><time>2026-04-18T17:11:16.001Z</time></trkpt><trkpt lat="45.23873949476348" lon="7.387619484465384"><ele>743.0</ele><time>2026-04-18T17:11:17.001Z</time></trkpt><trkpt lat="45.23859618144217" lon="7.387640929410597"><ele>743.0</ele><time>2026-04-18T17:11:18.001Z</time></trkpt><trkpt lat="45.23843751693596" lon="7.387638592949194"><ele>743.0</ele><time>2026-04-18T17:11:19.001Z</time></trkpt><trkpt lat="45.238282276767876" lon="7.387624554777929"><ele>743.0</ele><time>2026-04-18T17:11:20.001Z</time></trkpt><trkpt lat="45.23814857131563" lon="7.387612402536475"><ele>743.0</ele><time>2026-04-18T17:11:21.001Z</time></trkpt><trkpt lat="45.2380411037822" lon="7.387597554839947"><ele>743.0</ele><time>2026-04-18T17:11:22.001Z</time></trkpt><trkpt lat="45.23795773056523" lon="7.387563155718581"><ele>743.0</ele><time>2026-04-18T17:11:23.001Z</time></trkpt><trkpt lat="45.23790162982557" lon="7.387480031372142"><ele>743.0</ele><time>2026-04-18T17:11:24.001Z</time></trkpt><trkpt lat="45.23785416868138" lon="7.387362171146781"><ele>736.5</ele><time>2026-04-18T17:11:25.001Z</time></trkpt><trkpt lat="45.23782009868426" lon="7.387220285396203"><ele>730.0</ele><time>2026-04-18T17:11:26.001Z</time></trkpt><trkpt lat="45.23781020295788" lon="7.387052360105551"><ele>723.5</ele><time>2026-04-18T17:11:27.001Z</time></trkpt><trkpt lat="45.237828336776765" lon="7.386873568487899"><ele>717.0</ele><time>2026-04-18T17:11:28.001Z</time></trkpt><trkpt lat="45.23786611796609" lon="7.386684240749726"><ele>717.0</ele><time>2026-04-18T17:11:29.001Z</time></trkpt><trkpt lat="45.23792523764966" lon="7.386475058507969"><ele>717.0</ele><time>2026-04-18T17:11:30.001Z</time></trkpt><trkpt lat="45.23799954304376" lon="7.386228598387362"><ele>717.0</ele><time>2026-04-18T17:11:31Z</time></trkpt><trkpt lat="45.238074910259655" lon="7.385963168287809"><ele>725.0</ele><time>2026-04-18T17:11:32Z</time></trkpt><trkpt lat="45.23814370819161" lon="7.385701698010321"><ele>733.0</ele><time>2026-04-18T17:11:33Z</time></trkpt><trkpt lat="45.23819797447104" lon="7.385461393559161"><ele>741.0</ele><time>2026-04-18T17:11:34Z</time></trkpt><trkpt lat="45.238238251955956" lon="7.385251864006409"><ele>741.0</ele><time>2026-04-18T17:11:35Z</time></trkpt><trkpt lat="45.23824031211051" lon="7.385055861487069"><ele>741.0</ele><time>2026-04-18T17:11:36Z</time></trkpt><trkpt lat="45.238207639804884" lon="7.384861692335361"><ele>741.0</ele><time>2026-04-18T17:11:37Z</time></trkpt><trkpt lat="45.23814660208227" lon="7.384650073663901"><ele>741.0</ele><time>2026-04-18T17:11:38Z</time></trkpt><trkpt lat="45.238081135061904" lon="7.384402179523178"><ele>737.75</ele><time>2026-04-18T17:11:39Z</time></trkpt><trkpt lat="45.238060338188475" lon="7.384159779717936"><ele>734.5</ele><time>2026-04-18T17:11:40Z</time></trkpt><trkpt lat="45.23805594743242" lon="7.383940990315092"><ele>731.25</ele><time>2026-04-18T17:11:41Z</time></trkpt><trkpt lat="45.23804264542615" lon="7.38377566736894"><ele>728.0</ele><time>2026-04-18T17:11:42Z</time></trkpt><trkpt lat="45.23799069537456" lon="7.383647512308114"><ele>728.0</ele><time>2026-04-18T17:11:43Z</time></trkpt><trkpt lat="45.237918105891154" lon="7.383534931693349"><ele>728.0</ele><time>2026-04-18T17:11:44Z</time></trkpt><trkpt lat="45.23786439493213" lon="7.383416542232914"><ele>728.0</ele><time>2026-04-18T17:11:45Z</time></trkpt><trkpt lat="45.23784736374346" lon="7.383290690829232"><ele>728.0</ele><time>2026-04-18T17:11:46Z</time></trkpt><trkpt lat="45.23786523288285" lon="7.383136576077844"><ele>728.0</ele><time>2026-04-18T17:11:47Z</time></trkpt><trkpt lat="45.23788259593694" lon="7.382959847899463"><ele>726.0</ele><time>2026-04-18T17:11:48Z</time></trkpt><trkpt lat="45.237899353471455" lon="7.38278157156134"><ele>724.0</ele><time>2026-04-18T17:11:49Z</time></trkpt><trkpt lat="45.23792336056405" lon="7.382606234070196"><ele>722.0</ele><time>2026-04-18T17:11:50Z</time></trkpt><trkpt lat="45.23796776342158" lon="7.382443653819478"><ele>720.0</ele><time>2026-04-18T17:11:51Z</time></trkpt><trkpt lat="45.23803238648292" lon="7.38228692341847"><ele>719.0</ele><time>2026-04-18T17:11:52Z</time></trkpt><trkpt lat="45.238100422376064" lon="7.3821192985013475"><ele>718.0</ele><time>2026-04-18T17:11:53Z</time></trkpt><trkpt lat="45.238190603205005" lon="7.381968134824062"><ele>717.0</ele><time>2026-04-18T17:11:54Z</time></trkpt><trkpt lat="45.23828016283837" lon="7.3818289278026805"><ele>716.0</ele><time>2026-04-18T17:11:55Z</time></trkpt><trkpt lat="45.238379468070896" lon="7.3817070741000235"><ele>719.0</ele><time>2026-04-18T17:11:56Z</time></trkpt><trkpt lat="45.23850568815788" lon="7.381586886496749"><ele>722.0</ele><time>2026-04-18T17:11:57Z</time></trkpt><trkpt lat="45.238655955836705" lon="7.381454004119078"><ele>725.0</ele><time>2026-04-18T17:11:58Z</time></trkpt><trkpt lat="45.23881818804133" lon="7.381310248962974"><ele>729.6666666666666</ele><time>2026-04-18T17:11:59Z</time></trkpt><trkpt lat="45.23898225581669" lon="7.381154391458678"><ele>734.3333333333334</ele><time>2026-04-18T17:12:00Z</time></trkpt><trkpt lat="45.23915072816419" lon="7.3809902157328855"><ele>739.0</ele><time>2026-04-18T17:12:01Z</time></trkpt><trkpt lat="45.239320094539515" lon="7.380828770270675"><ele>739.0</ele><time>2026-04-18T17:12:02Z</time></trkpt><trkpt lat="45.239483965515795" lon="7.380671101237066"><ele>739.0</ele><time>2026-04-18T17:12:03Z</time></trkpt><trkpt lat="45.23963295592944" lon="7.380514012569616"><ele>739.0</ele><time>2026-04-18T17:12:04Z</time></trkpt><trkpt lat="45.23976398814506" lon="7.38034640288248"><ele>744.6666666666667</ele><time>2026-04-18T17:12:05Z</time></trkpt><trkpt lat="45.23987337685972" lon="7.3801659104203425"><ele>750.3333333333334</ele><time>2026-04-18T17:12:06Z</time></trkpt><trkpt lat="45.239964352622906" lon="7.379986665570994"><ele>756.0</ele><time>2026-04-18T17:12:07Z</time></trkpt><trkpt lat="45.240040327346975" lon="7.379840064558507"><ele>756.0</ele><time>2026-04-18T17:12:08Z</time></trkpt><trkpt lat="45.2401099882854" lon="7.379723628417439"><ele>756.0</ele><time>2026-04-18T17:12:09Z</time></trkpt><trkpt lat="45.24018350678391" lon="7.379637846689795"><ele>756.0</ele><time>2026-04-18T17:12:10Z</time></trkpt><trkpt lat="45.24026273106392" lon="7.379603869216537"><ele>756.0</ele><time>2026-04-18T17:12:11Z</time></trkpt><trkpt lat="45.24034752870734" lon="7.379614863098447"><ele>756.0</ele><time>2026-04-18T17:12:12Z</time></trkpt><trkpt lat="45.24042688829422" lon="7.379668684030598"><ele>756.0</ele><time>2026-04-18T17:12:13Z</time></trkpt><trkpt lat="45.240505645633185" lon="7.379741660038321"><ele>756.0</ele><time>2026-04-18T17:12:14Z</time></trkpt><trkpt lat="45.24059529506644" lon="7.379824091530877"><ele>756.0</ele><time>2026-04-18T17:12:15Z</time></trkpt><trkpt lat="45.240695294808454" lon="7.379913316775255"><ele>756.0</ele><time>2026-04-18T17:12:16Z</time></trkpt><trkpt lat="45.240809422988946" lon="7.379956966914849"><ele>756.0</ele><time>2026-04-18T17:12:17Z</time></trkpt><trkpt lat="45.240925305012134" lon="7.379952830966676"><ele>758.1999999999999</ele><time>2026-04-18T17:12:18Z</time></trkpt><trkpt lat="45.241031644169986" lon="7.379907218056871"><ele>760.4</ele><time>2026-04-18T17:12:19Z</time></trkpt><trkpt lat="45.24114207895148" lon="7.3798318643916385"><ele>762.6</ele><time>2026-04-18T17:12:20Z</time></trkpt><trkpt lat="45.24123844000681" lon="7.3797853476921915"><ele>764.8</ele><time>2026-04-18T17:12:21Z</time></trkpt><trkpt lat="45.24131296419352" lon="7.379754895173042"><ele>767.0</ele><time>2026-04-18T17:12:22Z</time></trkpt><trkpt lat="45.24137115726719" lon="7.37972063015773"><ele>766.0</ele><time>2026-04-18T17:12:23Z</time></trkpt><trkpt lat="45.24141296304675" lon="7.379571797525159"><ele>765.0</ele><time>2026-04-18T17:12:25Z</time></trkpt><trkpt lat="45.241391366979904" lon="7.379481934946139"><ele>764.0</ele><time>2026-04-18T17:12:26Z</time></trkpt><trkpt lat="45.24134237625619" lon="7.379415983075948"><ele>763.0</ele><time>2026-04-18T17:12:27Z</time></trkpt><trkpt lat="45.24126435598037" lon="7.379368330801722"><ele>762.0</ele><time>2026-04-18T17:12:28Z</time></trkpt><trkpt lat="45.241169644618644" lon="7.37931855898505"><ele>761.0</ele><time>2026-04-18T17:12:29Z</time></trkpt><trkpt lat="45.24105650480301" lon="7.379248313339608"><ele>761.0</ele><time>2026-04-18T17:12:30Z</time></trkpt><trkpt lat="45.24094146241551" lon="7.3791754842263355"><ele>761.0</ele><time>2026-04-18T17:12:31Z</time></trkpt><trkpt lat="45.24084253893233" lon="7.379089878747365"><ele>761.0</ele><time>2026-04-18T17:12:32Z</time></trkpt><trkpt lat="45.24075650619069" lon="7.378990116574018"><ele>761.0</ele><time>2026-04-18T17:12:33Z</time></trkpt><trkpt lat="45.24067925539923" lon="7.378866100985378"><ele>763.1999999999999</ele><time>2026-04-18T17:12:34Z</time></trkpt><trkpt lat="45.2406161289661" lon="7.3787380923530845"><ele>765.4</ele><time>2026-04-18T17:12:35Z</time></trkpt><trkpt lat="45.24056646199831" lon="7.37860126780302"><ele>767.6</ele><time>2026-04-18T17:12:36Z</time></trkpt><trkpt lat="45.24051193170919" lon="7.378486140705734"><ele>769.8</ele><time>2026-04-18T17:12:37Z</time></trkpt><trkpt lat="45.240438362874904" lon="7.378395976909139"><ele>772.0</ele><time>2026-04-18T17:12:38Z</time></trkpt><trkpt lat="45.240347062514" lon="7.378365159712436"><ele>772.0</ele><time>2026-04-18T17:12:39Z</time></trkpt><trkpt lat="45.24023845585039" lon="7.378360122429674"><ele>772.0</ele><time>2026-04-18T17:12:40Z</time></trkpt><trkpt lat="45.24012745832179" lon="7.378377415747317"><ele>772.0</ele><time>2026-04-18T17:12:41Z</time></trkpt><trkpt lat="45.24001508483747" lon="7.378398460888579"><ele>772.0</ele><time>2026-04-18T17:12:42Z</time></trkpt><trkpt lat="45.23991138979599" lon="7.378422051698854"><ele>772.0</ele><time>2026-04-18T17:12:43Z</time></trkpt><trkpt lat="45.23982619151506" lon="7.378421383576484"><ele>772.4999999999999</ele><time>2026-04-18T17:12:44Z</time></trkpt><trkpt lat="45.2397545832024" lon="7.3783867426623635"><ele>773.0</ele><time>2026-04-18T17:12:45Z</time></trkpt><trkpt lat="45.239690849395615" lon="7.3783251505673695"><ele>773.5</ele><time>2026-04-18T17:12:46Z</time></trkpt><trkpt lat="45.239637013066485" lon="7.37823898307762"><ele>774.0</ele><time>2026-04-18T17:12:47Z</time></trkpt><trkpt lat="45.23959941492868" lon="7.3781276505267135"><ele>774.4999999999999</ele><time>2026-04-18T17:12:48Z</time></trkpt><trkpt lat="45.239555582271805" lon="7.378012385105267"><ele>775.0</ele><time>2026-04-18T17:12:49Z</time></trkpt><trkpt lat="45.23952020730862" lon="7.377886332630631"><ele>774.9999999999999</ele><time>2026-04-18T17:12:50Z</time></trkpt><trkpt lat="45.23948310365471" lon="7.377771408813533"><ele>775.0</ele><time>2026-04-18T17:12:51Z</time></trkpt><trkpt lat="45.23945020657721" lon="7.377645844208689"><ele>775.0</ele><time>2026-04-18T17:12:52Z</time></trkpt><trkpt lat="45.239426712773515" lon="7.377513190080381"><ele>775.0</ele><time>2026-04-18T17:12:53Z</time></trkpt><trkpt lat="45.23943950789476" lon="7.377391191334719"><ele>774.9999999999999</ele><time>2026-04-18T17:12:54Z</time></trkpt><trkpt lat="45.239422871730575" lon="7.377303353003622"><ele>775.0</ele><time>2026-04-18T17:12:55Z</time></trkpt><trkpt lat="45.239370560892304" lon="7.37714810047776"><ele>775.8333333333333</ele><time>2026-04-18T17:12:57Z</time></trkpt><trkpt lat="45.23934123788114" lon="7.377062399859192"><ele>776.6666666666666</ele><time>2026-04-18T17:12:58Z</time></trkpt><trkpt lat="45.23928545577901" lon="7.376975285333845"><ele>777.5</ele><time>2026-04-18T17:12:59Z</time></trkpt><trkpt lat="45.239230387105025" lon="7.3769113307393335"><ele>778.3333333333333</ele><time>2026-04-18T17:13:00Z</time></trkpt><trkpt lat="45.23917525930307" lon="7.376855251130889"><ele>779.1666666666666</ele><time>2026-04-18T17:13:01Z</time></trkpt><trkpt lat="45.23911582024627" lon="7.376825794092211"><ele>780.0</ele><time>2026-04-18T17:13:02Z</time></trkpt><trkpt lat="45.23904823499817" lon="7.376713843992442"><ele>780.0</ele><time>2026-04-18T17:13:04Z</time></trkpt><trkpt lat="45.238980249751556" lon="7.376652739512851"><ele>780.0</ele><time>2026-04-18T17:13:06Z</time></trkpt><trkpt lat="45.23893451885255" lon="7.376578367504064"><ele>780.0</ele><time>2026-04-18T17:13:08Z</time></trkpt><trkpt lat="45.23889959325654" lon="7.376473401550785"><ele>780.0</ele><time>2026-04-18T17:13:11Z</time></trkpt><trkpt lat="45.238858135749965" lon="7.376395064199763"><ele>780.0</ele><time>2026-04-18T17:13:14Z</time></trkpt><trkpt lat="45.23882795237483" lon="7.376177190315604"><ele>779.75</ele><time>2026-04-18T17:13:16Z</time></trkpt><trkpt lat="45.238768330387565" lon="7.376033803828321"><ele>779.5</ele><time>2026-04-18T17:13:17Z</time></trkpt><trkpt lat="45.23868752767826" lon="7.375870751373363"><ele>779.25</ele><time>2026-04-18T17:13:18Z</time></trkpt><trkpt lat="45.23860247624551" lon="7.375708261080691"><ele>779.0</ele><time>2026-04-18T17:13:19Z</time></trkpt><trkpt lat="45.23853898672119" lon="7.375580158567679"><ele>780.2</ele><time>2026-04-18T17:13:20Z</time></trkpt><trkpt lat="45.23849556186244" lon="7.375472661943647"><ele>781.4000000000001</ele><time>2026-04-18T17:13:21Z</time></trkpt><trkpt lat="45.23846706131869" lon="7.375381140975612"><ele>782.6</ele><time>2026-04-18T17:13:22Z</time></trkpt><trkpt lat="45.238398951837425" lon="7.375275808624372"><ele>783.8</ele><time>2026-04-18T17:13:24Z</time></trkpt><trkpt lat="45.238335544216916" lon="7.375205177898837"><ele>785.0</ele><time>2026-04-18T17:13:26Z</time></trkpt><trkpt lat="45.23822394966366" lon="7.3751321476047"><ele>784.6</ele><time>2026-04-18T17:13:28.001Z</time></trkpt><trkpt lat="45.2381266375932" lon="7.375031186016049"><ele>784.2</ele><time>2026-04-18T17:13:30.001Z</time></trkpt><trkpt lat="45.23809689762397" lon="7.374882127397253"><ele>783.8</ele><time>2026-04-18T17:13:32.001Z</time></trkpt><trkpt lat="45.238107719252596" lon="7.37477574514973"><ele>783.4</ele><time>2026-04-18T17:13:34.001Z</time></trkpt><trkpt lat="45.2381996139579" lon="7.3746555065211625"><ele>783.0</ele><time>2026-04-18T17:13:36.001Z</time></trkpt><trkpt lat="45.238261624873154" lon="7.374577001591405"><ele>783.0</ele><time>2026-04-18T17:13:37Z</time></trkpt><trkpt lat="45.2383191847328" lon="7.374499521900033"><ele>783.0</ele><time>2026-04-18T17:13:38Z</time></trkpt><trkpt lat="45.238383716986164" lon="7.374413318767305"><ele>783.0</ele><time>2026-04-18T17:13:39Z</time></trkpt><trkpt lat="45.23843557237627" lon="7.374310429075864"><ele>783.0</ele><time>2026-04-18T17:13:40Z</time></trkpt><trkpt lat="45.238477019730546" lon="7.374197654155822"><ele>783.0</ele><time>2026-04-18T17:13:41Z</time></trkpt><trkpt lat="45.238501403991755" lon="7.374065962337353"><ele>783.0</ele><time>2026-04-18T17:13:42Z</time></trkpt><trkpt lat="45.23851750940713" lon="7.373929553313876"><ele>783.4</ele><time>2026-04-18T17:13:43Z</time></trkpt><trkpt lat="45.23852124421985" lon="7.373759694496153"><ele>783.8</ele><time>2026-04-18T17:13:44Z</time></trkpt><trkpt lat="45.238525171510446" lon="7.373600933744266"><ele>784.2</ele><time>2026-04-18T17:13:45Z</time></trkpt><trkpt lat="45.238537516671514" lon="7.373448474208938"><ele>784.6</ele><time>2026-04-18T17:13:46Z</time></trkpt><trkpt lat="45.23855091505299" lon="7.373305265066785"><ele>785.0</ele><time>2026-04-18T17:13:47Z</time></trkpt><trkpt lat="45.23856177580751" lon="7.37317769183185"><ele>785.0</ele><time>2026-04-18T17:13:48Z</time></trkpt><trkpt lat="45.23856445511517" lon="7.3730544383243934"><ele>785.0</ele><time>2026-04-18T17:13:49Z</time></trkpt><trkpt lat="45.23854062595251" lon="7.372935123797589"><ele>785.0</ele><time>2026-04-18T17:13:50Z</time></trkpt><trkpt lat="45.23848912071663" lon="7.372797580610507"><ele>785.0</ele><time>2026-04-18T17:13:51Z</time></trkpt><trkpt lat="45.23841569644537" lon="7.372630119318275"><ele>785.0</ele><time>2026-04-18T17:13:52Z</time></trkpt><trkpt lat="45.23829163808422" lon="7.372445627723379"><ele>786.0</ele><time>2026-04-18T17:13:53Z</time></trkpt><trkpt lat="45.23818710329212" lon="7.37224695189004"><ele>787.0</ele><time>2026-04-18T17:13:54Z</time></trkpt><trkpt lat="45.23810033449332" lon="7.37204764050394"><ele>788.0</ele><time>2026-04-18T17:13:55Z</time></trkpt><trkpt lat="45.23801942882517" lon="7.371870704233808"><ele>788.0</ele><time>2026-04-18T17:13:56Z</time></trkpt><trkpt lat="45.23794335236277" lon="7.371709911703159"><ele>788.0</ele><time>2026-04-18T17:13:57Z</time></trkpt><trkpt lat="45.237873219941164" lon="7.371567298151031"><ele>788.0</ele><time>2026-04-18T17:13:58Z</time></trkpt><trkpt lat="45.23781415895824" lon="7.371449899405516"><ele>788.0</ele><time>2026-04-18T17:13:59Z</time></trkpt><trkpt lat="45.237769176959794" lon="7.371362899095536"><ele>788.0</ele><time>2026-04-18T17:14:00Z</time></trkpt><trkpt lat="45.23771668875084" lon="7.371312062838661"><ele>788.0000000000001</ele><time>2026-04-18T17:14:01Z</time></trkpt><trkpt lat="45.23759195015962" lon="7.3713241793449376"><ele>788.0</ele><time>2026-04-18T17:14:03Z</time></trkpt><trkpt lat="45.2375276962216" lon="7.371400553198548"><ele>788.0</ele><time>2026-04-18T17:14:04Z</time></trkpt><trkpt lat="45.23747806724726" lon="7.371469651356168"><ele>788.0</ele><time>2026-04-18T17:14:05Z</time></trkpt><trkpt lat="45.2374153751876" lon="7.371494097112869"><ele>788.0000000000001</ele><time>2026-04-18T17:14:06Z</time></trkpt><trkpt lat="45.23734497555293" lon="7.371466888936017"><ele>788.0</ele><time>2026-04-18T17:14:07Z</time></trkpt><trkpt lat="45.23728957030616" lon="7.371367284313105"><ele>774.0</ele><time>2026-04-18T17:14:08Z</time></trkpt><trkpt lat="45.2372330921986" lon="7.371258006051222"><ele>786.0</ele><time>2026-04-18T17:14:09Z</time></trkpt></trkseg></trk></gpx>